<?xml version="1.0" encoding="UTF-8" standalone="no" ?><gpx xmlns="http://www.topografix.com/GPX/1/1" xmlns:gpxx="http://www.garmin.com/xmlschemas/GpxExtensions/v3" xmlns:wptx1="http://www.garmin.com/xmlschemas/WaypointExtension/v1" xmlns:gpxtpx="http://www.garmin.com/xmlschemas/TrackPointExtension/v1" creator="GuideVTT.com" version="1.1" xmlns:xsi="http://www.w3.org/2001/XMLSchema-instance" xsi:schemaLocation="http://www.topografix.com/GPX/1/1 http://www.topografix.com/GPX/1/1/gpx.xsd http://www.garmin.com/xmlschemas/GpxExtensions/v3 http://www8.garmin.com/xmlschemas/GpxExtensionsv3.xsd http://www.garmin.com/xmlschemas/WaypointExtension/v1 http://www8.garmin.com/xmlschemas/WaypointExtensionv1.xsd http://www.garmin.com/xmlschemas/TrackPointExtension/v1 http://www.garmin.com/xmlschemas/TrackPointExtensionv1.xsd">
<metadata><link href="http://www.garmin.com"><text>Garmin International</text></link><time>2013-06-22T15:13:50Z</time></metadata>
<trk><name>00000_20110114.gpx</name><extensions><gpxx:TrackExtension><gpxx:DisplayColor>Cyan</gpxx:DisplayColor></gpxx:TrackExtension></extensions><trkseg>
<trkpt lat="43.876125" lon="5.398423"><ele></ele><time>2014-4-27T13:6:48Z</time></trkpt>
<trkpt lat="43.876030" lon="5.398415"><ele></ele><time>2014-4-27T13:6:51Z</time></trkpt>
<trkpt lat="43.875538" lon="5.400088"><ele></ele><time>2014-4-27T13:6:54Z</time></trkpt>
<trkpt lat="43.875388" lon="5.400223"><ele></ele><time>2014-4-27T13:6:57Z</time></trkpt>
<trkpt lat="43.875228" lon="5.400345"><ele></ele><time>2014-4-27T13:7:0Z</time></trkpt>
<trkpt lat="43.875062" lon="5.400265"><ele></ele><time>2014-4-27T13:7:3Z</time></trkpt>
<trkpt lat="43.874917" lon="5.400357"><ele></ele><time>2014-4-27T13:7:6Z</time></trkpt>
<trkpt lat="43.874847" lon="5.400612"><ele></ele><time>2014-4-27T13:7:9Z</time></trkpt>
<trkpt lat="43.874698" lon="5.400833"><ele></ele><time>2014-4-27T13:7:12Z</time></trkpt>
<trkpt lat="43.874557" lon="5.400998"><ele></ele><time>2014-4-27T13:7:15Z</time></trkpt>
<trkpt lat="43.874435" lon="5.401177"><ele></ele><time>2014-4-27T13:7:18Z</time></trkpt>
<trkpt lat="43.874358" lon="5.401367"><ele></ele><time>2014-4-27T13:7:21Z</time></trkpt>
<trkpt lat="43.874325" lon="5.401582"><ele></ele><time>2014-4-27T13:7:24Z</time></trkpt>
<trkpt lat="43.874295" lon="5.401800"><ele></ele><time>2014-4-27T13:7:27Z</time></trkpt>
<trkpt lat="43.874268" lon="5.402017"><ele></ele><time>2014-4-27T13:7:30Z</time></trkpt>
<trkpt lat="43.874237" lon="5.402225"><ele></ele><time>2014-4-27T13:7:33Z</time></trkpt>
<trkpt lat="43.874215" lon="5.402422"><ele></ele><time>2014-4-27T13:7:36Z</time></trkpt>
<trkpt lat="43.874180" lon="5.402615"><ele></ele><time>2014-4-27T13:7:39Z</time></trkpt>
<trkpt lat="43.874160" lon="5.402812"><ele></ele><time>2014-4-27T13:7:42Z</time></trkpt>
<trkpt lat="43.874130" lon="5.403000"><ele></ele><time>2014-4-27T13:7:45Z</time></trkpt>
<trkpt lat="43.874107" lon="5.403195"><ele></ele><time>2014-4-27T13:7:48Z</time></trkpt>
<trkpt lat="43.874073" lon="5.403378"><ele></ele><time>2014-4-27T13:7:51Z</time></trkpt>
<trkpt lat="43.874043" lon="5.403555"><ele></ele><time>2014-4-27T13:7:54Z</time></trkpt>
<trkpt lat="43.874012" lon="5.403735"><ele></ele><time>2014-4-27T13:7:57Z</time></trkpt>
<trkpt lat="43.873978" lon="5.403915"><ele></ele><time>2014-4-27T13:8:0Z</time></trkpt>
<trkpt lat="43.873947" lon="5.404095"><ele></ele><time>2014-4-27T13:8:3Z</time></trkpt>
<trkpt lat="43.873917" lon="5.404270"><ele></ele><time>2014-4-27T13:8:6Z</time></trkpt>
<trkpt lat="43.873882" lon="5.404440"><ele></ele><time>2014-4-27T13:8:9Z</time></trkpt>
<trkpt lat="43.873840" lon="5.404597"><ele></ele><time>2014-4-27T13:8:12Z</time></trkpt>
<trkpt lat="43.873763" lon="5.404720"><ele></ele><time>2014-4-27T13:8:15Z</time></trkpt>
<trkpt lat="43.873680" lon="5.404823"><ele></ele><time>2014-4-27T13:8:18Z</time></trkpt>
<trkpt lat="43.873592" lon="5.404917"><ele></ele><time>2014-4-27T13:8:21Z</time></trkpt>
<trkpt lat="43.873497" lon="5.405000"><ele></ele><time>2014-4-27T13:8:24Z</time></trkpt>
<trkpt lat="43.873410" lon="5.405095"><ele></ele><time>2014-4-27T13:8:27Z</time></trkpt>
<trkpt lat="43.873313" lon="5.405183"><ele></ele><time>2014-4-27T13:8:30Z</time></trkpt>
<trkpt lat="43.873230" lon="5.405287"><ele></ele><time>2014-4-27T13:8:33Z</time></trkpt>
<trkpt lat="43.873168" lon="5.405413"><ele></ele><time>2014-4-27T13:8:36Z</time></trkpt>
<trkpt lat="43.873147" lon="5.405553"><ele></ele><time>2014-4-27T13:8:39Z</time></trkpt>
<trkpt lat="43.873138" lon="5.405700"><ele></ele><time>2014-4-27T13:8:42Z</time></trkpt>
<trkpt lat="43.873138" lon="5.405847"><ele></ele><time>2014-4-27T13:8:45Z</time></trkpt>
<trkpt lat="43.873147" lon="5.405993"><ele></ele><time>2014-4-27T13:8:48Z</time></trkpt>
<trkpt lat="43.873180" lon="5.406133"><ele></ele><time>2014-4-27T13:8:51Z</time></trkpt>
<trkpt lat="43.873233" lon="5.406262"><ele></ele><time>2014-4-27T13:8:54Z</time></trkpt>
<trkpt lat="43.873292" lon="5.406382"><ele></ele><time>2014-4-27T13:8:57Z</time></trkpt>
<trkpt lat="43.873348" lon="5.406503"><ele></ele><time>2014-4-27T13:9:0Z</time></trkpt>
<trkpt lat="43.873393" lon="5.406640"><ele></ele><time>2014-4-27T13:9:3Z</time></trkpt>
<trkpt lat="43.873425" lon="5.406785"><ele></ele><time>2014-4-27T13:9:6Z</time></trkpt>
<trkpt lat="43.873447" lon="5.406905"><ele></ele><time>2014-4-27T13:9:9Z</time></trkpt>
<trkpt lat="43.873463" lon="5.407020"><ele></ele><time>2014-4-27T13:9:12Z</time></trkpt>
<trkpt lat="43.873482" lon="5.407135"><ele></ele><time>2014-4-27T13:9:15Z</time></trkpt>
<trkpt lat="43.873493" lon="5.407252"><ele></ele><time>2014-4-27T13:9:18Z</time></trkpt>
<trkpt lat="43.873490" lon="5.407370"><ele></ele><time>2014-4-27T13:9:21Z</time></trkpt>
<trkpt lat="43.873478" lon="5.407487"><ele></ele><time>2014-4-27T13:9:24Z</time></trkpt>
<trkpt lat="43.873455" lon="5.407602"><ele></ele><time>2014-4-27T13:9:27Z</time></trkpt>
<trkpt lat="43.873420" lon="5.407715"><ele></ele><time>2014-4-27T13:9:30Z</time></trkpt>
<trkpt lat="43.873383" lon="5.407825"><ele></ele><time>2014-4-27T13:9:33Z</time></trkpt>
<trkpt lat="43.873340" lon="5.407932"><ele></ele><time>2014-4-27T13:9:36Z</time></trkpt>
<trkpt lat="43.873283" lon="5.408032"><ele></ele><time>2014-4-27T13:9:39Z</time></trkpt>
<trkpt lat="43.873212" lon="5.408113"><ele></ele><time>2014-4-27T13:9:42Z</time></trkpt>
<trkpt lat="43.873135" lon="5.408185"><ele></ele><time>2014-4-27T13:9:45Z</time></trkpt>
<trkpt lat="43.873047" lon="5.408247"><ele></ele><time>2014-4-27T13:9:48Z</time></trkpt>
<trkpt lat="43.872958" lon="5.408305"><ele></ele><time>2014-4-27T13:9:51Z</time></trkpt>
<trkpt lat="43.872875" lon="5.408363"><ele></ele><time>2014-4-27T13:9:54Z</time></trkpt>
<trkpt lat="43.872787" lon="5.408425"><ele></ele><time>2014-4-27T13:9:57Z</time></trkpt>
<trkpt lat="43.872692" lon="5.408492"><ele></ele><time>2014-4-27T13:10:0Z</time></trkpt>
<trkpt lat="43.872597" lon="5.408557"><ele></ele><time>2014-4-27T13:10:3Z</time></trkpt>
<trkpt lat="43.872490" lon="5.408622"><ele></ele><time>2014-4-27T13:10:6Z</time></trkpt>
<trkpt lat="43.872383" lon="5.408697"><ele></ele><time>2014-4-27T13:10:9Z</time></trkpt>
<trkpt lat="43.872265" lon="5.408782"><ele></ele><time>2014-4-27T13:10:12Z</time></trkpt>
<trkpt lat="43.872147" lon="5.408862"><ele></ele><time>2014-4-27T13:10:15Z</time></trkpt>
<trkpt lat="43.872037" lon="5.408937"><ele></ele><time>2014-4-27T13:10:18Z</time></trkpt>
<trkpt lat="43.871930" lon="5.409010"><ele></ele><time>2014-4-27T13:10:21Z</time></trkpt>
<trkpt lat="43.871818" lon="5.409085"><ele></ele><time>2014-4-27T13:10:24Z</time></trkpt>
<trkpt lat="43.871708" lon="5.409163"><ele></ele><time>2014-4-27T13:10:27Z</time></trkpt>
<trkpt lat="43.871597" lon="5.409238"><ele></ele><time>2014-4-27T13:10:30Z</time></trkpt>
<trkpt lat="43.871487" lon="5.409315"><ele></ele><time>2014-4-27T13:10:33Z</time></trkpt>
<trkpt lat="43.871377" lon="5.409385"><ele></ele><time>2014-4-27T13:10:36Z</time></trkpt>
<trkpt lat="43.871265" lon="5.409460"><ele></ele><time>2014-4-27T13:10:39Z</time></trkpt>
<trkpt lat="43.871152" lon="5.409535"><ele></ele><time>2014-4-27T13:10:42Z</time></trkpt>
<trkpt lat="43.871037" lon="5.409617"><ele></ele><time>2014-4-27T13:10:45Z</time></trkpt>
<trkpt lat="43.870927" lon="5.409692"><ele></ele><time>2014-4-27T13:10:48Z</time></trkpt>
<trkpt lat="43.870815" lon="5.409765"><ele></ele><time>2014-4-27T13:10:51Z</time></trkpt>
<trkpt lat="43.870697" lon="5.409843"><ele></ele><time>2014-4-27T13:10:54Z</time></trkpt>
<trkpt lat="43.870587" lon="5.409917"><ele></ele><time>2014-4-27T13:10:57Z</time></trkpt>
<trkpt lat="43.870475" lon="5.409978"><ele></ele><time>2014-4-27T13:11:0Z</time></trkpt>
<trkpt lat="43.870365" lon="5.410033"><ele></ele><time>2014-4-27T13:11:3Z</time></trkpt>
<trkpt lat="43.870262" lon="5.410082"><ele></ele><time>2014-4-27T13:11:6Z</time></trkpt>
<trkpt lat="43.870158" lon="5.410122"><ele></ele><time>2014-4-27T13:11:9Z</time></trkpt>
<trkpt lat="43.870060" lon="5.410163"><ele></ele><time>2014-4-27T13:11:12Z</time></trkpt>
<trkpt lat="43.869960" lon="5.410207"><ele></ele><time>2014-4-27T13:11:15Z</time></trkpt>
<trkpt lat="43.869865" lon="5.410252"><ele></ele><time>2014-4-27T13:11:18Z</time></trkpt>
<trkpt lat="43.869770" lon="5.410298"><ele></ele><time>2014-4-27T13:11:21Z</time></trkpt>
<trkpt lat="43.869672" lon="5.410348"><ele></ele><time>2014-4-27T13:11:24Z</time></trkpt>
<trkpt lat="43.869575" lon="5.410402"><ele></ele><time>2014-4-27T13:11:27Z</time></trkpt>
<trkpt lat="43.869483" lon="5.410462"><ele></ele><time>2014-4-27T13:11:30Z</time></trkpt>
<trkpt lat="43.869388" lon="5.410518"><ele></ele><time>2014-4-27T13:11:33Z</time></trkpt>
<trkpt lat="43.869302" lon="5.410580"><ele></ele><time>2014-4-27T13:11:36Z</time></trkpt>
<trkpt lat="43.869213" lon="5.410648"><ele></ele><time>2014-4-27T13:11:39Z</time></trkpt>
<trkpt lat="43.869130" lon="5.410725"><ele></ele><time>2014-4-27T13:11:42Z</time></trkpt>
<trkpt lat="43.869042" lon="5.410805"><ele></ele><time>2014-4-27T13:11:45Z</time></trkpt>
<trkpt lat="43.868962" lon="5.410897"><ele></ele><time>2014-4-27T13:11:48Z</time></trkpt>
<trkpt lat="43.868877" lon="5.410990"><ele></ele><time>2014-4-27T13:11:51Z</time></trkpt>
<trkpt lat="43.868790" lon="5.411078"><ele></ele><time>2014-4-27T13:11:54Z</time></trkpt>
<trkpt lat="43.868722" lon="5.411185"><ele></ele><time>2014-4-27T13:11:57Z</time></trkpt>
<trkpt lat="43.868657" lon="5.411298"><ele></ele><time>2014-4-27T13:12:0Z</time></trkpt>
<trkpt lat="43.868587" lon="5.411408"><ele></ele><time>2014-4-27T13:12:3Z</time></trkpt>
<trkpt lat="43.868523" lon="5.411518"><ele></ele><time>2014-4-27T13:12:6Z</time></trkpt>
<trkpt lat="43.868462" lon="5.411632"><ele></ele><time>2014-4-27T13:12:9Z</time></trkpt>
<trkpt lat="43.868405" lon="5.411745"><ele></ele><time>2014-4-27T13:12:12Z</time></trkpt>
<trkpt lat="43.868343" lon="5.411853"><ele></ele><time>2014-4-27T13:12:15Z</time></trkpt>
<trkpt lat="43.868278" lon="5.411968"><ele></ele><time>2014-4-27T13:12:18Z</time></trkpt>
<trkpt lat="43.868213" lon="5.412083"><ele></ele><time>2014-4-27T13:12:21Z</time></trkpt>
<trkpt lat="43.868148" lon="5.412200"><ele></ele><time>2014-4-27T13:12:24Z</time></trkpt>
<trkpt lat="43.868083" lon="5.412322"><ele></ele><time>2014-4-27T13:12:27Z</time></trkpt>
<trkpt lat="43.868018" lon="5.412443"><ele></ele><time>2014-4-27T13:12:30Z</time></trkpt>
<trkpt lat="43.867955" lon="5.412562"><ele></ele><time>2014-4-27T13:12:33Z</time></trkpt>
<trkpt lat="43.867885" lon="5.412683"><ele></ele><time>2014-4-27T13:12:36Z</time></trkpt>
<trkpt lat="43.867820" lon="5.412803"><ele></ele><time>2014-4-27T13:12:39Z</time></trkpt>
<trkpt lat="43.867752" lon="5.412922"><ele></ele><time>2014-4-27T13:12:42Z</time></trkpt>
<trkpt lat="43.867687" lon="5.413037"><ele></ele><time>2014-4-27T13:12:45Z</time></trkpt>
<trkpt lat="43.867622" lon="5.413150"><ele></ele><time>2014-4-27T13:12:48Z</time></trkpt>
<trkpt lat="43.867562" lon="5.413267"><ele></ele><time>2014-4-27T13:12:51Z</time></trkpt>
<trkpt lat="43.867497" lon="5.413382"><ele></ele><time>2014-4-27T13:12:54Z</time></trkpt>
<trkpt lat="43.867432" lon="5.413498"><ele></ele><time>2014-4-27T13:12:57Z</time></trkpt>
<trkpt lat="43.867367" lon="5.413613"><ele></ele><time>2014-4-27T13:13:0Z</time></trkpt>
<trkpt lat="43.867298" lon="5.413732"><ele></ele><time>2014-4-27T13:13:3Z</time></trkpt>
<trkpt lat="43.867222" lon="5.413838"><ele></ele><time>2014-4-27T13:13:6Z</time></trkpt>
<trkpt lat="43.867142" lon="5.413937"><ele></ele><time>2014-4-27T13:13:9Z</time></trkpt>
<trkpt lat="43.867053" lon="5.414018"><ele></ele><time>2014-4-27T13:13:12Z</time></trkpt>
<trkpt lat="43.866955" lon="5.414080"><ele></ele><time>2014-4-27T13:13:15Z</time></trkpt>
<trkpt lat="43.866845" lon="5.414118"><ele></ele><time>2014-4-27T13:13:18Z</time></trkpt>
<trkpt lat="43.866727" lon="5.414145"><ele></ele><time>2014-4-27T13:13:21Z</time></trkpt>
<trkpt lat="43.866615" lon="5.414155"><ele></ele><time>2014-4-27T13:13:24Z</time></trkpt>
<trkpt lat="43.866490" lon="5.414153"><ele></ele><time>2014-4-27T13:13:27Z</time></trkpt>
<trkpt lat="43.866357" lon="5.414148"><ele></ele><time>2014-4-27T13:13:30Z</time></trkpt>
<trkpt lat="43.866212" lon="5.414142"><ele></ele><time>2014-4-27T13:13:33Z</time></trkpt>
<trkpt lat="43.866062" lon="5.414132"><ele></ele><time>2014-4-27T13:13:36Z</time></trkpt>
<trkpt lat="43.865910" lon="5.414127"><ele></ele><time>2014-4-27T13:13:39Z</time></trkpt>
<trkpt lat="43.865760" lon="5.414130"><ele></ele><time>2014-4-27T13:13:42Z</time></trkpt>
<trkpt lat="43.865620" lon="5.414143"><ele></ele><time>2014-4-27T13:13:45Z</time></trkpt>
<trkpt lat="43.865487" lon="5.414173"><ele></ele><time>2014-4-27T13:13:48Z</time></trkpt>
<trkpt lat="43.865375" lon="5.414227"><ele></ele><time>2014-4-27T13:13:51Z</time></trkpt>
<trkpt lat="43.865280" lon="5.414290"><ele></ele><time>2014-4-27T13:13:54Z</time></trkpt>
<trkpt lat="43.865192" lon="5.414373"><ele></ele><time>2014-4-27T13:13:57Z</time></trkpt>
<trkpt lat="43.865123" lon="5.414485"><ele></ele><time>2014-4-27T13:14:0Z</time></trkpt>
<trkpt lat="43.865067" lon="5.414612"><ele></ele><time>2014-4-27T13:14:3Z</time></trkpt>
<trkpt lat="43.865020" lon="5.414742"><ele></ele><time>2014-4-27T13:14:6Z</time></trkpt>
<trkpt lat="43.864987" lon="5.414878"><ele></ele><time>2014-4-27T13:14:9Z</time></trkpt>
<trkpt lat="43.864952" lon="5.415013"><ele></ele><time>2014-4-27T13:14:12Z</time></trkpt>
<trkpt lat="43.864910" lon="5.415148"><ele></ele><time>2014-4-27T13:14:15Z</time></trkpt>
<trkpt lat="43.864875" lon="5.415280"><ele></ele><time>2014-4-27T13:14:18Z</time></trkpt>
<trkpt lat="43.864842" lon="5.415412"><ele></ele><time>2014-4-27T13:14:21Z</time></trkpt>
<trkpt lat="43.864807" lon="5.415547"><ele></ele><time>2014-4-27T13:14:24Z</time></trkpt>
<trkpt lat="43.864773" lon="5.415680"><ele></ele><time>2014-4-27T13:14:27Z</time></trkpt>
<trkpt lat="43.864738" lon="5.415818"><ele></ele><time>2014-4-27T13:14:30Z</time></trkpt>
<trkpt lat="43.864703" lon="5.415955"><ele></ele><time>2014-4-27T13:14:33Z</time></trkpt>
<trkpt lat="43.864670" lon="5.416090"><ele></ele><time>2014-4-27T13:14:36Z</time></trkpt>
<trkpt lat="43.864635" lon="5.416223"><ele></ele><time>2014-4-27T13:14:39Z</time></trkpt>
<trkpt lat="43.864597" lon="5.416353"><ele></ele><time>2014-4-27T13:14:42Z</time></trkpt>
<trkpt lat="43.864563" lon="5.416483"><ele></ele><time>2014-4-27T13:14:45Z</time></trkpt>
<trkpt lat="43.864528" lon="5.416617"><ele></ele><time>2014-4-27T13:14:48Z</time></trkpt>
<trkpt lat="43.864475" lon="5.416747"><ele></ele><time>2014-4-27T13:14:51Z</time></trkpt>
<trkpt lat="43.864422" lon="5.416873"><ele></ele><time>2014-4-27T13:14:54Z</time></trkpt>
<trkpt lat="43.864368" lon="5.417000"><ele></ele><time>2014-4-27T13:14:57Z</time></trkpt>
<trkpt lat="43.864315" lon="5.417130"><ele></ele><time>2014-4-27T13:15:0Z</time></trkpt>
<trkpt lat="43.864270" lon="5.417267"><ele></ele><time>2014-4-27T13:15:3Z</time></trkpt>
<trkpt lat="43.864238" lon="5.417413"><ele></ele><time>2014-4-27T13:15:6Z</time></trkpt>
<trkpt lat="43.864223" lon="5.417563"><ele></ele><time>2014-4-27T13:15:9Z</time></trkpt>
<trkpt lat="43.864212" lon="5.417717"><ele></ele><time>2014-4-27T13:15:12Z</time></trkpt>
<trkpt lat="43.864217" lon="5.417868"><ele></ele><time>2014-4-27T13:15:15Z</time></trkpt>
<trkpt lat="43.864238" lon="5.418018"><ele></ele><time>2014-4-27T13:15:18Z</time></trkpt>
<trkpt lat="43.864265" lon="5.418172"><ele></ele><time>2014-4-27T13:15:21Z</time></trkpt>
<trkpt lat="43.864273" lon="5.418333"><ele></ele><time>2014-4-27T13:15:24Z</time></trkpt>
<trkpt lat="43.864262" lon="5.418482"><ele></ele><time>2014-4-27T13:15:27Z</time></trkpt>
<trkpt lat="43.864220" lon="5.418615"><ele></ele><time>2014-4-27T13:15:30Z</time></trkpt>
<trkpt lat="43.864170" lon="5.418733"><ele></ele><time>2014-4-27T13:15:33Z</time></trkpt>
<trkpt lat="43.864108" lon="5.418853"><ele></ele><time>2014-4-27T13:15:36Z</time></trkpt>
<trkpt lat="43.864052" lon="5.418972"><ele></ele><time>2014-4-27T13:15:39Z</time></trkpt>
<trkpt lat="43.863990" lon="5.419087"><ele></ele><time>2014-4-27T13:15:42Z</time></trkpt>
<trkpt lat="43.863942" lon="5.419187"><ele></ele><time>2014-4-27T13:15:45Z</time></trkpt>
<trkpt lat="43.863888" lon="5.419283"><ele></ele><time>2014-4-27T13:15:48Z</time></trkpt>
<trkpt lat="43.863838" lon="5.419380"><ele></ele><time>2014-4-27T13:15:51Z</time></trkpt>
<trkpt lat="43.863782" lon="5.419473"><ele></ele><time>2014-4-27T13:15:54Z</time></trkpt>
<trkpt lat="43.863732" lon="5.419572"><ele></ele><time>2014-4-27T13:15:57Z</time></trkpt>
<trkpt lat="43.863682" lon="5.419660"><ele></ele><time>2014-4-27T13:16:0Z</time></trkpt>
<trkpt lat="43.863620" lon="5.419743"><ele></ele><time>2014-4-27T13:16:3Z</time></trkpt>
<trkpt lat="43.863563" lon="5.419823"><ele></ele><time>2014-4-27T13:16:6Z</time></trkpt>
<trkpt lat="43.863507" lon="5.419890"><ele></ele><time>2014-4-27T13:16:9Z</time></trkpt>
<trkpt lat="43.863442" lon="5.419947"><ele></ele><time>2014-4-27T13:16:12Z</time></trkpt>
<trkpt lat="43.863373" lon="5.419987"><ele></ele><time>2014-4-27T13:16:15Z</time></trkpt>
<trkpt lat="43.863297" lon="5.420017"><ele></ele><time>2014-4-27T13:16:18Z</time></trkpt>
<trkpt lat="43.863223" lon="5.420033"><ele></ele><time>2014-4-27T13:16:21Z</time></trkpt>
<trkpt lat="43.863140" lon="5.420043"><ele></ele><time>2014-4-27T13:16:24Z</time></trkpt>
<trkpt lat="43.863063" lon="5.420057"><ele></ele><time>2014-4-27T13:16:27Z</time></trkpt>
<trkpt lat="43.862992" lon="5.420060"><ele></ele><time>2014-4-27T13:16:30Z</time></trkpt>
<trkpt lat="43.862915" lon="5.420065"><ele></ele><time>2014-4-27T13:16:33Z</time></trkpt>
<trkpt lat="43.862838" lon="5.420075"><ele></ele><time>2014-4-27T13:16:36Z</time></trkpt>
<trkpt lat="43.862770" lon="5.420093"><ele></ele><time>2014-4-27T13:16:39Z</time></trkpt>
<trkpt lat="43.862698" lon="5.420113"><ele></ele><time>2014-4-27T13:16:42Z</time></trkpt>
<trkpt lat="43.862622" lon="5.420142"><ele></ele><time>2014-4-27T13:16:45Z</time></trkpt>
<trkpt lat="43.862548" lon="5.420183"><ele></ele><time>2014-4-27T13:16:48Z</time></trkpt>
<trkpt lat="43.862480" lon="5.420228"><ele></ele><time>2014-4-27T13:16:51Z</time></trkpt>
<trkpt lat="43.862415" lon="5.420288"><ele></ele><time>2014-4-27T13:16:54Z</time></trkpt>
<trkpt lat="43.862358" lon="5.420358"><ele></ele><time>2014-4-27T13:16:57Z</time></trkpt>
<trkpt lat="43.862308" lon="5.420437"><ele></ele><time>2014-4-27T13:17:0Z</time></trkpt>
<trkpt lat="43.862263" lon="5.420523"><ele></ele><time>2014-4-27T13:17:3Z</time></trkpt>
<trkpt lat="43.862228" lon="5.420613"><ele></ele><time>2014-4-27T13:17:6Z</time></trkpt>
<trkpt lat="43.862198" lon="5.420703"><ele></ele><time>2014-4-27T13:17:9Z</time></trkpt>
<trkpt lat="43.862163" lon="5.420798"><ele></ele><time>2014-4-27T13:17:12Z</time></trkpt>
<trkpt lat="43.862133" lon="5.420893"><ele></ele><time>2014-4-27T13:17:15Z</time></trkpt>
<trkpt lat="43.862098" lon="5.420985"><ele></ele><time>2014-4-27T13:17:18Z</time></trkpt>
<trkpt lat="43.862065" lon="5.421078"><ele></ele><time>2014-4-27T13:17:21Z</time></trkpt>
<trkpt lat="43.862027" lon="5.421173"><ele></ele><time>2014-4-27T13:17:24Z</time></trkpt>
<trkpt lat="43.861988" lon="5.421267"><ele></ele><time>2014-4-27T13:17:27Z</time></trkpt>
<trkpt lat="43.861950" lon="5.421358"><ele></ele><time>2014-4-27T13:17:30Z</time></trkpt>
<trkpt lat="43.861908" lon="5.421447"><ele></ele><time>2014-4-27T13:17:33Z</time></trkpt>
<trkpt lat="43.861855" lon="5.421530"><ele></ele><time>2014-4-27T13:17:36Z</time></trkpt>
<trkpt lat="43.861797" lon="5.421610"><ele></ele><time>2014-4-27T13:17:39Z</time></trkpt>
<trkpt lat="43.861737" lon="5.421675"><ele></ele><time>2014-4-27T13:17:42Z</time></trkpt>
<trkpt lat="43.861668" lon="5.421732"><ele></ele><time>2014-4-27T13:17:45Z</time></trkpt>
<trkpt lat="43.861595" lon="5.421780"><ele></ele><time>2014-4-27T13:17:48Z</time></trkpt>
<trkpt lat="43.861527" lon="5.421825"><ele></ele><time>2014-4-27T13:17:51Z</time></trkpt>
<trkpt lat="43.861450" lon="5.421863"><ele></ele><time>2014-4-27T13:17:54Z</time></trkpt>
<trkpt lat="43.861370" lon="5.421903"><ele></ele><time>2014-4-27T13:17:57Z</time></trkpt>
<trkpt lat="43.861293" lon="5.421945"><ele></ele><time>2014-4-27T13:18:0Z</time></trkpt>
<trkpt lat="43.861222" lon="5.421992"><ele></ele><time>2014-4-27T13:18:3Z</time></trkpt>
<trkpt lat="43.861142" lon="5.422032"><ele></ele><time>2014-4-27T13:18:6Z</time></trkpt>
<trkpt lat="43.861073" lon="5.422080"><ele></ele><time>2014-4-27T13:18:9Z</time></trkpt>
<trkpt lat="43.861000" lon="5.422133"><ele></ele><time>2014-4-27T13:18:12Z</time></trkpt>
<trkpt lat="43.860932" lon="5.422205"><ele></ele><time>2014-4-27T13:18:15Z</time></trkpt>
<trkpt lat="43.860878" lon="5.422295"><ele></ele><time>2014-4-27T13:18:18Z</time></trkpt>
<trkpt lat="43.860847" lon="5.422410"><ele></ele><time>2014-4-27T13:18:21Z</time></trkpt>
<trkpt lat="43.860832" lon="5.422540"><ele></ele><time>2014-4-27T13:18:24Z</time></trkpt>
<trkpt lat="43.860847" lon="5.422673"><ele></ele><time>2014-4-27T13:18:27Z</time></trkpt>
<trkpt lat="43.860875" lon="5.422798"><ele></ele><time>2014-4-27T13:18:30Z</time></trkpt>
<trkpt lat="43.860893" lon="5.422927"><ele></ele><time>2014-4-27T13:18:33Z</time></trkpt>
<trkpt lat="43.860912" lon="5.423052"><ele></ele><time>2014-4-27T13:18:36Z</time></trkpt>
<trkpt lat="43.860938" lon="5.423173"><ele></ele><time>2014-4-27T13:18:39Z</time></trkpt>
<trkpt lat="43.860958" lon="5.423297"><ele></ele><time>2014-4-27T13:18:42Z</time></trkpt>
<trkpt lat="43.860977" lon="5.423423"><ele></ele><time>2014-4-27T13:18:45Z</time></trkpt>
<trkpt lat="43.860997" lon="5.423553"><ele></ele><time>2014-4-27T13:18:48Z</time></trkpt>
<trkpt lat="43.861012" lon="5.423682"><ele></ele><time>2014-4-27T13:18:51Z</time></trkpt>
<trkpt lat="43.861027" lon="5.423815"><ele></ele><time>2014-4-27T13:18:54Z</time></trkpt>
<trkpt lat="43.861042" lon="5.423957"><ele></ele><time>2014-4-27T13:18:57Z</time></trkpt>
<trkpt lat="43.861057" lon="5.424098"><ele></ele><time>2014-4-27T13:19:0Z</time></trkpt>
<trkpt lat="43.861077" lon="5.424238"><ele></ele><time>2014-4-27T13:19:3Z</time></trkpt>
<trkpt lat="43.861092" lon="5.424382"><ele></ele><time>2014-4-27T13:19:6Z</time></trkpt>
<trkpt lat="43.861110" lon="5.424523"><ele></ele><time>2014-4-27T13:19:9Z</time></trkpt>
<trkpt lat="43.861137" lon="5.424665"><ele></ele><time>2014-4-27T13:19:12Z</time></trkpt>
<trkpt lat="43.861160" lon="5.424807"><ele></ele><time>2014-4-27T13:19:15Z</time></trkpt>
<trkpt lat="43.861195" lon="5.424945"><ele></ele><time>2014-4-27T13:19:18Z</time></trkpt>
<trkpt lat="43.861245" lon="5.425075"><ele></ele><time>2014-4-27T13:19:21Z</time></trkpt>
<trkpt lat="43.861305" lon="5.425193"><ele></ele><time>2014-4-27T13:19:24Z</time></trkpt>
<trkpt lat="43.861393" lon="5.425290"><ele></ele><time>2014-4-27T13:19:27Z</time></trkpt>
<trkpt lat="43.861480" lon="5.425388"><ele></ele><time>2014-4-27T13:19:30Z</time></trkpt>
<trkpt lat="43.861568" lon="5.425477"><ele></ele><time>2014-4-27T13:19:33Z</time></trkpt>
<trkpt lat="43.861657" lon="5.425565"><ele></ele><time>2014-4-27T13:19:36Z</time></trkpt>
<trkpt lat="43.861740" lon="5.425657"><ele></ele><time>2014-4-27T13:19:39Z</time></trkpt>
<trkpt lat="43.861823" lon="5.425750"><ele></ele><time>2014-4-27T13:19:42Z</time></trkpt>
<trkpt lat="43.861912" lon="5.425838"><ele></ele><time>2014-4-27T13:19:45Z</time></trkpt>
<trkpt lat="43.861995" lon="5.425925"><ele></ele><time>2014-4-27T13:19:48Z</time></trkpt>
<trkpt lat="43.862080" lon="5.426013"><ele></ele><time>2014-4-27T13:19:51Z</time></trkpt>
<trkpt lat="43.862157" lon="5.426095"><ele></ele><time>2014-4-27T13:19:54Z</time></trkpt>
<trkpt lat="43.862232" lon="5.426177"><ele></ele><time>2014-4-27T13:19:57Z</time></trkpt>
<trkpt lat="43.862305" lon="5.426248"><ele></ele><time>2014-4-27T13:20:0Z</time></trkpt>
<trkpt lat="43.862377" lon="5.426322"><ele></ele><time>2014-4-27T13:20:3Z</time></trkpt>
<trkpt lat="43.862445" lon="5.426393"><ele></ele><time>2014-4-27T13:20:6Z</time></trkpt>
<trkpt lat="43.862518" lon="5.426467"><ele></ele><time>2014-4-27T13:20:9Z</time></trkpt>
<trkpt lat="43.862595" lon="5.426542"><ele></ele><time>2014-4-27T13:20:12Z</time></trkpt>
<trkpt lat="43.862667" lon="5.426622"><ele></ele><time>2014-4-27T13:20:15Z</time></trkpt>
<trkpt lat="43.862702" lon="5.426738"><ele></ele><time>2014-4-27T13:20:18Z</time></trkpt>
<trkpt lat="43.862663" lon="5.426852"><ele></ele><time>2014-4-27T13:20:21Z</time></trkpt>
<trkpt lat="43.862587" lon="5.426930"><ele></ele><time>2014-4-27T13:20:24Z</time></trkpt>
<trkpt lat="43.862492" lon="5.426985"><ele></ele><time>2014-4-27T13:20:27Z</time></trkpt>
<trkpt lat="43.862397" lon="5.427037"><ele></ele><time>2014-4-27T13:20:30Z</time></trkpt>
<trkpt lat="43.862302" lon="5.427088"><ele></ele><time>2014-4-27T13:20:33Z</time></trkpt>
<trkpt lat="43.862198" lon="5.427137"><ele></ele><time>2014-4-27T13:20:36Z</time></trkpt>
<trkpt lat="43.862095" lon="5.427180"><ele></ele><time>2014-4-27T13:20:39Z</time></trkpt>
<trkpt lat="43.861992" lon="5.427205"><ele></ele><time>2014-4-27T13:20:42Z</time></trkpt>
<trkpt lat="43.861885" lon="5.427205"><ele></ele><time>2014-4-27T13:20:45Z</time></trkpt>
<trkpt lat="43.861775" lon="5.427190"><ele></ele><time>2014-4-27T13:20:48Z</time></trkpt>
<trkpt lat="43.861668" lon="5.427168"><ele></ele><time>2014-4-27T13:20:51Z</time></trkpt>
<trkpt lat="43.861565" lon="5.427142"><ele></ele><time>2014-4-27T13:20:54Z</time></trkpt>
<trkpt lat="43.861453" lon="5.427122"><ele></ele><time>2014-4-27T13:20:57Z</time></trkpt>
<trkpt lat="43.861347" lon="5.427095"><ele></ele><time>2014-4-27T13:21:0Z</time></trkpt>
<trkpt lat="43.861237" lon="5.427067"><ele></ele><time>2014-4-27T13:21:3Z</time></trkpt>
<trkpt lat="43.861122" lon="5.427037"><ele></ele><time>2014-4-27T13:21:6Z</time></trkpt>
<trkpt lat="43.861012" lon="5.427007"><ele></ele><time>2014-4-27T13:21:9Z</time></trkpt>
<trkpt lat="43.860908" lon="5.426962"><ele></ele><time>2014-4-27T13:21:12Z</time></trkpt>
<trkpt lat="43.860810" lon="5.426903"><ele></ele><time>2014-4-27T13:21:15Z</time></trkpt>
<trkpt lat="43.860703" lon="5.426843"><ele></ele><time>2014-4-27T13:21:18Z</time></trkpt>
<trkpt lat="43.860595" lon="5.426780"><ele></ele><time>2014-4-27T13:21:21Z</time></trkpt>
<trkpt lat="43.860485" lon="5.426717"><ele></ele><time>2014-4-27T13:21:24Z</time></trkpt>
<trkpt lat="43.860367" lon="5.426687"><ele></ele><time>2014-4-27T13:21:27Z</time></trkpt>
<trkpt lat="43.860260" lon="5.426702"><ele></ele><time>2014-4-27T13:21:30Z</time></trkpt>
<trkpt lat="43.860177" lon="5.426778"><ele></ele><time>2014-4-27T13:21:33Z</time></trkpt>
<trkpt lat="43.860127" lon="5.426885"><ele></ele><time>2014-4-27T13:21:36Z</time></trkpt>
<trkpt lat="43.860115" lon="5.427017"><ele></ele><time>2014-4-27T13:21:39Z</time></trkpt>
<trkpt lat="43.860133" lon="5.427148"><ele></ele><time>2014-4-27T13:21:42Z</time></trkpt>
<trkpt lat="43.860192" lon="5.427262"><ele></ele><time>2014-4-27T13:21:45Z</time></trkpt>
<trkpt lat="43.860268" lon="5.427347"><ele></ele><time>2014-4-27T13:21:48Z</time></trkpt>
<trkpt lat="43.860360" lon="5.427417"><ele></ele><time>2014-4-27T13:21:51Z</time></trkpt>
<trkpt lat="43.860455" lon="5.427497"><ele></ele><time>2014-4-27T13:21:54Z</time></trkpt>
<trkpt lat="43.860542" lon="5.427595"><ele></ele><time>2014-4-27T13:21:57Z</time></trkpt>
<trkpt lat="43.860618" lon="5.427707"><ele></ele><time>2014-4-27T13:22:0Z</time></trkpt>
<trkpt lat="43.860695" lon="5.427828"><ele></ele><time>2014-4-27T13:22:3Z</time></trkpt>
<trkpt lat="43.860767" lon="5.427958"><ele></ele><time>2014-4-27T13:22:6Z</time></trkpt>
<trkpt lat="43.860825" lon="5.428097"><ele></ele><time>2014-4-27T13:22:9Z</time></trkpt>
<trkpt lat="43.860878" lon="5.428240"><ele></ele><time>2014-4-27T13:22:12Z</time></trkpt>
<trkpt lat="43.860928" lon="5.428390"><ele></ele><time>2014-4-27T13:22:15Z</time></trkpt>
<trkpt lat="43.860965" lon="5.428537"><ele></ele><time>2014-4-27T13:22:18Z</time></trkpt>
<trkpt lat="43.861003" lon="5.428685"><ele></ele><time>2014-4-27T13:22:21Z</time></trkpt>
<trkpt lat="43.861035" lon="5.428838"><ele></ele><time>2014-4-27T13:22:24Z</time></trkpt>
<trkpt lat="43.861065" lon="5.428992"><ele></ele><time>2014-4-27T13:22:27Z</time></trkpt>
<trkpt lat="43.861095" lon="5.429138"><ele></ele><time>2014-4-27T13:22:30Z</time></trkpt>
<trkpt lat="43.861130" lon="5.429287"><ele></ele><time>2014-4-27T13:22:33Z</time></trkpt>
<trkpt lat="43.861180" lon="5.429422"><ele></ele><time>2014-4-27T13:22:36Z</time></trkpt>
<trkpt lat="43.861252" lon="5.429537"><ele></ele><time>2014-4-27T13:22:39Z</time></trkpt>
<trkpt lat="43.861352" lon="5.429622"><ele></ele><time>2014-4-27T13:22:42Z</time></trkpt>
<trkpt lat="43.861462" lon="5.429680"><ele></ele><time>2014-4-27T13:22:45Z</time></trkpt>
<trkpt lat="43.861572" lon="5.429712"><ele></ele><time>2014-4-27T13:22:48Z</time></trkpt>
<trkpt lat="43.861668" lon="5.429790"><ele></ele><time>2014-4-27T13:22:51Z</time></trkpt>
<trkpt lat="43.861678" lon="5.429943"><ele></ele><time>2014-4-27T13:22:54Z</time></trkpt>
<trkpt lat="43.861565" lon="5.429988"><ele></ele><time>2014-4-27T13:22:57Z</time></trkpt>
<trkpt lat="43.861453" lon="5.430023"><ele></ele><time>2014-4-27T13:23:0Z</time></trkpt>
<trkpt lat="43.861335" lon="5.430045"><ele></ele><time>2014-4-27T13:23:3Z</time></trkpt>
<trkpt lat="43.861233" lon="5.430072"><ele></ele><time>2014-4-27T13:23:6Z</time></trkpt>
<trkpt lat="43.861122" lon="5.430088"><ele></ele><time>2014-4-27T13:23:9Z</time></trkpt>
<trkpt lat="43.861015" lon="5.430030"><ele></ele><time>2014-4-27T13:23:12Z</time></trkpt>
<trkpt lat="43.860923" lon="5.429937"><ele></ele><time>2014-4-27T13:23:15Z</time></trkpt>
<trkpt lat="43.860852" lon="5.429818"><ele></ele><time>2014-4-27T13:23:18Z</time></trkpt>
<trkpt lat="43.860787" lon="5.429698"><ele></ele><time>2014-4-27T13:23:21Z</time></trkpt>
<trkpt lat="43.860725" lon="5.429577"><ele></ele><time>2014-4-27T13:23:24Z</time></trkpt>
<trkpt lat="43.860657" lon="5.429460"><ele></ele><time>2014-4-27T13:23:27Z</time></trkpt>
<trkpt lat="43.860588" lon="5.429342"><ele></ele><time>2014-4-27T13:23:30Z</time></trkpt>
<trkpt lat="43.860515" lon="5.429222"><ele></ele><time>2014-4-27T13:23:33Z</time></trkpt>
<trkpt lat="43.860447" lon="5.429102"><ele></ele><time>2014-4-27T13:23:36Z</time></trkpt>
<trkpt lat="43.860375" lon="5.428988"><ele></ele><time>2014-4-27T13:23:39Z</time></trkpt>
<trkpt lat="43.860313" lon="5.428865"><ele></ele><time>2014-4-27T13:23:42Z</time></trkpt>
<trkpt lat="43.860252" lon="5.428732"><ele></ele><time>2014-4-27T13:23:45Z</time></trkpt>
<trkpt lat="43.860192" lon="5.428602"><ele></ele><time>2014-4-27T13:23:48Z</time></trkpt>
<trkpt lat="43.860103" lon="5.428490"><ele></ele><time>2014-4-27T13:23:51Z</time></trkpt>
<trkpt lat="43.859997" lon="5.428483"><ele></ele><time>2014-4-27T13:23:54Z</time></trkpt>
<trkpt lat="43.859952" lon="5.428623"><ele></ele><time>2014-4-27T13:23:57Z</time></trkpt>
<trkpt lat="43.860012" lon="5.428782"><ele></ele><time>2014-4-27T13:24:0Z</time></trkpt>
<trkpt lat="43.860088" lon="5.428917"><ele></ele><time>2014-4-27T13:24:3Z</time></trkpt>
<trkpt lat="43.860160" lon="5.429052"><ele></ele><time>2014-4-27T13:24:6Z</time></trkpt>
<trkpt lat="43.860233" lon="5.429168"><ele></ele><time>2014-4-27T13:24:9Z</time></trkpt>
<trkpt lat="43.860313" lon="5.429328"><ele></ele><time>2014-4-27T13:24:12Z</time></trkpt>
<trkpt lat="43.860378" lon="5.429508"><ele></ele><time>2014-4-27T13:24:15Z</time></trkpt>
<trkpt lat="43.860423" lon="5.429702"><ele></ele><time>2014-4-27T13:24:18Z</time></trkpt>
<trkpt lat="43.860440" lon="5.429900"><ele></ele><time>2014-4-27T13:24:21Z</time></trkpt>
<trkpt lat="43.860432" lon="5.430093"><ele></ele><time>2014-4-27T13:24:24Z</time></trkpt>
<trkpt lat="43.860408" lon="5.430282"><ele></ele><time>2014-4-27T13:24:27Z</time></trkpt>
<trkpt lat="43.860375" lon="5.430465"><ele></ele><time>2014-4-27T13:24:30Z</time></trkpt>
<trkpt lat="43.860348" lon="5.430635"><ele></ele><time>2014-4-27T13:24:33Z</time></trkpt>
<trkpt lat="43.860322" lon="5.430792"><ele></ele><time>2014-4-27T13:24:36Z</time></trkpt>
<trkpt lat="43.860295" lon="5.430923"><ele></ele><time>2014-4-27T13:24:39Z</time></trkpt>
<trkpt lat="43.860268" lon="5.431047"><ele></ele><time>2014-4-27T13:24:42Z</time></trkpt>
<trkpt lat="43.860245" lon="5.431172"><ele></ele><time>2014-4-27T13:24:45Z</time></trkpt>
<trkpt lat="43.860222" lon="5.431300"><ele></ele><time>2014-4-27T13:24:48Z</time></trkpt>
<trkpt lat="43.860195" lon="5.431430"><ele></ele><time>2014-4-27T13:24:51Z</time></trkpt>
<trkpt lat="43.860165" lon="5.431557"><ele></ele><time>2014-4-27T13:24:54Z</time></trkpt>
<trkpt lat="43.860145" lon="5.431683"><ele></ele><time>2014-4-27T13:24:57Z</time></trkpt>
<trkpt lat="43.860118" lon="5.431813"><ele></ele><time>2014-4-27T13:25:0Z</time></trkpt>
<trkpt lat="43.860097" lon="5.431937"><ele></ele><time>2014-4-27T13:25:3Z</time></trkpt>
<trkpt lat="43.860070" lon="5.432058"><ele></ele><time>2014-4-27T13:25:6Z</time></trkpt>
<trkpt lat="43.860050" lon="5.432182"><ele></ele><time>2014-4-27T13:25:9Z</time></trkpt>
<trkpt lat="43.860027" lon="5.432303"><ele></ele><time>2014-4-27T13:25:12Z</time></trkpt>
<trkpt lat="43.860000" lon="5.432425"><ele></ele><time>2014-4-27T13:25:15Z</time></trkpt>
<trkpt lat="43.859962" lon="5.432547"><ele></ele><time>2014-4-27T13:25:18Z</time></trkpt>
<trkpt lat="43.859917" lon="5.432665"><ele></ele><time>2014-4-27T13:25:21Z</time></trkpt>
<trkpt lat="43.859867" lon="5.432780"><ele></ele><time>2014-4-27T13:25:24Z</time></trkpt>
<trkpt lat="43.859802" lon="5.432892"><ele></ele><time>2014-4-27T13:25:27Z</time></trkpt>
<trkpt lat="43.859737" lon="5.432995"><ele></ele><time>2014-4-27T13:25:30Z</time></trkpt>
<trkpt lat="43.859662" lon="5.433092"><ele></ele><time>2014-4-27T13:25:33Z</time></trkpt>
<trkpt lat="43.859577" lon="5.433183"><ele></ele><time>2014-4-27T13:25:36Z</time></trkpt>
<trkpt lat="43.859490" lon="5.433268"><ele></ele><time>2014-4-27T13:25:39Z</time></trkpt>
<trkpt lat="43.859398" lon="5.433353"><ele></ele><time>2014-4-27T13:25:42Z</time></trkpt>
<trkpt lat="43.859307" lon="5.433437"><ele></ele><time>2014-4-27T13:25:45Z</time></trkpt>
<trkpt lat="43.859215" lon="5.433522"><ele></ele><time>2014-4-27T13:25:48Z</time></trkpt>
<trkpt lat="43.859120" lon="5.433607"><ele></ele><time>2014-4-27T13:25:51Z</time></trkpt>
<trkpt lat="43.859032" lon="5.433688"><ele></ele><time>2014-4-27T13:25:54Z</time></trkpt>
<trkpt lat="43.858943" lon="5.433770"><ele></ele><time>2014-4-27T13:25:57Z</time></trkpt>
<trkpt lat="43.858852" lon="5.433850"><ele></ele><time>2014-4-27T13:26:0Z</time></trkpt>
<trkpt lat="43.858757" lon="5.433923"><ele></ele><time>2014-4-27T13:26:3Z</time></trkpt>
<trkpt lat="43.858662" lon="5.434002"><ele></ele><time>2014-4-27T13:26:6Z</time></trkpt>
<trkpt lat="43.858558" lon="5.434070"><ele></ele><time>2014-4-27T13:26:9Z</time></trkpt>
<trkpt lat="43.858452" lon="5.434132"><ele></ele><time>2014-4-27T13:26:12Z</time></trkpt>
<trkpt lat="43.858348" lon="5.434188"><ele></ele><time>2014-4-27T13:26:15Z</time></trkpt>
<trkpt lat="43.858238" lon="5.434242"><ele></ele><time>2014-4-27T13:26:18Z</time></trkpt>
<trkpt lat="43.858128" lon="5.434295"><ele></ele><time>2014-4-27T13:26:21Z</time></trkpt>
<trkpt lat="43.858017" lon="5.434348"><ele></ele><time>2014-4-27T13:26:24Z</time></trkpt>
<trkpt lat="43.857907" lon="5.434403"><ele></ele><time>2014-4-27T13:26:27Z</time></trkpt>
<trkpt lat="43.857785" lon="5.434453"><ele></ele><time>2014-4-27T13:26:30Z</time></trkpt>
<trkpt lat="43.857650" lon="5.434490"><ele></ele><time>2014-4-27T13:26:33Z</time></trkpt>
<trkpt lat="43.857522" lon="5.434510"><ele></ele><time>2014-4-27T13:26:36Z</time></trkpt>
<trkpt lat="43.857383" lon="5.434507"><ele></ele><time>2014-4-27T13:26:39Z</time></trkpt>
<trkpt lat="43.857250" lon="5.434503"><ele></ele><time>2014-4-27T13:26:42Z</time></trkpt>
<trkpt lat="43.857120" lon="5.434488"><ele></ele><time>2014-4-27T13:26:45Z</time></trkpt>
<trkpt lat="43.856987" lon="5.434462"><ele></ele><time>2014-4-27T13:26:48Z</time></trkpt>
<trkpt lat="43.856868" lon="5.434388"><ele></ele><time>2014-4-27T13:26:51Z</time></trkpt>
<trkpt lat="43.856770" lon="5.434267"><ele></ele><time>2014-4-27T13:26:54Z</time></trkpt>
<trkpt lat="43.856690" lon="5.434118"><ele></ele><time>2014-4-27T13:26:57Z</time></trkpt>
<trkpt lat="43.856610" lon="5.433968"><ele></ele><time>2014-4-27T13:27:0Z</time></trkpt>
<trkpt lat="43.856537" lon="5.433813"><ele></ele><time>2014-4-27T13:27:3Z</time></trkpt>
<trkpt lat="43.856465" lon="5.433672"><ele></ele><time>2014-4-27T13:27:6Z</time></trkpt>
<trkpt lat="43.856362" lon="5.433577"><ele></ele><time>2014-4-27T13:27:9Z</time></trkpt>
<trkpt lat="43.856235" lon="5.433588"><ele></ele><time>2014-4-27T13:27:12Z</time></trkpt>
<trkpt lat="43.856133" lon="5.433688"><ele></ele><time>2014-4-27T13:27:15Z</time></trkpt>
<trkpt lat="43.856057" lon="5.433843"><ele></ele><time>2014-4-27T13:27:18Z</time></trkpt>
<trkpt lat="43.855972" lon="5.433982"><ele></ele><time>2014-4-27T13:27:21Z</time></trkpt>
<trkpt lat="43.855847" lon="5.434037"><ele></ele><time>2014-4-27T13:27:24Z</time></trkpt>
<trkpt lat="43.855717" lon="5.434018"><ele></ele><time>2014-4-27T13:27:27Z</time></trkpt>
<trkpt lat="43.855598" lon="5.433935"><ele></ele><time>2014-4-27T13:27:30Z</time></trkpt>
<trkpt lat="43.855483" lon="5.433843"><ele></ele><time>2014-4-27T13:27:33Z</time></trkpt>
<trkpt lat="43.855370" lon="5.433765"><ele></ele><time>2014-4-27T13:27:36Z</time></trkpt>
<trkpt lat="43.855240" lon="5.433730"><ele></ele><time>2014-4-27T13:27:39Z</time></trkpt>
<trkpt lat="43.855110" lon="5.433777"><ele></ele><time>2014-4-27T13:27:42Z</time></trkpt>
<trkpt lat="43.855012" lon="5.433892"><ele></ele><time>2014-4-27T13:27:45Z</time></trkpt>
<trkpt lat="43.854942" lon="5.434030"><ele></ele><time>2014-4-27T13:27:48Z</time></trkpt>
<trkpt lat="43.854858" lon="5.434160"><ele></ele><time>2014-4-27T13:27:51Z</time></trkpt>
<trkpt lat="43.854752" lon="5.434260"><ele></ele><time>2014-4-27T13:27:54Z</time></trkpt>
<trkpt lat="43.854625" lon="5.434317"><ele></ele><time>2014-4-27T13:27:57Z</time></trkpt>
<trkpt lat="43.854497" lon="5.434352"><ele></ele><time>2014-4-27T13:28:0Z</time></trkpt>
<trkpt lat="43.854362" lon="5.434363"><ele></ele><time>2014-4-27T13:28:3Z</time></trkpt>
<trkpt lat="43.854228" lon="5.434370"><ele></ele><time>2014-4-27T13:28:6Z</time></trkpt>
<trkpt lat="43.854095" lon="5.434375"><ele></ele><time>2014-4-27T13:28:9Z</time></trkpt>
<trkpt lat="43.853962" lon="5.434388"><ele></ele><time>2014-4-27T13:28:12Z</time></trkpt>
<trkpt lat="43.853832" lon="5.434413"><ele></ele><time>2014-4-27T13:28:15Z</time></trkpt>
<trkpt lat="43.853695" lon="5.434448"><ele></ele><time>2014-4-27T13:28:18Z</time></trkpt>
<trkpt lat="43.853558" lon="5.434487"><ele></ele><time>2014-4-27T13:28:21Z</time></trkpt>
<trkpt lat="43.853420" lon="5.434532"><ele></ele><time>2014-4-27T13:28:24Z</time></trkpt>
<trkpt lat="43.853283" lon="5.434583"><ele></ele><time>2014-4-27T13:28:27Z</time></trkpt>
<trkpt lat="43.853142" lon="5.434638"><ele></ele><time>2014-4-27T13:28:30Z</time></trkpt>
<trkpt lat="43.852993" lon="5.434698"><ele></ele><time>2014-4-27T13:28:33Z</time></trkpt>
<trkpt lat="43.852848" lon="5.434765"><ele></ele><time>2014-4-27T13:28:36Z</time></trkpt>
<trkpt lat="43.852695" lon="5.434842"><ele></ele><time>2014-4-27T13:28:39Z</time></trkpt>
<trkpt lat="43.852550" lon="5.434913"><ele></ele><time>2014-4-27T13:28:42Z</time></trkpt>
<trkpt lat="43.852405" lon="5.434992"><ele></ele><time>2014-4-27T13:28:45Z</time></trkpt>
<trkpt lat="43.852268" lon="5.435070"><ele></ele><time>2014-4-27T13:28:48Z</time></trkpt>
<trkpt lat="43.852115" lon="5.435158"><ele></ele><time>2014-4-27T13:28:51Z</time></trkpt>
<trkpt lat="43.851963" lon="5.435258"><ele></ele><time>2014-4-27T13:28:54Z</time></trkpt>
<trkpt lat="43.851807" lon="5.435385"><ele></ele><time>2014-4-27T13:28:57Z</time></trkpt>
<trkpt lat="43.851650" lon="5.435523"><ele></ele><time>2014-4-27T13:29:0Z</time></trkpt>
<trkpt lat="43.851487" lon="5.435668"><ele></ele><time>2014-4-27T13:29:3Z</time></trkpt>
<trkpt lat="43.851315" lon="5.435817"><ele></ele><time>2014-4-27T13:29:6Z</time></trkpt>
<trkpt lat="43.851150" lon="5.435962"><ele></ele><time>2014-4-27T13:29:9Z</time></trkpt>
<trkpt lat="43.850987" lon="5.436102"><ele></ele><time>2014-4-27T13:29:12Z</time></trkpt>
<trkpt lat="43.850827" lon="5.436240"><ele></ele><time>2014-4-27T13:29:15Z</time></trkpt>
<trkpt lat="43.850662" lon="5.436383"><ele></ele><time>2014-4-27T13:29:18Z</time></trkpt>
<trkpt lat="43.850502" lon="5.436523"><ele></ele><time>2014-4-27T13:29:21Z</time></trkpt>
<trkpt lat="43.850338" lon="5.436663"><ele></ele><time>2014-4-27T13:29:24Z</time></trkpt>
<trkpt lat="43.850178" lon="5.436803"><ele></ele><time>2014-4-27T13:29:27Z</time></trkpt>
<trkpt lat="43.850028" lon="5.436932"><ele></ele><time>2014-4-27T13:29:30Z</time></trkpt>
<trkpt lat="43.849892" lon="5.437053"><ele></ele><time>2014-4-27T13:29:33Z</time></trkpt>
<trkpt lat="43.849755" lon="5.437173"><ele></ele><time>2014-4-27T13:29:36Z</time></trkpt>
<trkpt lat="43.849613" lon="5.437293"><ele></ele><time>2014-4-27T13:29:39Z</time></trkpt>
<trkpt lat="43.849472" lon="5.437412"><ele></ele><time>2014-4-27T13:29:42Z</time></trkpt>
<trkpt lat="43.849338" lon="5.437532"><ele></ele><time>2014-4-27T13:29:45Z</time></trkpt>
<trkpt lat="43.849197" lon="5.437653"><ele></ele><time>2014-4-27T13:29:48Z</time></trkpt>
<trkpt lat="43.849060" lon="5.437775"><ele></ele><time>2014-4-27T13:29:51Z</time></trkpt>
<trkpt lat="43.848923" lon="5.437898"><ele></ele><time>2014-4-27T13:29:54Z</time></trkpt>
<trkpt lat="43.848785" lon="5.438017"><ele></ele><time>2014-4-27T13:29:57Z</time></trkpt>
<trkpt lat="43.848645" lon="5.438135"><ele></ele><time>2014-4-27T13:30:0Z</time></trkpt>
<trkpt lat="43.848507" lon="5.438252"><ele></ele><time>2014-4-27T13:30:3Z</time></trkpt>
<trkpt lat="43.848392" lon="5.438348"><ele></ele><time>2014-4-27T13:30:6Z</time></trkpt>
<trkpt lat="43.848275" lon="5.438447"><ele></ele><time>2014-4-27T13:30:9Z</time></trkpt>
<trkpt lat="43.848160" lon="5.438545"><ele></ele><time>2014-4-27T13:30:12Z</time></trkpt>
<trkpt lat="43.848038" lon="5.438637"><ele></ele><time>2014-4-27T13:30:15Z</time></trkpt>
<trkpt lat="43.847915" lon="5.438728"><ele></ele><time>2014-4-27T13:30:18Z</time></trkpt>
<trkpt lat="43.847787" lon="5.438810"><ele></ele><time>2014-4-27T13:30:21Z</time></trkpt>
<trkpt lat="43.847645" lon="5.438858"><ele></ele><time>2014-4-27T13:30:24Z</time></trkpt>
<trkpt lat="43.847507" lon="5.438848"><ele></ele><time>2014-4-27T13:30:27Z</time></trkpt>
<trkpt lat="43.847385" lon="5.438797"><ele></ele><time>2014-4-27T13:30:30Z</time></trkpt>
<trkpt lat="43.847278" lon="5.438722"><ele></ele><time>2014-4-27T13:30:33Z</time></trkpt>
<trkpt lat="43.847163" lon="5.438643"><ele></ele><time>2014-4-27T13:30:36Z</time></trkpt>
<trkpt lat="43.847053" lon="5.438560"><ele></ele><time>2014-4-27T13:30:39Z</time></trkpt>
<trkpt lat="43.846928" lon="5.438508"><ele></ele><time>2014-4-27T13:30:42Z</time></trkpt>
<trkpt lat="43.846798" lon="5.438518"><ele></ele><time>2014-4-27T13:30:45Z</time></trkpt>
<trkpt lat="43.846665" lon="5.438572"><ele></ele><time>2014-4-27T13:30:48Z</time></trkpt>
<trkpt lat="43.846535" lon="5.438643"><ele></ele><time>2014-4-27T13:30:51Z</time></trkpt>
<trkpt lat="43.846405" lon="5.438712"><ele></ele><time>2014-4-27T13:30:54Z</time></trkpt>
<trkpt lat="43.846278" lon="5.438785"><ele></ele><time>2014-4-27T13:30:57Z</time></trkpt>
<trkpt lat="43.846153" lon="5.438857"><ele></ele><time>2014-4-27T13:31:0Z</time></trkpt>
<trkpt lat="43.846027" lon="5.438930"><ele></ele><time>2014-4-27T13:31:3Z</time></trkpt>
<trkpt lat="43.845898" lon="5.439003"><ele></ele><time>2014-4-27T13:31:6Z</time></trkpt>
<trkpt lat="43.845760" lon="5.439062"><ele></ele><time>2014-4-27T13:31:9Z</time></trkpt>
<trkpt lat="43.845642" lon="5.439103"><ele></ele><time>2014-4-27T13:31:12Z</time></trkpt>
<trkpt lat="43.845523" lon="5.439140"><ele></ele><time>2014-4-27T13:31:15Z</time></trkpt>
<trkpt lat="43.845425" lon="5.439182"><ele></ele><time>2014-4-27T13:31:18Z</time></trkpt>
<trkpt lat="43.845325" lon="5.439282"><ele></ele><time>2014-4-27T13:31:21Z</time></trkpt>
<trkpt lat="43.845242" lon="5.439430"><ele></ele><time>2014-4-27T13:31:24Z</time></trkpt>
<trkpt lat="43.845165" lon="5.439603"><ele></ele><time>2014-4-27T13:31:27Z</time></trkpt>
<trkpt lat="43.845062" lon="5.439757"><ele></ele><time>2014-4-27T13:31:30Z</time></trkpt>
<trkpt lat="43.844913" lon="5.439857"><ele></ele><time>2014-4-27T13:31:33Z</time></trkpt>
<trkpt lat="43.844742" lon="5.439948"><ele></ele><time>2014-4-27T13:31:36Z</time></trkpt>
<trkpt lat="43.844573" lon="5.440070"><ele></ele><time>2014-4-27T13:31:39Z</time></trkpt>
<trkpt lat="43.844413" lon="5.440203"><ele></ele><time>2014-4-27T13:31:42Z</time></trkpt>
<trkpt lat="43.844250" lon="5.440337"><ele></ele><time>2014-4-27T13:31:45Z</time></trkpt>
<trkpt lat="43.844085" lon="5.440470"><ele></ele><time>2014-4-27T13:31:48Z</time></trkpt>
<trkpt lat="43.843922" lon="5.440622"><ele></ele><time>2014-4-27T13:31:51Z</time></trkpt>
<trkpt lat="43.843788" lon="5.440823"><ele></ele><time>2014-4-27T13:31:54Z</time></trkpt>
<trkpt lat="43.843688" lon="5.441075"><ele></ele><time>2014-4-27T13:31:57Z</time></trkpt>
<trkpt lat="43.843613" lon="5.441338"><ele></ele><time>2014-4-27T13:32:0Z</time></trkpt>
<trkpt lat="43.843537" lon="5.441600"><ele></ele><time>2014-4-27T13:32:3Z</time></trkpt>
<trkpt lat="43.843457" lon="5.441868"><ele></ele><time>2014-4-27T13:32:6Z</time></trkpt>
<trkpt lat="43.843380" lon="5.442135"><ele></ele><time>2014-4-27T13:32:9Z</time></trkpt>
<trkpt lat="43.843303" lon="5.442400"><ele></ele><time>2014-4-27T13:32:12Z</time></trkpt>
<trkpt lat="43.843220" lon="5.442653"><ele></ele><time>2014-4-27T13:32:15Z</time></trkpt>
<trkpt lat="43.843152" lon="5.442917"><ele></ele><time>2014-4-27T13:32:18Z</time></trkpt>
<trkpt lat="43.843102" lon="5.443223"><ele></ele><time>2014-4-27T13:32:21Z</time></trkpt>
<trkpt lat="43.843090" lon="5.443548"><ele></ele><time>2014-4-27T13:32:24Z</time></trkpt>
<trkpt lat="43.843087" lon="5.443843"><ele></ele><time>2014-4-27T13:32:27Z</time></trkpt>
<trkpt lat="43.843063" lon="5.444165"><ele></ele><time>2014-4-27T13:32:30Z</time></trkpt>
<trkpt lat="43.843010" lon="5.444490"><ele></ele><time>2014-4-27T13:32:33Z</time></trkpt>
<trkpt lat="43.842942" lon="5.444808"><ele></ele><time>2014-4-27T13:32:36Z</time></trkpt>
<trkpt lat="43.842883" lon="5.445135"><ele></ele><time>2014-4-27T13:32:39Z</time></trkpt>
<trkpt lat="43.842853" lon="5.445487"><ele></ele><time>2014-4-27T13:32:42Z</time></trkpt>
<trkpt lat="43.842865" lon="5.445810"><ele></ele><time>2014-4-27T13:32:45Z</time></trkpt>
<trkpt lat="43.842892" lon="5.446128"><ele></ele><time>2014-4-27T13:32:48Z</time></trkpt>
<trkpt lat="43.842957" lon="5.446460"><ele></ele><time>2014-4-27T13:32:51Z</time></trkpt>
<trkpt lat="43.843037" lon="5.446815"><ele></ele><time>2014-4-27T13:32:54Z</time></trkpt>
<trkpt lat="43.843098" lon="5.447165"><ele></ele><time>2014-4-27T13:32:57Z</time></trkpt>
<trkpt lat="43.843098" lon="5.447527"><ele></ele><time>2014-4-27T13:33:0Z</time></trkpt>
<trkpt lat="43.843052" lon="5.447885"><ele></ele><time>2014-4-27T13:33:3Z</time></trkpt>
<trkpt lat="43.842995" lon="5.448257"><ele></ele><time>2014-4-27T13:33:6Z</time></trkpt>
<trkpt lat="43.842945" lon="5.448633"><ele></ele><time>2014-4-27T13:33:9Z</time></trkpt>
<trkpt lat="43.842892" lon="5.449013"><ele></ele><time>2014-4-27T13:33:12Z</time></trkpt>
<trkpt lat="43.842838" lon="5.449395"><ele></ele><time>2014-4-27T13:33:15Z</time></trkpt>
<trkpt lat="43.842782" lon="5.449787"><ele></ele><time>2014-4-27T13:33:18Z</time></trkpt>
<trkpt lat="43.842743" lon="5.450205"><ele></ele><time>2014-4-27T13:33:21Z</time></trkpt>
<trkpt lat="43.842782" lon="5.450635"><ele></ele><time>2014-4-27T13:33:24Z</time></trkpt>
<trkpt lat="43.842862" lon="5.451042"><ele></ele><time>2014-4-27T13:33:27Z</time></trkpt>
<trkpt lat="43.842945" lon="5.451442"><ele></ele><time>2014-4-27T13:33:30Z</time></trkpt>
<trkpt lat="43.843022" lon="5.451848"><ele></ele><time>2014-4-27T13:33:33Z</time></trkpt>
<trkpt lat="43.843102" lon="5.452248"><ele></ele><time>2014-4-27T13:33:36Z</time></trkpt>
<trkpt lat="43.843147" lon="5.452662"><ele></ele><time>2014-4-27T13:33:39Z</time></trkpt>
<trkpt lat="43.843093" lon="5.453083"><ele></ele><time>2014-4-27T13:33:42Z</time></trkpt>
<trkpt lat="43.843002" lon="5.453490"><ele></ele><time>2014-4-27T13:33:45Z</time></trkpt>
<trkpt lat="43.842903" lon="5.453918"><ele></ele><time>2014-4-27T13:33:48Z</time></trkpt>
<trkpt lat="43.842793" lon="5.454375"><ele></ele><time>2014-4-27T13:33:51Z</time></trkpt>
<trkpt lat="43.842682" lon="5.454857"><ele></ele><time>2014-4-27T13:33:54Z</time></trkpt>
<trkpt lat="43.842575" lon="5.455323"><ele></ele><time>2014-4-27T13:33:57Z</time></trkpt>
<trkpt lat="43.842422" lon="5.455752"><ele></ele><time>2014-4-27T13:34:0Z</time></trkpt>
<trkpt lat="43.842175" lon="5.456113"><ele></ele><time>2014-4-27T13:34:3Z</time></trkpt>
<trkpt lat="43.841908" lon="5.456447"><ele></ele><time>2014-4-27T13:34:6Z</time></trkpt>
<trkpt lat="43.841625" lon="5.456745"><ele></ele><time>2014-4-27T13:34:9Z</time></trkpt>
<trkpt lat="43.841243" lon="5.456728"><ele></ele><time>2014-4-27T13:34:12Z</time></trkpt>
<trkpt lat="43.840950" lon="5.456497"><ele></ele><time>2014-4-27T13:34:15Z</time></trkpt>
<trkpt lat="43.840867" lon="5.456192"><ele></ele><time>2014-4-27T13:34:18Z</time></trkpt>
<trkpt lat="43.840835" lon="5.456028"><ele></ele><time>2014-4-27T13:34:21Z</time></trkpt>
<trkpt lat="43.840805" lon="5.455900"><ele></ele><time>2014-4-27T13:34:24Z</time></trkpt>
<trkpt lat="43.840835" lon="5.455773"><ele></ele><time>2014-4-27T13:34:27Z</time></trkpt>
<trkpt lat="43.840867" lon="5.455625"><ele></ele><time>2014-4-27T13:34:30Z</time></trkpt>
<trkpt lat="43.840858" lon="5.455473"><ele></ele><time>2014-4-27T13:34:33Z</time></trkpt>
<trkpt lat="43.840797" lon="5.455348"><ele></ele><time>2014-4-27T13:34:36Z</time></trkpt>
<trkpt lat="43.840702" lon="5.455285"><ele></ele><time>2014-4-27T13:34:39Z</time></trkpt>
<trkpt lat="43.840615" lon="5.455280"><ele></ele><time>2014-4-27T13:34:42Z</time></trkpt>
<trkpt lat="43.840553" lon="5.455257"><ele></ele><time>2014-4-27T13:34:45Z</time></trkpt>
<trkpt lat="43.840485" lon="5.455240"><ele></ele><time>2014-4-27T13:34:48Z</time></trkpt>
<trkpt lat="43.840408" lon="5.455215"><ele></ele><time>2014-4-27T13:34:51Z</time></trkpt>
<trkpt lat="43.840337" lon="5.455192"><ele></ele><time>2014-4-27T13:34:54Z</time></trkpt>
<trkpt lat="43.840255" lon="5.455145"><ele></ele><time>2014-4-27T13:34:57Z</time></trkpt>
<trkpt lat="43.840175" lon="5.455140"><ele></ele><time>2014-4-27T13:35:0Z</time></trkpt>
<trkpt lat="43.840095" lon="5.455123"><ele></ele><time>2014-4-27T13:35:3Z</time></trkpt>
<trkpt lat="43.840020" lon="5.455112"><ele></ele><time>2014-4-27T13:35:6Z</time></trkpt>
<trkpt lat="43.839950" lon="5.455092"><ele></ele><time>2014-4-27T13:35:9Z</time></trkpt>
<trkpt lat="43.839878" lon="5.455068"><ele></ele><time>2014-4-27T13:35:12Z</time></trkpt>
<trkpt lat="43.839805" lon="5.455033"><ele></ele><time>2014-4-27T13:35:15Z</time></trkpt>
<trkpt lat="43.839737" lon="5.454992"><ele></ele><time>2014-4-27T13:35:18Z</time></trkpt>
<trkpt lat="43.839665" lon="5.454957"><ele></ele><time>2014-4-27T13:35:21Z</time></trkpt>
<trkpt lat="43.839592" lon="5.454928"><ele></ele><time>2014-4-27T13:35:24Z</time></trkpt>
<trkpt lat="43.839527" lon="5.454878"><ele></ele><time>2014-4-27T13:35:27Z</time></trkpt>
<trkpt lat="43.839462" lon="5.454827"><ele></ele><time>2014-4-27T13:35:30Z</time></trkpt>
<trkpt lat="43.839393" lon="5.454773"><ele></ele><time>2014-4-27T13:35:33Z</time></trkpt>
<trkpt lat="43.839322" lon="5.454730"><ele></ele><time>2014-4-27T13:35:36Z</time></trkpt>
<trkpt lat="43.839252" lon="5.454675"><ele></ele><time>2014-4-27T13:35:39Z</time></trkpt>
<trkpt lat="43.839183" lon="5.454623"><ele></ele><time>2014-4-27T13:35:42Z</time></trkpt>
<trkpt lat="43.839123" lon="5.454567"><ele></ele><time>2014-4-27T13:35:45Z</time></trkpt>
<trkpt lat="43.839050" lon="5.454520"><ele></ele><time>2014-4-27T13:35:48Z</time></trkpt>
<trkpt lat="43.838982" lon="5.454485"><ele></ele><time>2014-4-27T13:35:51Z</time></trkpt>
<trkpt lat="43.838920" lon="5.454443"><ele></ele><time>2014-4-27T13:35:54Z</time></trkpt>
<trkpt lat="43.838875" lon="5.454407"><ele></ele><time>2014-4-27T13:35:57Z</time></trkpt>
<trkpt lat="43.838825" lon="5.454375"><ele></ele><time>2014-4-27T13:36:0Z</time></trkpt>
<trkpt lat="43.838810" lon="5.454365"><ele></ele><time>2014-4-27T13:36:3Z</time></trkpt>
<trkpt lat="43.838810" lon="5.454365"><ele></ele><time>2014-4-27T13:36:6Z</time></trkpt>
<trkpt lat="43.838807" lon="5.454362"><ele></ele><time>2014-4-27T13:36:9Z</time></trkpt>
<trkpt lat="43.838722" lon="5.454348"><ele></ele><time>2014-4-27T13:36:12Z</time></trkpt>
<trkpt lat="43.838647" lon="5.454310"><ele></ele><time>2014-4-27T13:36:15Z</time></trkpt>
<trkpt lat="43.838565" lon="5.454253"><ele></ele><time>2014-4-27T13:36:18Z</time></trkpt>
<trkpt lat="43.838493" lon="5.454207"><ele></ele><time>2014-4-27T13:36:21Z</time></trkpt>
<trkpt lat="43.838417" lon="5.454153"><ele></ele><time>2014-4-27T13:36:24Z</time></trkpt>
<trkpt lat="43.838348" lon="5.454107"><ele></ele><time>2014-4-27T13:36:27Z</time></trkpt>
<trkpt lat="43.838268" lon="5.454062"><ele></ele><time>2014-4-27T13:36:30Z</time></trkpt>
<trkpt lat="43.838188" lon="5.454008"><ele></ele><time>2014-4-27T13:36:33Z</time></trkpt>
<trkpt lat="43.838097" lon="5.453950"><ele></ele><time>2014-4-27T13:36:36Z</time></trkpt>
<trkpt lat="43.838017" lon="5.453902"><ele></ele><time>2014-4-27T13:36:39Z</time></trkpt>
<trkpt lat="43.837928" lon="5.453860"><ele></ele><time>2014-4-27T13:36:42Z</time></trkpt>
<trkpt lat="43.837845" lon="5.453835"><ele></ele><time>2014-4-27T13:36:45Z</time></trkpt>
<trkpt lat="43.837757" lon="5.453827"><ele></ele><time>2014-4-27T13:36:48Z</time></trkpt>
<trkpt lat="43.837670" lon="5.453815"><ele></ele><time>2014-4-27T13:36:51Z</time></trkpt>
<trkpt lat="43.837590" lon="5.453777"><ele></ele><time>2014-4-27T13:36:54Z</time></trkpt>
<trkpt lat="43.837505" lon="5.453742"><ele></ele><time>2014-4-27T13:36:57Z</time></trkpt>
<trkpt lat="43.837422" lon="5.453728"><ele></ele><time>2014-4-27T13:37:0Z</time></trkpt>
<trkpt lat="43.837337" lon="5.453703"><ele></ele><time>2014-4-27T13:37:3Z</time></trkpt>
<trkpt lat="43.837250" lon="5.453682"><ele></ele><time>2014-4-27T13:37:6Z</time></trkpt>
<trkpt lat="43.837162" lon="5.453663"><ele></ele><time>2014-4-27T13:37:9Z</time></trkpt>
<trkpt lat="43.837075" lon="5.453652"><ele></ele><time>2014-4-27T13:37:12Z</time></trkpt>
<trkpt lat="43.836983" lon="5.453635"><ele></ele><time>2014-4-27T13:37:15Z</time></trkpt>
<trkpt lat="43.836895" lon="5.453617"><ele></ele><time>2014-4-27T13:37:18Z</time></trkpt>
<trkpt lat="43.836812" lon="5.453578"><ele></ele><time>2014-4-27T13:37:21Z</time></trkpt>
<trkpt lat="43.836723" lon="5.453547"><ele></ele><time>2014-4-27T13:37:24Z</time></trkpt>
<trkpt lat="43.836632" lon="5.453527"><ele></ele><time>2014-4-27T13:37:27Z</time></trkpt>
<trkpt lat="43.836543" lon="5.453498"><ele></ele><time>2014-4-27T13:37:30Z</time></trkpt>
<trkpt lat="43.836460" lon="5.453465"><ele></ele><time>2014-4-27T13:37:33Z</time></trkpt>
<trkpt lat="43.836380" lon="5.453422"><ele></ele><time>2014-4-27T13:37:36Z</time></trkpt>
<trkpt lat="43.836300" lon="5.453365"><ele></ele><time>2014-4-27T13:37:39Z</time></trkpt>
<trkpt lat="43.836220" lon="5.453298"><ele></ele><time>2014-4-27T13:37:42Z</time></trkpt>
<trkpt lat="43.836143" lon="5.453227"><ele></ele><time>2014-4-27T13:37:45Z</time></trkpt>
<trkpt lat="43.836072" lon="5.453148"><ele></ele><time>2014-4-27T13:37:48Z</time></trkpt>
<trkpt lat="43.835992" lon="5.453082"><ele></ele><time>2014-4-27T13:37:51Z</time></trkpt>
<trkpt lat="43.835903" lon="5.453032"><ele></ele><time>2014-4-27T13:37:54Z</time></trkpt>
<trkpt lat="43.835808" lon="5.453003"><ele></ele><time>2014-4-27T13:37:57Z</time></trkpt>
<trkpt lat="43.835717" lon="5.452978"><ele></ele><time>2014-4-27T13:38:0Z</time></trkpt>
<trkpt lat="43.835622" lon="5.452963"><ele></ele><time>2014-4-27T13:38:3Z</time></trkpt>
<trkpt lat="43.835525" lon="5.452955"><ele></ele><time>2014-4-27T13:38:6Z</time></trkpt>
<trkpt lat="43.835430" lon="5.452967"><ele></ele><time>2014-4-27T13:38:9Z</time></trkpt>
<trkpt lat="43.835335" lon="5.452973"><ele></ele><time>2014-4-27T13:38:12Z</time></trkpt>
<trkpt lat="43.835243" lon="5.452980"><ele></ele><time>2014-4-27T13:38:15Z</time></trkpt>
<trkpt lat="43.835152" lon="5.452970"><ele></ele><time>2014-4-27T13:38:18Z</time></trkpt>
<trkpt lat="43.835060" lon="5.452947"><ele></ele><time>2014-4-27T13:38:21Z</time></trkpt>
<trkpt lat="43.834965" lon="5.452908"><ele></ele><time>2014-4-27T13:38:24Z</time></trkpt>
<trkpt lat="43.834873" lon="5.452865"><ele></ele><time>2014-4-27T13:38:27Z</time></trkpt>
<trkpt lat="43.834790" lon="5.452810"><ele></ele><time>2014-4-27T13:38:30Z</time></trkpt>
<trkpt lat="43.834705" lon="5.452753"><ele></ele><time>2014-4-27T13:38:33Z</time></trkpt>
<trkpt lat="43.834622" lon="5.452707"><ele></ele><time>2014-4-27T13:38:36Z</time></trkpt>
<trkpt lat="43.834545" lon="5.452643"><ele></ele><time>2014-4-27T13:38:39Z</time></trkpt>
<trkpt lat="43.834473" lon="5.452575"><ele></ele><time>2014-4-27T13:38:42Z</time></trkpt>
<trkpt lat="43.834397" lon="5.452508"><ele></ele><time>2014-4-27T13:38:45Z</time></trkpt>
<trkpt lat="43.834320" lon="5.452443"><ele></ele><time>2014-4-27T13:38:48Z</time></trkpt>
<trkpt lat="43.834252" lon="5.452368"><ele></ele><time>2014-4-27T13:38:51Z</time></trkpt>
<trkpt lat="43.834187" lon="5.452287"><ele></ele><time>2014-4-27T13:38:54Z</time></trkpt>
<trkpt lat="43.834133" lon="5.452188"><ele></ele><time>2014-4-27T13:38:57Z</time></trkpt>
<trkpt lat="43.834092" lon="5.452082"><ele></ele><time>2014-4-27T13:39:0Z</time></trkpt>
<trkpt lat="43.834053" lon="5.451973"><ele></ele><time>2014-4-27T13:39:3Z</time></trkpt>
<trkpt lat="43.834015" lon="5.451867"><ele></ele><time>2014-4-27T13:39:6Z</time></trkpt>
<trkpt lat="43.833965" lon="5.451778"><ele></ele><time>2014-4-27T13:39:9Z</time></trkpt>
<trkpt lat="43.833915" lon="5.451700"><ele></ele><time>2014-4-27T13:39:12Z</time></trkpt>
<trkpt lat="43.833858" lon="5.451618"><ele></ele><time>2014-4-27T13:39:15Z</time></trkpt>
<trkpt lat="43.833805" lon="5.451538"><ele></ele><time>2014-4-27T13:39:18Z</time></trkpt>
<trkpt lat="43.833748" lon="5.451460"><ele></ele><time>2014-4-27T13:39:21Z</time></trkpt>
<trkpt lat="43.833690" lon="5.451387"><ele></ele><time>2014-4-27T13:39:24Z</time></trkpt>
<trkpt lat="43.833630" lon="5.451323"><ele></ele><time>2014-4-27T13:39:27Z</time></trkpt>
<trkpt lat="43.833565" lon="5.451272"><ele></ele><time>2014-4-27T13:39:30Z</time></trkpt>
<trkpt lat="43.833500" lon="5.451212"><ele></ele><time>2014-4-27T13:39:33Z</time></trkpt>
<trkpt lat="43.833435" lon="5.451172"><ele></ele><time>2014-4-27T13:39:36Z</time></trkpt>
<trkpt lat="43.833373" lon="5.451120"><ele></ele><time>2014-4-27T13:39:39Z</time></trkpt>
<trkpt lat="43.833313" lon="5.451068"><ele></ele><time>2014-4-27T13:39:42Z</time></trkpt>
<trkpt lat="43.833252" lon="5.451022"><ele></ele><time>2014-4-27T13:39:45Z</time></trkpt>
<trkpt lat="43.833183" lon="5.450997"><ele></ele><time>2014-4-27T13:39:48Z</time></trkpt>
<trkpt lat="43.833115" lon="5.450982"><ele></ele><time>2014-4-27T13:39:51Z</time></trkpt>
<trkpt lat="43.833053" lon="5.450943"><ele></ele><time>2014-4-27T13:39:54Z</time></trkpt>
<trkpt lat="43.832997" lon="5.450888"><ele></ele><time>2014-4-27T13:39:57Z</time></trkpt>
<trkpt lat="43.832947" lon="5.450815"><ele></ele><time>2014-4-27T13:40:0Z</time></trkpt>
<trkpt lat="43.832882" lon="5.450757"><ele></ele><time>2014-4-27T13:40:3Z</time></trkpt>
<trkpt lat="43.832837" lon="5.450658"><ele></ele><time>2014-4-27T13:40:6Z</time></trkpt>
<trkpt lat="43.832778" lon="5.450572"><ele></ele><time>2014-4-27T13:40:9Z</time></trkpt>
<trkpt lat="43.832710" lon="5.450465"><ele></ele><time>2014-4-27T13:40:12Z</time></trkpt>
<trkpt lat="43.832642" lon="5.450345"><ele></ele><time>2014-4-27T13:40:15Z</time></trkpt>
<trkpt lat="43.832547" lon="5.450243"><ele></ele><time>2014-4-27T13:40:18Z</time></trkpt>
<trkpt lat="43.832420" lon="5.450202"><ele></ele><time>2014-4-27T13:40:21Z</time></trkpt>
<trkpt lat="43.832360" lon="5.450265"><ele></ele><time>2014-4-27T13:40:24Z</time></trkpt>
<trkpt lat="43.832260" lon="5.450287"><ele></ele><time>2014-4-27T13:40:27Z</time></trkpt>
<trkpt lat="43.832153" lon="5.450305"><ele></ele><time>2014-4-27T13:40:30Z</time></trkpt>
<trkpt lat="43.832035" lon="5.450365"><ele></ele><time>2014-4-27T13:40:33Z</time></trkpt>
<trkpt lat="43.831928" lon="5.450475"><ele></ele><time>2014-4-27T13:40:36Z</time></trkpt>
<trkpt lat="43.831840" lon="5.450603"><ele></ele><time>2014-4-27T13:40:39Z</time></trkpt>
<trkpt lat="43.831760" lon="5.450732"><ele></ele><time>2014-4-27T13:40:42Z</time></trkpt>
<trkpt lat="43.831695" lon="5.450857"><ele></ele><time>2014-4-27T13:40:45Z</time></trkpt>
<trkpt lat="43.831630" lon="5.450970"><ele></ele><time>2014-4-27T13:40:48Z</time></trkpt>
<trkpt lat="43.831558" lon="5.451078"><ele></ele><time>2014-4-27T13:40:51Z</time></trkpt>
<trkpt lat="43.831485" lon="5.451188"><ele></ele><time>2014-4-27T13:40:54Z</time></trkpt>
<trkpt lat="43.831413" lon="5.451295"><ele></ele><time>2014-4-27T13:40:57Z</time></trkpt>
<trkpt lat="43.831345" lon="5.451402"><ele></ele><time>2014-4-27T13:41:0Z</time></trkpt>
<trkpt lat="43.831283" lon="5.451523"><ele></ele><time>2014-4-27T13:41:3Z</time></trkpt>
<trkpt lat="43.831233" lon="5.451652"><ele></ele><time>2014-4-27T13:41:6Z</time></trkpt>
<trkpt lat="43.831177" lon="5.451778"><ele></ele><time>2014-4-27T13:41:9Z</time></trkpt>
<trkpt lat="43.831115" lon="5.451905"><ele></ele><time>2014-4-27T13:41:12Z</time></trkpt>
<trkpt lat="43.831040" lon="5.452003"><ele></ele><time>2014-4-27T13:41:15Z</time></trkpt>
<trkpt lat="43.830940" lon="5.452058"><ele></ele><time>2014-4-27T13:41:18Z</time></trkpt>
<trkpt lat="43.830833" lon="5.452095"><ele></ele><time>2014-4-27T13:41:21Z</time></trkpt>
<trkpt lat="43.830727" lon="5.452120"><ele></ele><time>2014-4-27T13:41:24Z</time></trkpt>
<trkpt lat="43.830620" lon="5.452115"><ele></ele><time>2014-4-27T13:41:27Z</time></trkpt>
<trkpt lat="43.830513" lon="5.452077"><ele></ele><time>2014-4-27T13:41:30Z</time></trkpt>
<trkpt lat="43.830413" lon="5.452008"><ele></ele><time>2014-4-27T13:41:33Z</time></trkpt>
<trkpt lat="43.830333" lon="5.451913"><ele></ele><time>2014-4-27T13:41:36Z</time></trkpt>
<trkpt lat="43.830268" lon="5.451802"><ele></ele><time>2014-4-27T13:41:39Z</time></trkpt>
<trkpt lat="43.830220" lon="5.451673"><ele></ele><time>2014-4-27T13:41:42Z</time></trkpt>
<trkpt lat="43.830170" lon="5.451542"><ele></ele><time>2014-4-27T13:41:45Z</time></trkpt>
<trkpt lat="43.830105" lon="5.451422"><ele></ele><time>2014-4-27T13:41:48Z</time></trkpt>
<trkpt lat="43.830043" lon="5.451295"><ele></ele><time>2014-4-27T13:41:51Z</time></trkpt>
<trkpt lat="43.829998" lon="5.451165"><ele></ele><time>2014-4-27T13:41:54Z</time></trkpt>
<trkpt lat="43.829952" lon="5.451035"><ele></ele><time>2014-4-27T13:41:57Z</time></trkpt>
<trkpt lat="43.829933" lon="5.450898"><ele></ele><time>2014-4-27T13:42:0Z</time></trkpt>
<trkpt lat="43.829910" lon="5.450767"><ele></ele><time>2014-4-27T13:42:3Z</time></trkpt>
<trkpt lat="43.829907" lon="5.450647"><ele></ele><time>2014-4-27T13:42:6Z</time></trkpt>
<trkpt lat="43.829895" lon="5.450528"><ele></ele><time>2014-4-27T13:42:9Z</time></trkpt>
<trkpt lat="43.829903" lon="5.450408"><ele></ele><time>2014-4-27T13:42:12Z</time></trkpt>
<trkpt lat="43.829930" lon="5.450297"><ele></ele><time>2014-4-27T13:42:15Z</time></trkpt>
<trkpt lat="43.829952" lon="5.450188"><ele></ele><time>2014-4-27T13:42:18Z</time></trkpt>
<trkpt lat="43.829940" lon="5.450077"><ele></ele><time>2014-4-27T13:42:21Z</time></trkpt>
<trkpt lat="43.829880" lon="5.449990"><ele></ele><time>2014-4-27T13:42:24Z</time></trkpt>
<trkpt lat="43.829800" lon="5.449952"><ele></ele><time>2014-4-27T13:42:27Z</time></trkpt>
<trkpt lat="43.829715" lon="5.450013"><ele></ele><time>2014-4-27T13:42:30Z</time></trkpt>
<trkpt lat="43.829685" lon="5.450147"><ele></ele><time>2014-4-27T13:42:33Z</time></trkpt>
<trkpt lat="43.829647" lon="5.450270"><ele></ele><time>2014-4-27T13:42:36Z</time></trkpt>
<trkpt lat="43.829628" lon="5.450405"><ele></ele><time>2014-4-27T13:42:39Z</time></trkpt>
<trkpt lat="43.829617" lon="5.450538"><ele></ele><time>2014-4-27T13:42:42Z</time></trkpt>
<trkpt lat="43.829617" lon="5.450673"><ele></ele><time>2014-4-27T13:42:45Z</time></trkpt>
<trkpt lat="43.829613" lon="5.450798"><ele></ele><time>2014-4-27T13:42:48Z</time></trkpt>
<trkpt lat="43.829608" lon="5.450920"><ele></ele><time>2014-4-27T13:42:51Z</time></trkpt>
<trkpt lat="43.829597" lon="5.451045"><ele></ele><time>2014-4-27T13:42:54Z</time></trkpt>
<trkpt lat="43.829582" lon="5.451172"><ele></ele><time>2014-4-27T13:42:57Z</time></trkpt>
<trkpt lat="43.829543" lon="5.451275"><ele></ele><time>2014-4-27T13:43:0Z</time></trkpt>
<trkpt lat="43.829483" lon="5.451367"><ele></ele><time>2014-4-27T13:43:3Z</time></trkpt>
<trkpt lat="43.829415" lon="5.451427"><ele></ele><time>2014-4-27T13:43:6Z</time></trkpt>
<trkpt lat="43.829350" lon="5.451513"><ele></ele><time>2014-4-27T13:43:9Z</time></trkpt>
<trkpt lat="43.829292" lon="5.451607"><ele></ele><time>2014-4-27T13:43:12Z</time></trkpt>
<trkpt lat="43.829238" lon="5.451703"><ele></ele><time>2014-4-27T13:43:15Z</time></trkpt>
<trkpt lat="43.829185" lon="5.451800"><ele></ele><time>2014-4-27T13:43:18Z</time></trkpt>
<trkpt lat="43.829137" lon="5.451903"><ele></ele><time>2014-4-27T13:43:21Z</time></trkpt>
<trkpt lat="43.829093" lon="5.452015"><ele></ele><time>2014-4-27T13:43:24Z</time></trkpt>
<trkpt lat="43.829063" lon="5.452123"><ele></ele><time>2014-4-27T13:43:27Z</time></trkpt>
<trkpt lat="43.829025" lon="5.452232"><ele></ele><time>2014-4-27T13:43:30Z</time></trkpt>
<trkpt lat="43.828992" lon="5.452332"><ele></ele><time>2014-4-27T13:43:33Z</time></trkpt>
<trkpt lat="43.828957" lon="5.452430"><ele></ele><time>2014-4-27T13:43:36Z</time></trkpt>
<trkpt lat="43.828930" lon="5.452533"><ele></ele><time>2014-4-27T13:43:39Z</time></trkpt>
<trkpt lat="43.828900" lon="5.452643"><ele></ele><time>2014-4-27T13:43:42Z</time></trkpt>
<trkpt lat="43.828865" lon="5.452753"><ele></ele><time>2014-4-27T13:43:45Z</time></trkpt>
<trkpt lat="43.828838" lon="5.452865"><ele></ele><time>2014-4-27T13:43:48Z</time></trkpt>
<trkpt lat="43.828820" lon="5.452982"><ele></ele><time>2014-4-27T13:43:51Z</time></trkpt>
<trkpt lat="43.828803" lon="5.453097"><ele></ele><time>2014-4-27T13:43:54Z</time></trkpt>
<trkpt lat="43.828800" lon="5.453213"><ele></ele><time>2014-4-27T13:43:57Z</time></trkpt>
<trkpt lat="43.828803" lon="5.453320"><ele></ele><time>2014-4-27T13:44:0Z</time></trkpt>
<trkpt lat="43.828803" lon="5.453420"><ele></ele><time>2014-4-27T13:44:3Z</time></trkpt>
<trkpt lat="43.828773" lon="5.453520"><ele></ele><time>2014-4-27T13:44:6Z</time></trkpt>
<trkpt lat="43.828705" lon="5.453575"><ele></ele><time>2014-4-27T13:44:9Z</time></trkpt>
<trkpt lat="43.828622" lon="5.453545"><ele></ele><time>2014-4-27T13:44:12Z</time></trkpt>
<trkpt lat="43.828572" lon="5.453442"><ele></ele><time>2014-4-27T13:44:15Z</time></trkpt>
<trkpt lat="43.828568" lon="5.453313"><ele></ele><time>2014-4-27T13:44:18Z</time></trkpt>
<trkpt lat="43.828583" lon="5.453187"><ele></ele><time>2014-4-27T13:44:21Z</time></trkpt>
<trkpt lat="43.828602" lon="5.453057"><ele></ele><time>2014-4-27T13:44:24Z</time></trkpt>
<trkpt lat="43.828602" lon="5.452923"><ele></ele><time>2014-4-27T13:44:27Z</time></trkpt>
<trkpt lat="43.828572" lon="5.452798"><ele></ele><time>2014-4-27T13:44:30Z</time></trkpt>
<trkpt lat="43.828513" lon="5.452687"><ele></ele><time>2014-4-27T13:44:33Z</time></trkpt>
<trkpt lat="43.828450" lon="5.452592"><ele></ele><time>2014-4-27T13:44:36Z</time></trkpt>
<trkpt lat="43.828397" lon="5.452487"><ele></ele><time>2014-4-27T13:44:39Z</time></trkpt>
<trkpt lat="43.828353" lon="5.452370"><ele></ele><time>2014-4-27T13:44:42Z</time></trkpt>
<trkpt lat="43.828300" lon="5.452265"><ele></ele><time>2014-4-27T13:44:45Z</time></trkpt>
<trkpt lat="43.828228" lon="5.452185"><ele></ele><time>2014-4-27T13:44:48Z</time></trkpt>
<trkpt lat="43.828137" lon="5.452158"><ele></ele><time>2014-4-27T13:44:51Z</time></trkpt>
<trkpt lat="43.828057" lon="5.452225"><ele></ele><time>2014-4-27T13:44:54Z</time></trkpt>
<trkpt lat="43.828037" lon="5.452360"><ele></ele><time>2014-4-27T13:44:57Z</time></trkpt>
<trkpt lat="43.828090" lon="5.452482"><ele></ele><time>2014-4-27T13:45:0Z</time></trkpt>
<trkpt lat="43.828155" lon="5.452592"><ele></ele><time>2014-4-27T13:45:3Z</time></trkpt>
<trkpt lat="43.828225" lon="5.452692"><ele></ele><time>2014-4-27T13:45:6Z</time></trkpt>
<trkpt lat="43.828285" lon="5.452797"><ele></ele><time>2014-4-27T13:45:9Z</time></trkpt>
<trkpt lat="43.828323" lon="5.452923"><ele></ele><time>2014-4-27T13:45:12Z</time></trkpt>
<trkpt lat="43.828335" lon="5.453057"><ele></ele><time>2014-4-27T13:45:15Z</time></trkpt>
<trkpt lat="43.828312" lon="5.453183"><ele></ele><time>2014-4-27T13:45:18Z</time></trkpt>
<trkpt lat="43.828293" lon="5.453312"><ele></ele><time>2014-4-27T13:45:21Z</time></trkpt>
<trkpt lat="43.828255" lon="5.453432"><ele></ele><time>2014-4-27T13:45:24Z</time></trkpt>
<trkpt lat="43.828228" lon="5.453550"><ele></ele><time>2014-4-27T13:45:27Z</time></trkpt>
<trkpt lat="43.828213" lon="5.453678"><ele></ele><time>2014-4-27T13:45:30Z</time></trkpt>
<trkpt lat="43.828217" lon="5.453805"><ele></ele><time>2014-4-27T13:45:33Z</time></trkpt>
<trkpt lat="43.828228" lon="5.453933"><ele></ele><time>2014-4-27T13:45:36Z</time></trkpt>
<trkpt lat="43.828240" lon="5.454062"><ele></ele><time>2014-4-27T13:45:39Z</time></trkpt>
<trkpt lat="43.828267" lon="5.454185"><ele></ele><time>2014-4-27T13:45:42Z</time></trkpt>
<trkpt lat="43.828300" lon="5.454300"><ele></ele><time>2014-4-27T13:45:45Z</time></trkpt>
<trkpt lat="43.828335" lon="5.454413"><ele></ele><time>2014-4-27T13:45:48Z</time></trkpt>
<trkpt lat="43.828342" lon="5.454533"><ele></ele><time>2014-4-27T13:45:51Z</time></trkpt>
<trkpt lat="43.828285" lon="5.454622"><ele></ele><time>2014-4-27T13:45:54Z</time></trkpt>
<trkpt lat="43.828202" lon="5.454585"><ele></ele><time>2014-4-27T13:45:57Z</time></trkpt>
<trkpt lat="43.828155" lon="5.454467"><ele></ele><time>2014-4-27T13:46:0Z</time></trkpt>
<trkpt lat="43.828137" lon="5.454338"><ele></ele><time>2014-4-27T13:46:3Z</time></trkpt>
<trkpt lat="43.828117" lon="5.454213"><ele></ele><time>2014-4-27T13:46:6Z</time></trkpt>
<trkpt lat="43.828090" lon="5.454087"><ele></ele><time>2014-4-27T13:46:9Z</time></trkpt>
<trkpt lat="43.828060" lon="5.453962"><ele></ele><time>2014-4-27T13:46:12Z</time></trkpt>
<trkpt lat="43.828030" lon="5.453842"><ele></ele><time>2014-4-27T13:46:15Z</time></trkpt>
<trkpt lat="43.827998" lon="5.453722"><ele></ele><time>2014-4-27T13:46:18Z</time></trkpt>
<trkpt lat="43.827957" lon="5.453607"><ele></ele><time>2014-4-27T13:46:21Z</time></trkpt>
<trkpt lat="43.827915" lon="5.453497"><ele></ele><time>2014-4-27T13:46:24Z</time></trkpt>
<trkpt lat="43.827865" lon="5.453390"><ele></ele><time>2014-4-27T13:46:27Z</time></trkpt>
<trkpt lat="43.827808" lon="5.453292"><ele></ele><time>2014-4-27T13:46:30Z</time></trkpt>
<trkpt lat="43.827743" lon="5.453207"><ele></ele><time>2014-4-27T13:46:33Z</time></trkpt>
<trkpt lat="43.827660" lon="5.453165"><ele></ele><time>2014-4-27T13:46:36Z</time></trkpt>
<trkpt lat="43.827568" lon="5.453167"><ele></ele><time>2014-4-27T13:46:39Z</time></trkpt>
<trkpt lat="43.827480" lon="5.453207"><ele></ele><time>2014-4-27T13:46:42Z</time></trkpt>
<trkpt lat="43.827403" lon="5.453268"><ele></ele><time>2014-4-27T13:46:45Z</time></trkpt>
<trkpt lat="43.827328" lon="5.453325"><ele></ele><time>2014-4-27T13:46:48Z</time></trkpt>
<trkpt lat="43.827248" lon="5.453382"><ele></ele><time>2014-4-27T13:46:51Z</time></trkpt>
<trkpt lat="43.827172" lon="5.453432"><ele></ele><time>2014-4-27T13:46:54Z</time></trkpt>
<trkpt lat="43.827080" lon="5.453445"><ele></ele><time>2014-4-27T13:46:57Z</time></trkpt>
<trkpt lat="43.827007" lon="5.453380"><ele></ele><time>2014-4-27T13:47:0Z</time></trkpt>
<trkpt lat="43.826973" lon="5.453267"><ele></ele><time>2014-4-27T13:47:3Z</time></trkpt>
<trkpt lat="43.826977" lon="5.453143"><ele></ele><time>2014-4-27T13:47:6Z</time></trkpt>
<trkpt lat="43.827007" lon="5.453015"><ele></ele><time>2014-4-27T13:47:9Z</time></trkpt>
<trkpt lat="43.827038" lon="5.452892"><ele></ele><time>2014-4-27T13:47:12Z</time></trkpt>
<trkpt lat="43.827050" lon="5.452767"><ele></ele><time>2014-4-27T13:47:15Z</time></trkpt>
<trkpt lat="43.827015" lon="5.452650"><ele></ele><time>2014-4-27T13:47:18Z</time></trkpt>
<trkpt lat="43.826942" lon="5.452568"><ele></ele><time>2014-4-27T13:47:21Z</time></trkpt>
<trkpt lat="43.826852" lon="5.452535"><ele></ele><time>2014-4-27T13:47:24Z</time></trkpt>
<trkpt lat="43.826755" lon="5.452553"><ele></ele><time>2014-4-27T13:47:27Z</time></trkpt>
<trkpt lat="43.826663" lon="5.452597"><ele></ele><time>2014-4-27T13:47:30Z</time></trkpt>
<trkpt lat="43.826583" lon="5.452645"><ele></ele><time>2014-4-27T13:47:33Z</time></trkpt>
<trkpt lat="43.826503" lon="5.452710"><ele></ele><time>2014-4-27T13:47:36Z</time></trkpt>
<trkpt lat="43.826417" lon="5.452755"><ele></ele><time>2014-4-27T13:47:39Z</time></trkpt>
<trkpt lat="43.826332" lon="5.452795"><ele></ele><time>2014-4-27T13:47:42Z</time></trkpt>
<trkpt lat="43.826248" lon="5.452837"><ele></ele><time>2014-4-27T13:47:45Z</time></trkpt>
<trkpt lat="43.826160" lon="5.452873"><ele></ele><time>2014-4-27T13:47:48Z</time></trkpt>
<trkpt lat="43.826077" lon="5.452908"><ele></ele><time>2014-4-27T13:47:51Z</time></trkpt>
<trkpt lat="43.825993" lon="5.452952"><ele></ele><time>2014-4-27T13:47:54Z</time></trkpt>
<trkpt lat="43.825908" lon="5.452987"><ele></ele><time>2014-4-27T13:47:57Z</time></trkpt>
<trkpt lat="43.825828" lon="5.453025"><ele></ele><time>2014-4-27T13:48:0Z</time></trkpt>
<trkpt lat="43.825745" lon="5.453063"><ele></ele><time>2014-4-27T13:48:3Z</time></trkpt>
<trkpt lat="43.825665" lon="5.453095"><ele></ele><time>2014-4-27T13:48:6Z</time></trkpt>
<trkpt lat="43.825580" lon="5.453123"><ele></ele><time>2014-4-27T13:48:9Z</time></trkpt>
<trkpt lat="43.825497" lon="5.453132"><ele></ele><time>2014-4-27T13:48:12Z</time></trkpt>
<trkpt lat="43.825413" lon="5.453125"><ele></ele><time>2014-4-27T13:48:15Z</time></trkpt>
<trkpt lat="43.825333" lon="5.453113"><ele></ele><time>2014-4-27T13:48:18Z</time></trkpt>
<trkpt lat="43.825248" lon="5.453087"><ele></ele><time>2014-4-27T13:48:21Z</time></trkpt>
<trkpt lat="43.825177" lon="5.453057"><ele></ele><time>2014-4-27T13:48:24Z</time></trkpt>
<trkpt lat="43.825103" lon="5.453013"><ele></ele><time>2014-4-27T13:48:27Z</time></trkpt>
<trkpt lat="43.825027" lon="5.452965"><ele></ele><time>2014-4-27T13:48:30Z</time></trkpt>
<trkpt lat="43.824955" lon="5.452910"><ele></ele><time>2014-4-27T13:48:33Z</time></trkpt>
<trkpt lat="43.824878" lon="5.452862"><ele></ele><time>2014-4-27T13:48:36Z</time></trkpt>
<trkpt lat="43.824798" lon="5.452820"><ele></ele><time>2014-4-27T13:48:39Z</time></trkpt>
<trkpt lat="43.824722" lon="5.452783"><ele></ele><time>2014-4-27T13:48:42Z</time></trkpt>
<trkpt lat="43.824642" lon="5.452748"><ele></ele><time>2014-4-27T13:48:45Z</time></trkpt>
<trkpt lat="43.824562" lon="5.452717"><ele></ele><time>2014-4-27T13:48:48Z</time></trkpt>
<trkpt lat="43.824490" lon="5.452680"><ele></ele><time>2014-4-27T13:48:51Z</time></trkpt>
<trkpt lat="43.824413" lon="5.452645"><ele></ele><time>2014-4-27T13:48:54Z</time></trkpt>
<trkpt lat="43.824333" lon="5.452610"><ele></ele><time>2014-4-27T13:48:57Z</time></trkpt>
<trkpt lat="43.824253" lon="5.452588"><ele></ele><time>2014-4-27T13:49:0Z</time></trkpt>
<trkpt lat="43.824168" lon="5.452585"><ele></ele><time>2014-4-27T13:49:3Z</time></trkpt>
<trkpt lat="43.824088" lon="5.452545"><ele></ele><time>2014-4-27T13:49:6Z</time></trkpt>
<trkpt lat="43.824025" lon="5.452473"><ele></ele><time>2014-4-27T13:49:9Z</time></trkpt>
<trkpt lat="43.824017" lon="5.452363"><ele></ele><time>2014-4-27T13:49:12Z</time></trkpt>
<trkpt lat="43.824073" lon="5.452278"><ele></ele><time>2014-4-27T13:49:15Z</time></trkpt>
<trkpt lat="43.824147" lon="5.452210"><ele></ele><time>2014-4-27T13:49:18Z</time></trkpt>
<trkpt lat="43.824230" lon="5.452157"><ele></ele><time>2014-4-27T13:49:21Z</time></trkpt>
<trkpt lat="43.824310" lon="5.452112"><ele></ele><time>2014-4-27T13:49:24Z</time></trkpt>
<trkpt lat="43.824390" lon="5.452067"><ele></ele><time>2014-4-27T13:49:27Z</time></trkpt>
<trkpt lat="43.824467" lon="5.452020"><ele></ele><time>2014-4-27T13:49:30Z</time></trkpt>
<trkpt lat="43.824547" lon="5.451970"><ele></ele><time>2014-4-27T13:49:33Z</time></trkpt>
<trkpt lat="43.824627" lon="5.451938"><ele></ele><time>2014-4-27T13:49:36Z</time></trkpt>
<trkpt lat="43.824715" lon="5.451908"><ele></ele><time>2014-4-27T13:49:39Z</time></trkpt>
<trkpt lat="43.824798" lon="5.451895"><ele></ele><time>2014-4-27T13:49:42Z</time></trkpt>
<trkpt lat="43.824887" lon="5.451888"><ele></ele><time>2014-4-27T13:49:45Z</time></trkpt>
<trkpt lat="43.824973" lon="5.451885"><ele></ele><time>2014-4-27T13:49:48Z</time></trkpt>
<trkpt lat="43.825050" lon="5.451918"><ele></ele><time>2014-4-27T13:49:51Z</time></trkpt>
<trkpt lat="43.825138" lon="5.451898"><ele></ele><time>2014-4-27T13:49:54Z</time></trkpt>
<trkpt lat="43.825215" lon="5.451858"><ele></ele><time>2014-4-27T13:49:57Z</time></trkpt>
<trkpt lat="43.825295" lon="5.451803"><ele></ele><time>2014-4-27T13:50:0Z</time></trkpt>
<trkpt lat="43.825367" lon="5.451740"><ele></ele><time>2014-4-27T13:50:3Z</time></trkpt>
<trkpt lat="43.825435" lon="5.451680"><ele></ele><time>2014-4-27T13:50:6Z</time></trkpt>
<trkpt lat="43.825505" lon="5.451607"><ele></ele><time>2014-4-27T13:50:9Z</time></trkpt>
<trkpt lat="43.825573" lon="5.451528"><ele></ele><time>2014-4-27T13:50:12Z</time></trkpt>
<trkpt lat="43.825638" lon="5.451450"><ele></ele><time>2014-4-27T13:50:15Z</time></trkpt>
<trkpt lat="43.825695" lon="5.451358"><ele></ele><time>2014-4-27T13:50:18Z</time></trkpt>
<trkpt lat="43.825748" lon="5.451258"><ele></ele><time>2014-4-27T13:50:21Z</time></trkpt>
<trkpt lat="43.825802" lon="5.451158"><ele></ele><time>2014-4-27T13:50:24Z</time></trkpt>
<trkpt lat="43.825852" lon="5.451053"><ele></ele><time>2014-4-27T13:50:27Z</time></trkpt>
<trkpt lat="43.825890" lon="5.450943"><ele></ele><time>2014-4-27T13:50:30Z</time></trkpt>
<trkpt lat="43.825932" lon="5.450840"><ele></ele><time>2014-4-27T13:50:33Z</time></trkpt>
<trkpt lat="43.825982" lon="5.450745"><ele></ele><time>2014-4-27T13:50:36Z</time></trkpt>
<trkpt lat="43.826030" lon="5.450650"><ele></ele><time>2014-4-27T13:50:39Z</time></trkpt>
<trkpt lat="43.826083" lon="5.450552"><ele></ele><time>2014-4-27T13:50:42Z</time></trkpt>
<trkpt lat="43.826145" lon="5.450465"><ele></ele><time>2014-4-27T13:50:45Z</time></trkpt>
<trkpt lat="43.826207" lon="5.450380"><ele></ele><time>2014-4-27T13:50:48Z</time></trkpt>
<trkpt lat="43.826283" lon="5.450303"><ele></ele><time>2014-4-27T13:50:51Z</time></trkpt>
<trkpt lat="43.826358" lon="5.450245"><ele></ele><time>2014-4-27T13:50:54Z</time></trkpt>
<trkpt lat="43.826420" lon="5.450155"><ele></ele><time>2014-4-27T13:50:57Z</time></trkpt>
<trkpt lat="43.826458" lon="5.450040"><ele></ele><time>2014-4-27T13:51:0Z</time></trkpt>
<trkpt lat="43.826458" lon="5.449918"><ele></ele><time>2014-4-27T13:51:3Z</time></trkpt>
<trkpt lat="43.826432" lon="5.449800"><ele></ele><time>2014-4-27T13:51:6Z</time></trkpt>
<trkpt lat="43.826397" lon="5.449687"><ele></ele><time>2014-4-27T13:51:9Z</time></trkpt>
<trkpt lat="43.826347" lon="5.449590"><ele></ele><time>2014-4-27T13:51:12Z</time></trkpt>
<trkpt lat="43.826320" lon="5.449477"><ele></ele><time>2014-4-27T13:51:15Z</time></trkpt>
<trkpt lat="43.826298" lon="5.449367"><ele></ele><time>2014-4-27T13:51:18Z</time></trkpt>
<trkpt lat="43.826283" lon="5.449250"><ele></ele><time>2014-4-27T13:51:21Z</time></trkpt>
<trkpt lat="43.826267" lon="5.449133"><ele></ele><time>2014-4-27T13:51:24Z</time></trkpt>
<trkpt lat="43.826260" lon="5.449017"><ele></ele><time>2014-4-27T13:51:27Z</time></trkpt>
<trkpt lat="43.826252" lon="5.448900"><ele></ele><time>2014-4-27T13:51:30Z</time></trkpt>
<trkpt lat="43.826245" lon="5.448782"><ele></ele><time>2014-4-27T13:51:33Z</time></trkpt>
<trkpt lat="43.826237" lon="5.448660"><ele></ele><time>2014-4-27T13:51:36Z</time></trkpt>
<trkpt lat="43.826228" lon="5.448538"><ele></ele><time>2014-4-27T13:51:39Z</time></trkpt>
<trkpt lat="43.826228" lon="5.448418"><ele></ele><time>2014-4-27T13:51:42Z</time></trkpt>
<trkpt lat="43.826240" lon="5.448298"><ele></ele><time>2014-4-27T13:51:45Z</time></trkpt>
<trkpt lat="43.826228" lon="5.448175"><ele></ele><time>2014-4-27T13:51:48Z</time></trkpt>
<trkpt lat="43.826210" lon="5.448055"><ele></ele><time>2014-4-27T13:51:51Z</time></trkpt>
<trkpt lat="43.826187" lon="5.447943"><ele></ele><time>2014-4-27T13:51:54Z</time></trkpt>
<trkpt lat="43.826157" lon="5.447833"><ele></ele><time>2014-4-27T13:51:57Z</time></trkpt>
<trkpt lat="43.826115" lon="5.447730"><ele></ele><time>2014-4-27T13:52:0Z</time></trkpt>
<trkpt lat="43.826065" lon="5.447630"><ele></ele><time>2014-4-27T13:52:3Z</time></trkpt>
<trkpt lat="43.826003" lon="5.447547"><ele></ele><time>2014-4-27T13:52:6Z</time></trkpt>
<trkpt lat="43.825940" lon="5.447470"><ele></ele><time>2014-4-27T13:52:9Z</time></trkpt>
<trkpt lat="43.825867" lon="5.447422"><ele></ele><time>2014-4-27T13:52:12Z</time></trkpt>
<trkpt lat="43.825802" lon="5.447348"><ele></ele><time>2014-4-27T13:52:15Z</time></trkpt>
<trkpt lat="43.825730" lon="5.447278"><ele></ele><time>2014-4-27T13:52:18Z</time></trkpt>
<trkpt lat="43.825665" lon="5.447205"><ele></ele><time>2014-4-27T13:52:21Z</time></trkpt>
<trkpt lat="43.825597" lon="5.447127"><ele></ele><time>2014-4-27T13:52:24Z</time></trkpt>
<trkpt lat="43.825532" lon="5.447047"><ele></ele><time>2014-4-27T13:52:27Z</time></trkpt>
<trkpt lat="43.825467" lon="5.446972"><ele></ele><time>2014-4-27T13:52:30Z</time></trkpt>
<trkpt lat="43.825408" lon="5.446893"><ele></ele><time>2014-4-27T13:52:33Z</time></trkpt>
<trkpt lat="43.825348" lon="5.446815"><ele></ele><time>2014-4-27T13:52:36Z</time></trkpt>
<trkpt lat="43.825275" lon="5.446757"><ele></ele><time>2014-4-27T13:52:39Z</time></trkpt>
<trkpt lat="43.825195" lon="5.446715"><ele></ele><time>2014-4-27T13:52:42Z</time></trkpt>
<trkpt lat="43.825112" lon="5.446700"><ele></ele><time>2014-4-27T13:52:45Z</time></trkpt>
<trkpt lat="43.825027" lon="5.446717"><ele></ele><time>2014-4-27T13:52:48Z</time></trkpt>
<trkpt lat="43.824947" lon="5.446755"><ele></ele><time>2014-4-27T13:52:51Z</time></trkpt>
<trkpt lat="43.824872" lon="5.446805"><ele></ele><time>2014-4-27T13:52:54Z</time></trkpt>
<trkpt lat="43.824798" lon="5.446872"><ele></ele><time>2014-4-27T13:52:57Z</time></trkpt>
<trkpt lat="43.824745" lon="5.446958"><ele></ele><time>2014-4-27T13:53:0Z</time></trkpt>
<trkpt lat="43.824677" lon="5.447037"><ele></ele><time>2014-4-27T13:53:3Z</time></trkpt>
<trkpt lat="43.824603" lon="5.447113"><ele></ele><time>2014-4-27T13:53:6Z</time></trkpt>
<trkpt lat="43.824535" lon="5.447183"><ele></ele><time>2014-4-27T13:53:9Z</time></trkpt>
<trkpt lat="43.824463" lon="5.447252"><ele></ele><time>2014-4-27T13:53:12Z</time></trkpt>
<trkpt lat="43.824395" lon="5.447322"><ele></ele><time>2014-4-27T13:53:15Z</time></trkpt>
<trkpt lat="43.824322" lon="5.447388"><ele></ele><time>2014-4-27T13:53:18Z</time></trkpt>
<trkpt lat="43.824250" lon="5.447457"><ele></ele><time>2014-4-27T13:53:21Z</time></trkpt>
<trkpt lat="43.824168" lon="5.447515"><ele></ele><time>2014-4-27T13:53:24Z</time></trkpt>
<trkpt lat="43.824097" lon="5.447583"><ele></ele><time>2014-4-27T13:53:27Z</time></trkpt>
<trkpt lat="43.824020" lon="5.447647"><ele></ele><time>2014-4-27T13:53:30Z</time></trkpt>
<trkpt lat="43.823943" lon="5.447702"><ele></ele><time>2014-4-27T13:53:33Z</time></trkpt>
<trkpt lat="43.823868" lon="5.447758"><ele></ele><time>2014-4-27T13:53:36Z</time></trkpt>
<trkpt lat="43.823788" lon="5.447808"><ele></ele><time>2014-4-27T13:53:39Z</time></trkpt>
<trkpt lat="43.823703" lon="5.447848"><ele></ele><time>2014-4-27T13:53:42Z</time></trkpt>
<trkpt lat="43.823620" lon="5.447895"><ele></ele><time>2014-4-27T13:53:45Z</time></trkpt>
<trkpt lat="43.823543" lon="5.447943"><ele></ele><time>2014-4-27T13:53:48Z</time></trkpt>
<trkpt lat="43.823467" lon="5.448000"><ele></ele><time>2014-4-27T13:53:51Z</time></trkpt>
<trkpt lat="43.823387" lon="5.448058"><ele></ele><time>2014-4-27T13:53:54Z</time></trkpt>
<trkpt lat="43.823315" lon="5.448118"><ele></ele><time>2014-4-27T13:53:57Z</time></trkpt>
<trkpt lat="43.823235" lon="5.448167"><ele></ele><time>2014-4-27T13:54:0Z</time></trkpt>
<trkpt lat="43.823158" lon="5.448222"><ele></ele><time>2014-4-27T13:54:3Z</time></trkpt>
<trkpt lat="43.823085" lon="5.448280"><ele></ele><time>2014-4-27T13:54:6Z</time></trkpt>
<trkpt lat="43.823010" lon="5.448335"><ele></ele><time>2014-4-27T13:54:9Z</time></trkpt>
<trkpt lat="43.822933" lon="5.448385"><ele></ele><time>2014-4-27T13:54:12Z</time></trkpt>
<trkpt lat="43.822857" lon="5.448430"><ele></ele><time>2014-4-27T13:54:15Z</time></trkpt>
<trkpt lat="43.822777" lon="5.448475"><ele></ele><time>2014-4-27T13:54:18Z</time></trkpt>
<trkpt lat="43.822705" lon="5.448513"><ele></ele><time>2014-4-27T13:54:21Z</time></trkpt>
<trkpt lat="43.822625" lon="5.448555"><ele></ele><time>2014-4-27T13:54:24Z</time></trkpt>
<trkpt lat="43.822540" lon="5.448590"><ele></ele><time>2014-4-27T13:54:27Z</time></trkpt>
<trkpt lat="43.822457" lon="5.448608"><ele></ele><time>2014-4-27T13:54:30Z</time></trkpt>
<trkpt lat="43.822377" lon="5.448627"><ele></ele><time>2014-4-27T13:54:33Z</time></trkpt>
<trkpt lat="43.822288" lon="5.448632"><ele></ele><time>2014-4-27T13:54:36Z</time></trkpt>
<trkpt lat="43.822205" lon="5.448633"><ele></ele><time>2014-4-27T13:54:39Z</time></trkpt>
<trkpt lat="43.822117" lon="5.448618"><ele></ele><time>2014-4-27T13:54:42Z</time></trkpt>
<trkpt lat="43.822025" lon="5.448613"><ele></ele><time>2014-4-27T13:54:45Z</time></trkpt>
<trkpt lat="43.821938" lon="5.448622"><ele></ele><time>2014-4-27T13:54:48Z</time></trkpt>
<trkpt lat="43.821853" lon="5.448643"><ele></ele><time>2014-4-27T13:54:51Z</time></trkpt>
<trkpt lat="43.821767" lon="5.448668"><ele></ele><time>2014-4-27T13:54:54Z</time></trkpt>
<trkpt lat="43.821682" lon="5.448705"><ele></ele><time>2014-4-27T13:54:57Z</time></trkpt>
<trkpt lat="43.821613" lon="5.448763"><ele></ele><time>2014-4-27T13:55:0Z</time></trkpt>
<trkpt lat="43.821533" lon="5.448802"><ele></ele><time>2014-4-27T13:55:3Z</time></trkpt>
<trkpt lat="43.821453" lon="5.448843"><ele></ele><time>2014-4-27T13:55:6Z</time></trkpt>
<trkpt lat="43.821373" lon="5.448882"><ele></ele><time>2014-4-27T13:55:9Z</time></trkpt>
<trkpt lat="43.821288" lon="5.448917"><ele></ele><time>2014-4-27T13:55:12Z</time></trkpt>
<trkpt lat="43.821205" lon="5.448953"><ele></ele><time>2014-4-27T13:55:15Z</time></trkpt>
<trkpt lat="43.821125" lon="5.448987"><ele></ele><time>2014-4-27T13:55:18Z</time></trkpt>
<trkpt lat="43.821042" lon="5.449023"><ele></ele><time>2014-4-27T13:55:21Z</time></trkpt>
<trkpt lat="43.820953" lon="5.449058"><ele></ele><time>2014-4-27T13:55:24Z</time></trkpt>
<trkpt lat="43.820873" lon="5.449090"><ele></ele><time>2014-4-27T13:55:27Z</time></trkpt>
<trkpt lat="43.820790" lon="5.449117"><ele></ele><time>2014-4-27T13:55:30Z</time></trkpt>
<trkpt lat="43.820705" lon="5.449138"><ele></ele><time>2014-4-27T13:55:33Z</time></trkpt>
<trkpt lat="43.820622" lon="5.449163"><ele></ele><time>2014-4-27T13:55:36Z</time></trkpt>
<trkpt lat="43.820538" lon="5.449180"><ele></ele><time>2014-4-27T13:55:39Z</time></trkpt>
<trkpt lat="43.820453" lon="5.449190"><ele></ele><time>2014-4-27T13:55:42Z</time></trkpt>
<trkpt lat="43.820362" lon="5.449193"><ele></ele><time>2014-4-27T13:55:45Z</time></trkpt>
<trkpt lat="43.820275" lon="5.449200"><ele></ele><time>2014-4-27T13:55:48Z</time></trkpt>
<trkpt lat="43.820190" lon="5.449205"><ele></ele><time>2014-4-27T13:55:51Z</time></trkpt>
<trkpt lat="43.820095" lon="5.449210"><ele></ele><time>2014-4-27T13:55:54Z</time></trkpt>
<trkpt lat="43.820000" lon="5.449218"><ele></ele><time>2014-4-27T13:55:57Z</time></trkpt>
<trkpt lat="43.819908" lon="5.449222"><ele></ele><time>2014-4-27T13:56:0Z</time></trkpt>
<trkpt lat="43.819820" lon="5.449220"><ele></ele><time>2014-4-27T13:56:3Z</time></trkpt>
<trkpt lat="43.819728" lon="5.449210"><ele></ele><time>2014-4-27T13:56:6Z</time></trkpt>
<trkpt lat="43.819642" lon="5.449178"><ele></ele><time>2014-4-27T13:56:9Z</time></trkpt>
<trkpt lat="43.819545" lon="5.449140"><ele></ele><time>2014-4-27T13:56:12Z</time></trkpt>
<trkpt lat="43.819465" lon="5.449085"><ele></ele><time>2014-4-27T13:56:15Z</time></trkpt>
<trkpt lat="43.819382" lon="5.449018"><ele></ele><time>2014-4-27T13:56:18Z</time></trkpt>
<trkpt lat="43.819298" lon="5.448958"><ele></ele><time>2014-4-27T13:56:21Z</time></trkpt>
<trkpt lat="43.819210" lon="5.448897"><ele></ele><time>2014-4-27T13:56:24Z</time></trkpt>
<trkpt lat="43.819118" lon="5.448842"><ele></ele><time>2014-4-27T13:56:27Z</time></trkpt>
<trkpt lat="43.819035" lon="5.448785"><ele></ele><time>2014-4-27T13:56:30Z</time></trkpt>
<trkpt lat="43.818950" lon="5.448730"><ele></ele><time>2014-4-27T13:56:33Z</time></trkpt>
<trkpt lat="43.818863" lon="5.448670"><ele></ele><time>2014-4-27T13:56:36Z</time></trkpt>
<trkpt lat="43.818778" lon="5.448608"><ele></ele><time>2014-4-27T13:56:39Z</time></trkpt>
<trkpt lat="43.818695" lon="5.448548"><ele></ele><time>2014-4-27T13:56:42Z</time></trkpt>
<trkpt lat="43.818600" lon="5.448492"><ele></ele><time>2014-4-27T13:56:45Z</time></trkpt>
<trkpt lat="43.818500" lon="5.448460"><ele></ele><time>2014-4-27T13:56:48Z</time></trkpt>
<trkpt lat="43.818413" lon="5.448458"><ele></ele><time>2014-4-27T13:56:51Z</time></trkpt>
<trkpt lat="43.818405" lon="5.448477"><ele></ele><time>2014-4-27T13:56:54Z</time></trkpt>
<trkpt lat="43.818413" lon="5.448488"><ele></ele><time>2014-4-27T13:56:57Z</time></trkpt>
<trkpt lat="43.818452" lon="5.448452"><ele></ele><time>2014-4-27T13:57:0Z</time></trkpt>
<trkpt lat="43.818470" lon="5.448398"><ele></ele><time>2014-4-27T13:57:3Z</time></trkpt>
<trkpt lat="43.818505" lon="5.448372"><ele></ele><time>2014-4-27T13:57:6Z</time></trkpt>
<trkpt lat="43.818542" lon="5.448360"><ele></ele><time>2014-4-27T13:57:9Z</time></trkpt>
<trkpt lat="43.818577" lon="5.448348"><ele></ele><time>2014-4-27T13:57:12Z</time></trkpt>
<trkpt lat="43.818615" lon="5.448327"><ele></ele><time>2014-4-27T13:57:15Z</time></trkpt>
<trkpt lat="43.818623" lon="5.448292"><ele></ele><time>2014-4-27T13:57:18Z</time></trkpt>
<trkpt lat="43.818592" lon="5.448313"><ele></ele><time>2014-4-27T13:57:21Z</time></trkpt>
<trkpt lat="43.818542" lon="5.448358"><ele></ele><time>2014-4-27T13:57:24Z</time></trkpt>
<trkpt lat="43.818488" lon="5.448390"><ele></ele><time>2014-4-27T13:57:27Z</time></trkpt>
<trkpt lat="43.818440" lon="5.448420"><ele></ele><time>2014-4-27T13:57:30Z</time></trkpt>
<trkpt lat="43.818413" lon="5.448457"><ele></ele><time>2014-4-27T13:57:33Z</time></trkpt>
<trkpt lat="43.818413" lon="5.448463"><ele></ele><time>2014-4-27T13:57:36Z</time></trkpt>
<trkpt lat="43.818408" lon="5.448465"><ele></ele><time>2014-4-27T13:57:39Z</time></trkpt>
<trkpt lat="43.818413" lon="5.448465"><ele></ele><time>2014-4-27T13:57:42Z</time></trkpt>
<trkpt lat="43.818417" lon="5.448467"><ele></ele><time>2014-4-27T13:57:45Z</time></trkpt>
<trkpt lat="43.818417" lon="5.448467"><ele></ele><time>2014-4-27T13:57:48Z</time></trkpt>
<trkpt lat="43.818417" lon="5.448467"><ele></ele><time>2014-4-27T13:57:51Z</time></trkpt>
<trkpt lat="43.818417" lon="5.448468"><ele></ele><time>2014-4-27T13:57:54Z</time></trkpt>
<trkpt lat="43.818417" lon="5.448468"><ele></ele><time>2014-4-27T13:57:57Z</time></trkpt>
<trkpt lat="43.818420" lon="5.448468"><ele></ele><time>2014-4-27T13:58:0Z</time></trkpt>
<trkpt lat="43.818420" lon="5.448468"><ele></ele><time>2014-4-27T13:58:3Z</time></trkpt>
<trkpt lat="43.818420" lon="5.448468"><ele></ele><time>2014-4-27T13:58:6Z</time></trkpt>
<trkpt lat="43.818420" lon="5.448468"><ele></ele><time>2014-4-27T13:58:9Z</time></trkpt>
<trkpt lat="43.818425" lon="5.448478"><ele></ele><time>2014-4-27T13:58:12Z</time></trkpt>
<trkpt lat="43.818432" lon="5.448480"><ele></ele><time>2014-4-27T13:58:15Z</time></trkpt>
<trkpt lat="43.818432" lon="5.448480"><ele></ele><time>2014-4-27T13:58:18Z</time></trkpt>
<trkpt lat="43.818432" lon="5.448480"><ele></ele><time>2014-4-27T13:58:21Z</time></trkpt>
<trkpt lat="43.818432" lon="5.448480"><ele></ele><time>2014-4-27T13:58:24Z</time></trkpt>
<trkpt lat="43.818425" lon="5.448478"><ele></ele><time>2014-4-27T13:58:27Z</time></trkpt>
<trkpt lat="43.818425" lon="5.448475"><ele></ele><time>2014-4-27T13:58:30Z</time></trkpt>
<trkpt lat="43.818425" lon="5.448475"><ele></ele><time>2014-4-27T13:58:33Z</time></trkpt>
<trkpt lat="43.818420" lon="5.448478"><ele></ele><time>2014-4-27T13:58:36Z</time></trkpt>
<trkpt lat="43.818420" lon="5.448478"><ele></ele><time>2014-4-27T13:58:39Z</time></trkpt>
<trkpt lat="43.818417" lon="5.448477"><ele></ele><time>2014-4-27T13:58:42Z</time></trkpt>
<trkpt lat="43.818420" lon="5.448477"><ele></ele><time>2014-4-27T13:58:45Z</time></trkpt>
<trkpt lat="43.818420" lon="5.448480"><ele></ele><time>2014-4-27T13:58:48Z</time></trkpt>
<trkpt lat="43.818420" lon="5.448477"><ele></ele><time>2014-4-27T13:58:51Z</time></trkpt>
<trkpt lat="43.818420" lon="5.448475"><ele></ele><time>2014-4-27T13:58:54Z</time></trkpt>
<trkpt lat="43.818417" lon="5.448477"><ele></ele><time>2014-4-27T13:58:57Z</time></trkpt>
<trkpt lat="43.818417" lon="5.448477"><ele></ele><time>2014-4-27T13:59:0Z</time></trkpt>
<trkpt lat="43.818432" lon="5.448480"><ele></ele><time>2014-4-27T13:59:3Z</time></trkpt>
<trkpt lat="43.818467" lon="5.448477"><ele></ele><time>2014-4-27T13:59:6Z</time></trkpt>
<trkpt lat="43.818493" lon="5.448532"><ele></ele><time>2014-4-27T13:59:9Z</time></trkpt>
<trkpt lat="43.818462" lon="5.448625"><ele></ele><time>2014-4-27T13:59:12Z</time></trkpt>
<trkpt lat="43.818443" lon="5.448748"><ele></ele><time>2014-4-27T13:59:15Z</time></trkpt>
<trkpt lat="43.818425" lon="5.448875"><ele></ele><time>2014-4-27T13:59:18Z</time></trkpt>
<trkpt lat="43.818390" lon="5.449007"><ele></ele><time>2014-4-27T13:59:21Z</time></trkpt>
<trkpt lat="43.818360" lon="5.449137"><ele></ele><time>2014-4-27T13:59:24Z</time></trkpt>
<trkpt lat="43.818333" lon="5.449270"><ele></ele><time>2014-4-27T13:59:27Z</time></trkpt>
<trkpt lat="43.818295" lon="5.449397"><ele></ele><time>2014-4-27T13:59:30Z</time></trkpt>
<trkpt lat="43.818253" lon="5.449527"><ele></ele><time>2014-4-27T13:59:33Z</time></trkpt>
<trkpt lat="43.818198" lon="5.449640"><ele></ele><time>2014-4-27T13:59:36Z</time></trkpt>
<trkpt lat="43.818168" lon="5.449780"><ele></ele><time>2014-4-27T13:59:39Z</time></trkpt>
<trkpt lat="43.818162" lon="5.449935"><ele></ele><time>2014-4-27T13:59:42Z</time></trkpt>
<trkpt lat="43.818188" lon="5.450088"><ele></ele><time>2014-4-27T13:59:45Z</time></trkpt>
<trkpt lat="43.818245" lon="5.450217"><ele></ele><time>2014-4-27T13:59:48Z</time></trkpt>
<trkpt lat="43.818322" lon="5.450327"><ele></ele><time>2014-4-27T13:59:51Z</time></trkpt>
<trkpt lat="43.818413" lon="5.450407"><ele></ele><time>2014-4-27T13:59:54Z</time></trkpt>
<trkpt lat="43.818505" lon="5.450488"><ele></ele><time>2014-4-27T13:59:57Z</time></trkpt>
<trkpt lat="43.818585" lon="5.450592"><ele></ele><time>2014-4-27T14:0:0Z</time></trkpt>
<trkpt lat="43.818657" lon="5.450702"><ele></ele><time>2014-4-27T14:0:3Z</time></trkpt>
<trkpt lat="43.818725" lon="5.450822"><ele></ele><time>2014-4-27T14:0:6Z</time></trkpt>
<trkpt lat="43.818790" lon="5.450948"><ele></ele><time>2014-4-27T14:0:9Z</time></trkpt>
<trkpt lat="43.818843" lon="5.451087"><ele></ele><time>2014-4-27T14:0:12Z</time></trkpt>
<trkpt lat="43.818893" lon="5.451227"><ele></ele><time>2014-4-27T14:0:15Z</time></trkpt>
<trkpt lat="43.818940" lon="5.451370"><ele></ele><time>2014-4-27T14:0:18Z</time></trkpt>
<trkpt lat="43.818982" lon="5.451518"><ele></ele><time>2014-4-27T14:0:21Z</time></trkpt>
<trkpt lat="43.819015" lon="5.451668"><ele></ele><time>2014-4-27T14:0:24Z</time></trkpt>
<trkpt lat="43.819050" lon="5.451818"><ele></ele><time>2014-4-27T14:0:27Z</time></trkpt>
<trkpt lat="43.819077" lon="5.451963"><ele></ele><time>2014-4-27T14:0:30Z</time></trkpt>
<trkpt lat="43.819092" lon="5.452117"><ele></ele><time>2014-4-27T14:0:33Z</time></trkpt>
<trkpt lat="43.819095" lon="5.452275"><ele></ele><time>2014-4-27T14:0:36Z</time></trkpt>
<trkpt lat="43.819085" lon="5.452435"><ele></ele><time>2014-4-27T14:0:39Z</time></trkpt>
<trkpt lat="43.819103" lon="5.452602"><ele></ele><time>2014-4-27T14:0:42Z</time></trkpt>
<trkpt lat="43.819118" lon="5.452762"><ele></ele><time>2014-4-27T14:0:45Z</time></trkpt>
<trkpt lat="43.819142" lon="5.452917"><ele></ele><time>2014-4-27T14:0:48Z</time></trkpt>
<trkpt lat="43.819172" lon="5.453067"><ele></ele><time>2014-4-27T14:0:51Z</time></trkpt>
<trkpt lat="43.819202" lon="5.453215"><ele></ele><time>2014-4-27T14:0:54Z</time></trkpt>
<trkpt lat="43.819252" lon="5.453362"><ele></ele><time>2014-4-27T14:0:57Z</time></trkpt>
<trkpt lat="43.819325" lon="5.453502"><ele></ele><time>2014-4-27T14:1:0Z</time></trkpt>
<trkpt lat="43.819367" lon="5.453662"><ele></ele><time>2014-4-27T14:1:3Z</time></trkpt>
<trkpt lat="43.819390" lon="5.453818"><ele></ele><time>2014-4-27T14:1:6Z</time></trkpt>
<trkpt lat="43.819382" lon="5.453972"><ele></ele><time>2014-4-27T14:1:9Z</time></trkpt>
<trkpt lat="43.819397" lon="5.454132"><ele></ele><time>2014-4-27T14:1:12Z</time></trkpt>
<trkpt lat="43.819432" lon="5.454285"><ele></ele><time>2014-4-27T14:1:15Z</time></trkpt>
<trkpt lat="43.819477" lon="5.454430"><ele></ele><time>2014-4-27T14:1:18Z</time></trkpt>
<trkpt lat="43.819497" lon="5.454590"><ele></ele><time>2014-4-27T14:1:21Z</time></trkpt>
<trkpt lat="43.819492" lon="5.454743"><ele></ele><time>2014-4-27T14:1:24Z</time></trkpt>
<trkpt lat="43.819482" lon="5.454892"><ele></ele><time>2014-4-27T14:1:27Z</time></trkpt>
<trkpt lat="43.819473" lon="5.455037"><ele></ele><time>2014-4-27T14:1:30Z</time></trkpt>
<trkpt lat="43.819423" lon="5.455147"><ele></ele><time>2014-4-27T14:1:33Z</time></trkpt>
<trkpt lat="43.819412" lon="5.455283"><ele></ele><time>2014-4-27T14:1:36Z</time></trkpt>
<trkpt lat="43.819420" lon="5.455430"><ele></ele><time>2014-4-27T14:1:39Z</time></trkpt>
<trkpt lat="43.819417" lon="5.455580"><ele></ele><time>2014-4-27T14:1:42Z</time></trkpt>
<trkpt lat="43.819412" lon="5.455725"><ele></ele><time>2014-4-27T14:1:45Z</time></trkpt>
<trkpt lat="43.819427" lon="5.455867"><ele></ele><time>2014-4-27T14:1:48Z</time></trkpt>
<trkpt lat="43.819458" lon="5.456003"><ele></ele><time>2014-4-27T14:1:51Z</time></trkpt>
<trkpt lat="43.819508" lon="5.456128"><ele></ele><time>2014-4-27T14:1:54Z</time></trkpt>
<trkpt lat="43.819550" lon="5.456257"><ele></ele><time>2014-4-27T14:1:57Z</time></trkpt>
<trkpt lat="43.819572" lon="5.456398"><ele></ele><time>2014-4-27T14:2:0Z</time></trkpt>
<trkpt lat="43.819588" lon="5.456535"><ele></ele><time>2014-4-27T14:2:3Z</time></trkpt>
<trkpt lat="43.819583" lon="5.456677"><ele></ele><time>2014-4-27T14:2:6Z</time></trkpt>
<trkpt lat="43.819572" lon="5.456815"><ele></ele><time>2014-4-27T14:2:9Z</time></trkpt>
<trkpt lat="43.819530" lon="5.456945"><ele></ele><time>2014-4-27T14:2:12Z</time></trkpt>
<trkpt lat="43.819465" lon="5.457043"><ele></ele><time>2014-4-27T14:2:15Z</time></trkpt>
<trkpt lat="43.819420" lon="5.457157"><ele></ele><time>2014-4-27T14:2:18Z</time></trkpt>
<trkpt lat="43.819382" lon="5.457265"><ele></ele><time>2014-4-27T14:2:21Z</time></trkpt>
<trkpt lat="43.819340" lon="5.457368"><ele></ele><time>2014-4-27T14:2:24Z</time></trkpt>
<trkpt lat="43.819302" lon="5.457477"><ele></ele><time>2014-4-27T14:2:27Z</time></trkpt>
<trkpt lat="43.819272" lon="5.457590"><ele></ele><time>2014-4-27T14:2:30Z</time></trkpt>
<trkpt lat="43.819248" lon="5.457710"><ele></ele><time>2014-4-27T14:2:33Z</time></trkpt>
<trkpt lat="43.819202" lon="5.457818"><ele></ele><time>2014-4-27T14:2:36Z</time></trkpt>
<trkpt lat="43.819157" lon="5.457922"><ele></ele><time>2014-4-27T14:2:39Z</time></trkpt>
<trkpt lat="43.819103" lon="5.457987"><ele></ele><time>2014-4-27T14:2:42Z</time></trkpt>
<trkpt lat="43.819050" lon="5.458067"><ele></ele><time>2014-4-27T14:2:45Z</time></trkpt>
<trkpt lat="43.819003" lon="5.458173"><ele></ele><time>2014-4-27T14:2:48Z</time></trkpt>
<trkpt lat="43.818962" lon="5.458295"><ele></ele><time>2014-4-27T14:2:51Z</time></trkpt>
<trkpt lat="43.818940" lon="5.458442"><ele></ele><time>2014-4-27T14:2:54Z</time></trkpt>
<trkpt lat="43.818928" lon="5.458605"><ele></ele><time>2014-4-27T14:2:57Z</time></trkpt>
<trkpt lat="43.818935" lon="5.458760"><ele></ele><time>2014-4-27T14:3:0Z</time></trkpt>
<trkpt lat="43.818940" lon="5.458912"><ele></ele><time>2014-4-27T14:3:3Z</time></trkpt>
<trkpt lat="43.818950" lon="5.459068"><ele></ele><time>2014-4-27T14:3:6Z</time></trkpt>
<trkpt lat="43.818973" lon="5.459227"><ele></ele><time>2014-4-27T14:3:9Z</time></trkpt>
<trkpt lat="43.819000" lon="5.459380"><ele></ele><time>2014-4-27T14:3:12Z</time></trkpt>
<trkpt lat="43.819038" lon="5.459537"><ele></ele><time>2014-4-27T14:3:15Z</time></trkpt>
<trkpt lat="43.819085" lon="5.459688"><ele></ele><time>2014-4-27T14:3:18Z</time></trkpt>
<trkpt lat="43.819157" lon="5.459833"><ele></ele><time>2014-4-27T14:3:21Z</time></trkpt>
<trkpt lat="43.819180" lon="5.459980"><ele></ele><time>2014-4-27T14:3:24Z</time></trkpt>
<trkpt lat="43.819248" lon="5.460133"><ele></ele><time>2014-4-27T14:3:27Z</time></trkpt>
<trkpt lat="43.819320" lon="5.460313"><ele></ele><time>2014-4-27T14:3:30Z</time></trkpt>
<trkpt lat="43.819382" lon="5.460497"><ele></ele><time>2014-4-27T14:3:33Z</time></trkpt>
<trkpt lat="43.819412" lon="5.460663"><ele></ele><time>2014-4-27T14:3:36Z</time></trkpt>
<trkpt lat="43.819470" lon="5.460833"><ele></ele><time>2014-4-27T14:3:39Z</time></trkpt>
<trkpt lat="43.819508" lon="5.461010"><ele></ele><time>2014-4-27T14:3:42Z</time></trkpt>
<trkpt lat="43.819485" lon="5.461175"><ele></ele><time>2014-4-27T14:3:45Z</time></trkpt>
<trkpt lat="43.819470" lon="5.461335"><ele></ele><time>2014-4-27T14:3:48Z</time></trkpt>
<trkpt lat="43.819488" lon="5.461485"><ele></ele><time>2014-4-27T14:3:51Z</time></trkpt>
<trkpt lat="43.819500" lon="5.461612"><ele></ele><time>2014-4-27T14:3:54Z</time></trkpt>
<trkpt lat="43.819508" lon="5.461735"><ele></ele><time>2014-4-27T14:3:57Z</time></trkpt>
<trkpt lat="43.819527" lon="5.461845"><ele></ele><time>2014-4-27T14:4:0Z</time></trkpt>
<trkpt lat="43.819553" lon="5.461963"><ele></ele><time>2014-4-27T14:4:3Z</time></trkpt>
<trkpt lat="43.819580" lon="5.462077"><ele></ele><time>2014-4-27T14:4:6Z</time></trkpt>
<trkpt lat="43.819615" lon="5.462187"><ele></ele><time>2014-4-27T14:4:9Z</time></trkpt>
<trkpt lat="43.819653" lon="5.462292"><ele></ele><time>2014-4-27T14:4:12Z</time></trkpt>
<trkpt lat="43.819690" lon="5.462392"><ele></ele><time>2014-4-27T14:4:15Z</time></trkpt>
<trkpt lat="43.819737" lon="5.462477"><ele></ele><time>2014-4-27T14:4:18Z</time></trkpt>
<trkpt lat="43.819775" lon="5.462575"><ele></ele><time>2014-4-27T14:4:21Z</time></trkpt>
<trkpt lat="43.819817" lon="5.462680"><ele></ele><time>2014-4-27T14:4:24Z</time></trkpt>
<trkpt lat="43.819855" lon="5.462792"><ele></ele><time>2014-4-27T14:4:27Z</time></trkpt>
<trkpt lat="43.819885" lon="5.462902"><ele></ele><time>2014-4-27T14:4:30Z</time></trkpt>
<trkpt lat="43.819900" lon="5.463010"><ele></ele><time>2014-4-27T14:4:33Z</time></trkpt>
<trkpt lat="43.819900" lon="5.463117"><ele></ele><time>2014-4-27T14:4:36Z</time></trkpt>
<trkpt lat="43.819900" lon="5.463237"><ele></ele><time>2014-4-27T14:4:39Z</time></trkpt>
<trkpt lat="43.819900" lon="5.463360"><ele></ele><time>2014-4-27T14:4:42Z</time></trkpt>
<trkpt lat="43.819885" lon="5.463483"><ele></ele><time>2014-4-27T14:4:45Z</time></trkpt>
<trkpt lat="43.819867" lon="5.463600"><ele></ele><time>2014-4-27T14:4:48Z</time></trkpt>
<trkpt lat="43.819820" lon="5.463722"><ele></ele><time>2014-4-27T14:4:51Z</time></trkpt>
<trkpt lat="43.819790" lon="5.463823"><ele></ele><time>2014-4-27T14:4:54Z</time></trkpt>
<trkpt lat="43.819743" lon="5.463912"><ele></ele><time>2014-4-27T14:4:57Z</time></trkpt>
<trkpt lat="43.819707" lon="5.464017"><ele></ele><time>2014-4-27T14:5:0Z</time></trkpt>
<trkpt lat="43.819668" lon="5.464123"><ele></ele><time>2014-4-27T14:5:3Z</time></trkpt>
<trkpt lat="43.819615" lon="5.464217"><ele></ele><time>2014-4-27T14:5:6Z</time></trkpt>
<trkpt lat="43.819568" lon="5.464313"><ele></ele><time>2014-4-27T14:5:9Z</time></trkpt>
<trkpt lat="43.819542" lon="5.464407"><ele></ele><time>2014-4-27T14:5:12Z</time></trkpt>
<trkpt lat="43.819485" lon="5.464500"><ele></ele><time>2014-4-27T14:5:15Z</time></trkpt>
<trkpt lat="43.819462" lon="5.464618"><ele></ele><time>2014-4-27T14:5:18Z</time></trkpt>
<trkpt lat="43.819438" lon="5.464733"><ele></ele><time>2014-4-27T14:5:21Z</time></trkpt>
<trkpt lat="43.819405" lon="5.464842"><ele></ele><time>2014-4-27T14:5:24Z</time></trkpt>
<trkpt lat="43.819382" lon="5.464962"><ele></ele><time>2014-4-27T14:5:27Z</time></trkpt>
<trkpt lat="43.819378" lon="5.465087"><ele></ele><time>2014-4-27T14:5:30Z</time></trkpt>
<trkpt lat="43.819378" lon="5.465208"><ele></ele><time>2014-4-27T14:5:33Z</time></trkpt>
<trkpt lat="43.819400" lon="5.465337"><ele></ele><time>2014-4-27T14:5:36Z</time></trkpt>
<trkpt lat="43.819427" lon="5.465462"><ele></ele><time>2014-4-27T14:5:39Z</time></trkpt>
<trkpt lat="43.819455" lon="5.465582"><ele></ele><time>2014-4-27T14:5:42Z</time></trkpt>
<trkpt lat="43.819497" lon="5.465692"><ele></ele><time>2014-4-27T14:5:45Z</time></trkpt>
<trkpt lat="43.819538" lon="5.465800"><ele></ele><time>2014-4-27T14:5:48Z</time></trkpt>
<trkpt lat="43.819572" lon="5.465907"><ele></ele><time>2014-4-27T14:5:51Z</time></trkpt>
<trkpt lat="43.819610" lon="5.466025"><ele></ele><time>2014-4-27T14:5:54Z</time></trkpt>
<trkpt lat="43.819645" lon="5.466123"><ele></ele><time>2014-4-27T14:5:57Z</time></trkpt>
<trkpt lat="43.819683" lon="5.466235"><ele></ele><time>2014-4-27T14:6:0Z</time></trkpt>
<trkpt lat="43.819707" lon="5.466358"><ele></ele><time>2014-4-27T14:6:3Z</time></trkpt>
<trkpt lat="43.819722" lon="5.466470"><ele></ele><time>2014-4-27T14:6:6Z</time></trkpt>
<trkpt lat="43.819725" lon="5.466588"><ele></ele><time>2014-4-27T14:6:9Z</time></trkpt>
<trkpt lat="43.819728" lon="5.466703"><ele></ele><time>2014-4-27T14:6:12Z</time></trkpt>
<trkpt lat="43.819710" lon="5.466818"><ele></ele><time>2014-4-27T14:6:15Z</time></trkpt>
<trkpt lat="43.819668" lon="5.466915"><ele></ele><time>2014-4-27T14:6:18Z</time></trkpt>
<trkpt lat="43.819627" lon="5.467013"><ele></ele><time>2014-4-27T14:6:21Z</time></trkpt>
<trkpt lat="43.819572" lon="5.467108"><ele></ele><time>2014-4-27T14:6:24Z</time></trkpt>
<trkpt lat="43.819512" lon="5.467183"><ele></ele><time>2014-4-27T14:6:27Z</time></trkpt>
<trkpt lat="43.819455" lon="5.467267"><ele></ele><time>2014-4-27T14:6:30Z</time></trkpt>
<trkpt lat="43.819382" lon="5.467338"><ele></ele><time>2014-4-27T14:6:33Z</time></trkpt>
<trkpt lat="43.819313" lon="5.467405"><ele></ele><time>2014-4-27T14:6:36Z</time></trkpt>
<trkpt lat="43.819252" lon="5.467473"><ele></ele><time>2014-4-27T14:6:39Z</time></trkpt>
<trkpt lat="43.819180" lon="5.467530"><ele></ele><time>2014-4-27T14:6:42Z</time></trkpt>
<trkpt lat="43.819100" lon="5.467578"><ele></ele><time>2014-4-27T14:6:45Z</time></trkpt>
<trkpt lat="43.819027" lon="5.467628"><ele></ele><time>2014-4-27T14:6:48Z</time></trkpt>
<trkpt lat="43.818962" lon="5.467678"><ele></ele><time>2014-4-27T14:6:51Z</time></trkpt>
<trkpt lat="43.818890" lon="5.467723"><ele></ele><time>2014-4-27T14:6:54Z</time></trkpt>
<trkpt lat="43.818813" lon="5.467765"><ele></ele><time>2014-4-27T14:6:57Z</time></trkpt>
<trkpt lat="43.818737" lon="5.467803"><ele></ele><time>2014-4-27T14:7:0Z</time></trkpt>
<trkpt lat="43.818657" lon="5.467835"><ele></ele><time>2014-4-27T14:7:3Z</time></trkpt>
<trkpt lat="43.818573" lon="5.467867"><ele></ele><time>2014-4-27T14:7:6Z</time></trkpt>
<trkpt lat="43.818485" lon="5.467882"><ele></ele><time>2014-4-27T14:7:9Z</time></trkpt>
<trkpt lat="43.818402" lon="5.467895"><ele></ele><time>2014-4-27T14:7:12Z</time></trkpt>
<trkpt lat="43.818313" lon="5.467913"><ele></ele><time>2014-4-27T14:7:15Z</time></trkpt>
<trkpt lat="43.818230" lon="5.467922"><ele></ele><time>2014-4-27T14:7:18Z</time></trkpt>
<trkpt lat="43.818145" lon="5.467932"><ele></ele><time>2014-4-27T14:7:21Z</time></trkpt>
<trkpt lat="43.818070" lon="5.467917"><ele></ele><time>2014-4-27T14:7:24Z</time></trkpt>
<trkpt lat="43.817993" lon="5.467927"><ele></ele><time>2014-4-27T14:7:27Z</time></trkpt>
<trkpt lat="43.817920" lon="5.467945"><ele></ele><time>2014-4-27T14:7:30Z</time></trkpt>
<trkpt lat="43.817852" lon="5.467973"><ele></ele><time>2014-4-27T14:7:33Z</time></trkpt>
<trkpt lat="43.817775" lon="5.468002"><ele></ele><time>2014-4-27T14:7:36Z</time></trkpt>
<trkpt lat="43.817695" lon="5.468033"><ele></ele><time>2014-4-27T14:7:39Z</time></trkpt>
<trkpt lat="43.817627" lon="5.468072"><ele></ele><time>2014-4-27T14:7:42Z</time></trkpt>
<trkpt lat="43.817558" lon="5.468112"><ele></ele><time>2014-4-27T14:7:45Z</time></trkpt>
<trkpt lat="43.817478" lon="5.468143"><ele></ele><time>2014-4-27T14:7:48Z</time></trkpt>
<trkpt lat="43.817390" lon="5.468165"><ele></ele><time>2014-4-27T14:7:51Z</time></trkpt>
<trkpt lat="43.817310" lon="5.468190"><ele></ele><time>2014-4-27T14:7:54Z</time></trkpt>
<trkpt lat="43.817227" lon="5.468220"><ele></ele><time>2014-4-27T14:7:57Z</time></trkpt>
<trkpt lat="43.817158" lon="5.468247"><ele></ele><time>2014-4-27T14:8:0Z</time></trkpt>
<trkpt lat="43.817127" lon="5.468312"><ele></ele><time>2014-4-27T14:8:3Z</time></trkpt>
<trkpt lat="43.817082" lon="5.468375"><ele></ele><time>2014-4-27T14:8:6Z</time></trkpt>
<trkpt lat="43.817013" lon="5.468420"><ele></ele><time>2014-4-27T14:8:9Z</time></trkpt>
<trkpt lat="43.816960" lon="5.468473"><ele></ele><time>2014-4-27T14:8:12Z</time></trkpt>
<trkpt lat="43.816883" lon="5.468520"><ele></ele><time>2014-4-27T14:8:15Z</time></trkpt>
<trkpt lat="43.816810" lon="5.468568"><ele></ele><time>2014-4-27T14:8:18Z</time></trkpt>
<trkpt lat="43.816723" lon="5.468615"><ele></ele><time>2014-4-27T14:8:21Z</time></trkpt>
<trkpt lat="43.816635" lon="5.468662"><ele></ele><time>2014-4-27T14:8:24Z</time></trkpt>
<trkpt lat="43.816558" lon="5.468715"><ele></ele><time>2014-4-27T14:8:27Z</time></trkpt>
<trkpt lat="43.816490" lon="5.468778"><ele></ele><time>2014-4-27T14:8:30Z</time></trkpt>
<trkpt lat="43.816418" lon="5.468833"><ele></ele><time>2014-4-27T14:8:33Z</time></trkpt>
<trkpt lat="43.816365" lon="5.468903"><ele></ele><time>2014-4-27T14:8:36Z</time></trkpt>
<trkpt lat="43.816280" lon="5.468938"><ele></ele><time>2014-4-27T14:8:39Z</time></trkpt>
<trkpt lat="43.816188" lon="5.469003"><ele></ele><time>2014-4-27T14:8:42Z</time></trkpt>
<trkpt lat="43.816113" lon="5.469048"><ele></ele><time>2014-4-27T14:8:45Z</time></trkpt>
<trkpt lat="43.816025" lon="5.469120"><ele></ele><time>2014-4-27T14:8:48Z</time></trkpt>
<trkpt lat="43.815937" lon="5.469187"><ele></ele><time>2014-4-27T14:8:51Z</time></trkpt>
<trkpt lat="43.815853" lon="5.469260"><ele></ele><time>2014-4-27T14:8:54Z</time></trkpt>
<trkpt lat="43.815762" lon="5.469335"><ele></ele><time>2014-4-27T14:8:57Z</time></trkpt>
<trkpt lat="43.815670" lon="5.469408"><ele></ele><time>2014-4-27T14:9:0Z</time></trkpt>
<trkpt lat="43.815563" lon="5.469470"><ele></ele><time>2014-4-27T14:9:3Z</time></trkpt>
<trkpt lat="43.815460" lon="5.469517"><ele></ele><time>2014-4-27T14:9:6Z</time></trkpt>
<trkpt lat="43.815365" lon="5.469577"><ele></ele><time>2014-4-27T14:9:9Z</time></trkpt>
<trkpt lat="43.815315" lon="5.469513"><ele></ele><time>2014-4-27T14:9:12Z</time></trkpt>
<trkpt lat="43.815327" lon="5.469503"><ele></ele><time>2014-4-27T14:9:15Z</time></trkpt>
<trkpt lat="43.815327" lon="5.469512"><ele></ele><time>2014-4-27T14:9:18Z</time></trkpt>
<trkpt lat="43.815330" lon="5.469510"><ele></ele><time>2014-4-27T14:9:21Z</time></trkpt>
<trkpt lat="43.815330" lon="5.469508"><ele></ele><time>2014-4-27T14:9:24Z</time></trkpt>
<trkpt lat="43.815330" lon="5.469527"><ele></ele><time>2014-4-27T14:9:27Z</time></trkpt>
<trkpt lat="43.815323" lon="5.469530"><ele></ele><time>2014-4-27T14:9:30Z</time></trkpt>
<trkpt lat="43.815318" lon="5.469527"><ele></ele><time>2014-4-27T14:9:33Z</time></trkpt>
<trkpt lat="43.815323" lon="5.469522"><ele></ele><time>2014-4-27T14:9:36Z</time></trkpt>
<trkpt lat="43.815318" lon="5.469520"><ele></ele><time>2014-4-27T14:9:39Z</time></trkpt>
<trkpt lat="43.815323" lon="5.469523"><ele></ele><time>2014-4-27T14:9:42Z</time></trkpt>
<trkpt lat="43.815365" lon="5.469582"><ele></ele><time>2014-4-27T14:9:45Z</time></trkpt>
<trkpt lat="43.815430" lon="5.469562"><ele></ele><time>2014-4-27T14:9:48Z</time></trkpt>
<trkpt lat="43.815433" lon="5.469483"><ele></ele><time>2014-4-27T14:9:51Z</time></trkpt>
<trkpt lat="43.815383" lon="5.469413"><ele></ele><time>2014-4-27T14:9:54Z</time></trkpt>
<trkpt lat="43.815338" lon="5.469342"><ele></ele><time>2014-4-27T14:9:57Z</time></trkpt>
<trkpt lat="43.815300" lon="5.469270"><ele></ele><time>2014-4-27T14:10:0Z</time></trkpt>
<trkpt lat="43.815255" lon="5.469203"><ele></ele><time>2014-4-27T14:10:3Z</time></trkpt>
<trkpt lat="43.815208" lon="5.469130"><ele></ele><time>2014-4-27T14:10:6Z</time></trkpt>
<trkpt lat="43.815155" lon="5.469055"><ele></ele><time>2014-4-27T14:10:9Z</time></trkpt>
<trkpt lat="43.815105" lon="5.468990"><ele></ele><time>2014-4-27T14:10:12Z</time></trkpt>
<trkpt lat="43.815048" lon="5.468935"><ele></ele><time>2014-4-27T14:10:15Z</time></trkpt>
<trkpt lat="43.815002" lon="5.468875"><ele></ele><time>2014-4-27T14:10:18Z</time></trkpt>
<trkpt lat="43.814948" lon="5.468820"><ele></ele><time>2014-4-27T14:10:21Z</time></trkpt>
<trkpt lat="43.814892" lon="5.468760"><ele></ele><time>2014-4-27T14:10:24Z</time></trkpt>
<trkpt lat="43.814842" lon="5.468693"><ele></ele><time>2014-4-27T14:10:27Z</time></trkpt>
<trkpt lat="43.814788" lon="5.468630"><ele></ele><time>2014-4-27T14:10:30Z</time></trkpt>
<trkpt lat="43.814723" lon="5.468575"><ele></ele><time>2014-4-27T14:10:33Z</time></trkpt>
<trkpt lat="43.814670" lon="5.468505"><ele></ele><time>2014-4-27T14:10:36Z</time></trkpt>
<trkpt lat="43.814622" lon="5.468430"><ele></ele><time>2014-4-27T14:10:39Z</time></trkpt>
<trkpt lat="43.814572" lon="5.468350"><ele></ele><time>2014-4-27T14:10:42Z</time></trkpt>
<trkpt lat="43.814530" lon="5.468265"><ele></ele><time>2014-4-27T14:10:45Z</time></trkpt>
<trkpt lat="43.814498" lon="5.468173"><ele></ele><time>2014-4-27T14:10:48Z</time></trkpt>
<trkpt lat="43.814468" lon="5.468082"><ele></ele><time>2014-4-27T14:10:51Z</time></trkpt>
<trkpt lat="43.814445" lon="5.467982"><ele></ele><time>2014-4-27T14:10:54Z</time></trkpt>
<trkpt lat="43.814427" lon="5.467878"><ele></ele><time>2014-4-27T14:10:57Z</time></trkpt>
<trkpt lat="43.814418" lon="5.467787"><ele></ele><time>2014-4-27T14:11:0Z</time></trkpt>
<trkpt lat="43.814438" lon="5.467698"><ele></ele><time>2014-4-27T14:11:3Z</time></trkpt>
<trkpt lat="43.814453" lon="5.467612"><ele></ele><time>2014-4-27T14:11:6Z</time></trkpt>
<trkpt lat="43.814468" lon="5.467527"><ele></ele><time>2014-4-27T14:11:9Z</time></trkpt>
<trkpt lat="43.814498" lon="5.467457"><ele></ele><time>2014-4-27T14:11:12Z</time></trkpt>
<trkpt lat="43.814522" lon="5.467388"><ele></ele><time>2014-4-27T14:11:15Z</time></trkpt>
<trkpt lat="43.814557" lon="5.467330"><ele></ele><time>2014-4-27T14:11:18Z</time></trkpt>
<trkpt lat="43.814602" lon="5.467257"><ele></ele><time>2014-4-27T14:11:21Z</time></trkpt>
<trkpt lat="43.814648" lon="5.467183"><ele></ele><time>2014-4-27T14:11:24Z</time></trkpt>
<trkpt lat="43.814702" lon="5.467125"><ele></ele><time>2014-4-27T14:11:27Z</time></trkpt>
<trkpt lat="43.814762" lon="5.467082"><ele></ele><time>2014-4-27T14:11:30Z</time></trkpt>
<trkpt lat="43.814830" lon="5.467047"><ele></ele><time>2014-4-27T14:11:33Z</time></trkpt>
<trkpt lat="43.814900" lon="5.467018"><ele></ele><time>2014-4-27T14:11:36Z</time></trkpt>
<trkpt lat="43.814965" lon="5.466995"><ele></ele><time>2014-4-27T14:11:39Z</time></trkpt>
<trkpt lat="43.815033" lon="5.466977"><ele></ele><time>2014-4-27T14:11:42Z</time></trkpt>
<trkpt lat="43.815102" lon="5.466965"><ele></ele><time>2014-4-27T14:11:45Z</time></trkpt>
<trkpt lat="43.815173" lon="5.466958"><ele></ele><time>2014-4-27T14:11:48Z</time></trkpt>
<trkpt lat="43.815167" lon="5.467048"><ele></ele><time>2014-4-27T14:11:51Z</time></trkpt>
<trkpt lat="43.815132" lon="5.467127"><ele></ele><time>2014-4-27T14:11:54Z</time></trkpt>
<trkpt lat="43.815110" lon="5.467213"><ele></ele><time>2014-4-27T14:11:57Z</time></trkpt>
<trkpt lat="43.815120" lon="5.467305"><ele></ele><time>2014-4-27T14:12:0Z</time></trkpt>
<trkpt lat="43.815155" lon="5.467390"><ele></ele><time>2014-4-27T14:12:3Z</time></trkpt>
<trkpt lat="43.815178" lon="5.467487"><ele></ele><time>2014-4-27T14:12:6Z</time></trkpt>
<trkpt lat="43.815223" lon="5.467553"><ele></ele><time>2014-4-27T14:12:9Z</time></trkpt>
<trkpt lat="43.815217" lon="5.467593"><ele></ele><time>2014-4-27T14:12:12Z</time></trkpt>
<trkpt lat="43.815212" lon="5.467585"><ele></ele><time>2014-4-27T14:12:15Z</time></trkpt>
<trkpt lat="43.815197" lon="5.467602"><ele></ele><time>2014-4-27T14:12:18Z</time></trkpt>
<trkpt lat="43.815220" lon="5.467620"><ele></ele><time>2014-4-27T14:12:21Z</time></trkpt>
<trkpt lat="43.815247" lon="5.467647"><ele></ele><time>2014-4-27T14:12:24Z</time></trkpt>
<trkpt lat="43.815238" lon="5.467627"><ele></ele><time>2014-4-27T14:12:27Z</time></trkpt>
<trkpt lat="43.815205" lon="5.467643"><ele></ele><time>2014-4-27T14:12:30Z</time></trkpt>
<trkpt lat="43.815197" lon="5.467658"><ele></ele><time>2014-4-27T14:12:33Z</time></trkpt>
<trkpt lat="43.815205" lon="5.467655"><ele></ele><time>2014-4-27T14:12:36Z</time></trkpt>
<trkpt lat="43.815190" lon="5.467612"><ele></ele><time>2014-4-27T14:12:39Z</time></trkpt>
<trkpt lat="43.815178" lon="5.467580"><ele></ele><time>2014-4-27T14:12:42Z</time></trkpt>
<trkpt lat="43.815190" lon="5.467565"><ele></ele><time>2014-4-27T14:12:45Z</time></trkpt>
<trkpt lat="43.815190" lon="5.467568"><ele></ele><time>2014-4-27T14:12:48Z</time></trkpt>
<trkpt lat="43.815182" lon="5.467568"><ele></ele><time>2014-4-27T14:12:51Z</time></trkpt>
<trkpt lat="43.815182" lon="5.467563"><ele></ele><time>2014-4-27T14:12:54Z</time></trkpt>
<trkpt lat="43.815185" lon="5.467573"><ele></ele><time>2014-4-27T14:12:57Z</time></trkpt>
<trkpt lat="43.815190" lon="5.467572"><ele></ele><time>2014-4-27T14:13:0Z</time></trkpt>
<trkpt lat="43.815205" lon="5.467600"><ele></ele><time>2014-4-27T14:13:3Z</time></trkpt>
<trkpt lat="43.815205" lon="5.467638"><ele></ele><time>2014-4-27T14:13:6Z</time></trkpt>
<trkpt lat="43.815208" lon="5.467660"><ele></ele><time>2014-4-27T14:13:9Z</time></trkpt>
<trkpt lat="43.815208" lon="5.467662"><ele></ele><time>2014-4-27T14:13:12Z</time></trkpt>
<trkpt lat="43.815208" lon="5.467662"><ele></ele><time>2014-4-27T14:13:15Z</time></trkpt>
<trkpt lat="43.815208" lon="5.467657"><ele></ele><time>2014-4-27T14:13:18Z</time></trkpt>
<trkpt lat="43.815208" lon="5.467660"><ele></ele><time>2014-4-27T14:13:21Z</time></trkpt>
<trkpt lat="43.815228" lon="5.467625"><ele></ele><time>2014-4-27T14:13:24Z</time></trkpt>
<trkpt lat="43.815220" lon="5.467597"><ele></ele><time>2014-4-27T14:13:27Z</time></trkpt>
<trkpt lat="43.815217" lon="5.467595"><ele></ele><time>2014-4-27T14:13:30Z</time></trkpt>
<trkpt lat="43.815208" lon="5.467587"><ele></ele><time>2014-4-27T14:13:33Z</time></trkpt>
<trkpt lat="43.815208" lon="5.467588"><ele></ele><time>2014-4-27T14:13:36Z</time></trkpt>
<trkpt lat="43.815212" lon="5.467578"><ele></ele><time>2014-4-27T14:13:39Z</time></trkpt>
<trkpt lat="43.815212" lon="5.467577"><ele></ele><time>2014-4-27T14:13:42Z</time></trkpt>
<trkpt lat="43.815212" lon="5.467575"><ele></ele><time>2014-4-27T14:13:45Z</time></trkpt>
<trkpt lat="43.815223" lon="5.467577"><ele></ele><time>2014-4-27T14:13:48Z</time></trkpt>
<trkpt lat="43.815223" lon="5.467578"><ele></ele><time>2014-4-27T14:13:51Z</time></trkpt>
<trkpt lat="43.815228" lon="5.467578"><ele></ele><time>2014-4-27T14:13:54Z</time></trkpt>
<trkpt lat="43.815228" lon="5.467580"><ele></ele><time>2014-4-27T14:13:57Z</time></trkpt>
<trkpt lat="43.815223" lon="5.467580"><ele></ele><time>2014-4-27T14:14:0Z</time></trkpt>
<trkpt lat="43.815223" lon="5.467580"><ele></ele><time>2014-4-27T14:14:3Z</time></trkpt>
<trkpt lat="43.815223" lon="5.467580"><ele></ele><time>2014-4-27T14:14:6Z</time></trkpt>
<trkpt lat="43.815228" lon="5.467578"><ele></ele><time>2014-4-27T14:14:9Z</time></trkpt>
<trkpt lat="43.815232" lon="5.467578"><ele></ele><time>2014-4-27T14:14:12Z</time></trkpt>
<trkpt lat="43.815232" lon="5.467580"><ele></ele><time>2014-4-27T14:14:15Z</time></trkpt>
<trkpt lat="43.815235" lon="5.467580"><ele></ele><time>2014-4-27T14:14:18Z</time></trkpt>
<trkpt lat="43.815235" lon="5.467582"><ele></ele><time>2014-4-27T14:14:21Z</time></trkpt>
<trkpt lat="43.815238" lon="5.467583"><ele></ele><time>2014-4-27T14:14:24Z</time></trkpt>
<trkpt lat="43.815238" lon="5.467582"><ele></ele><time>2014-4-27T14:14:27Z</time></trkpt>
<trkpt lat="43.815228" lon="5.467573"><ele></ele><time>2014-4-27T14:14:30Z</time></trkpt>
<trkpt lat="43.815228" lon="5.467580"><ele></ele><time>2014-4-27T14:14:33Z</time></trkpt>
<trkpt lat="43.815232" lon="5.467583"><ele></ele><time>2014-4-27T14:14:36Z</time></trkpt>
<trkpt lat="43.815232" lon="5.467587"><ele></ele><time>2014-4-27T14:14:39Z</time></trkpt>
<trkpt lat="43.815235" lon="5.467583"><ele></ele><time>2014-4-27T14:14:42Z</time></trkpt>
<trkpt lat="43.815232" lon="5.467597"><ele></ele><time>2014-4-27T14:14:45Z</time></trkpt>
<trkpt lat="43.815223" lon="5.467603"><ele></ele><time>2014-4-27T14:14:48Z</time></trkpt>
<trkpt lat="43.815228" lon="5.467605"><ele></ele><time>2014-4-27T14:14:51Z</time></trkpt>
<trkpt lat="43.815228" lon="5.467592"><ele></ele><time>2014-4-27T14:14:54Z</time></trkpt>
<trkpt lat="43.815197" lon="5.467580"><ele></ele><time>2014-4-27T14:14:57Z</time></trkpt>
<trkpt lat="43.815170" lon="5.467487"><ele></ele><time>2014-4-27T14:15:0Z</time></trkpt>
<trkpt lat="43.815170" lon="5.467353"><ele></ele><time>2014-4-27T14:15:3Z</time></trkpt>
<trkpt lat="43.815178" lon="5.467210"><ele></ele><time>2014-4-27T14:15:6Z</time></trkpt>
<trkpt lat="43.815190" lon="5.467083"><ele></ele><time>2014-4-27T14:15:9Z</time></trkpt>
<trkpt lat="43.815140" lon="5.466982"><ele></ele><time>2014-4-27T14:15:12Z</time></trkpt>
<trkpt lat="43.815057" lon="5.466978"><ele></ele><time>2014-4-27T14:15:15Z</time></trkpt>
<trkpt lat="43.814945" lon="5.467003"><ele></ele><time>2014-4-27T14:15:18Z</time></trkpt>
<trkpt lat="43.814823" lon="5.467062"><ele></ele><time>2014-4-27T14:15:21Z</time></trkpt>
<trkpt lat="43.814723" lon="5.467125"><ele></ele><time>2014-4-27T14:15:24Z</time></trkpt>
<trkpt lat="43.814652" lon="5.467192"><ele></ele><time>2014-4-27T14:15:27Z</time></trkpt>
<trkpt lat="43.814617" lon="5.467223"><ele></ele><time>2014-4-27T14:15:30Z</time></trkpt>
<trkpt lat="43.814617" lon="5.467228"><ele></ele><time>2014-4-27T14:15:33Z</time></trkpt>
<trkpt lat="43.814595" lon="5.467180"><ele></ele><time>2014-4-27T14:15:36Z</time></trkpt>
<trkpt lat="43.814598" lon="5.466970"><ele></ele><time>2014-4-27T14:15:39Z</time></trkpt>
<trkpt lat="43.814602" lon="5.466747"><ele></ele><time>2014-4-27T14:15:42Z</time></trkpt>
<trkpt lat="43.814617" lon="5.466497"><ele></ele><time>2014-4-27T14:15:45Z</time></trkpt>
<trkpt lat="43.814598" lon="5.466250"><ele></ele><time>2014-4-27T14:15:48Z</time></trkpt>
<trkpt lat="43.814433" lon="5.465857"><ele></ele><time>2014-4-27T14:15:51Z</time></trkpt>
<trkpt lat="43.814392" lon="5.465535"><ele></ele><time>2014-4-27T14:15:54Z</time></trkpt>
<trkpt lat="43.814407" lon="5.465458"><ele></ele><time>2014-4-27T14:15:57Z</time></trkpt>
<trkpt lat="43.814438" lon="5.465383"><ele></ele><time>2014-4-27T14:16:0Z</time></trkpt>
<trkpt lat="43.814498" lon="5.465345"><ele></ele><time>2014-4-27T14:16:3Z</time></trkpt>
<trkpt lat="43.814578" lon="5.465333"><ele></ele><time>2014-4-27T14:16:6Z</time></trkpt>
<trkpt lat="43.814583" lon="5.465332"><ele></ele><time>2014-4-27T14:16:9Z</time></trkpt>
<trkpt lat="43.814583" lon="5.465332"><ele></ele><time>2014-4-27T14:16:12Z</time></trkpt>
<trkpt lat="43.814587" lon="5.465340"><ele></ele><time>2014-4-27T14:16:15Z</time></trkpt>
<trkpt lat="43.814632" lon="5.465455"><ele></ele><time>2014-4-27T14:16:18Z</time></trkpt>
<trkpt lat="43.814613" lon="5.465617"><ele></ele><time>2014-4-27T14:16:21Z</time></trkpt>
<trkpt lat="43.814583" lon="5.465723"><ele></ele><time>2014-4-27T14:16:24Z</time></trkpt>
<trkpt lat="43.814605" lon="5.465818"><ele></ele><time>2014-4-27T14:16:27Z</time></trkpt>
<trkpt lat="43.814632" lon="5.465908"><ele></ele><time>2014-4-27T14:16:30Z</time></trkpt>
<trkpt lat="43.814628" lon="5.465978"><ele></ele><time>2014-4-27T14:16:33Z</time></trkpt>
<trkpt lat="43.814628" lon="5.465978"><ele></ele><time>2014-4-27T14:16:36Z</time></trkpt>
<trkpt lat="43.814628" lon="5.465982"><ele></ele><time>2014-4-27T14:16:39Z</time></trkpt>
<trkpt lat="43.814628" lon="5.465983"><ele></ele><time>2014-4-27T14:16:42Z</time></trkpt>
<trkpt lat="43.814587" lon="5.465975"><ele></ele><time>2014-4-27T14:16:45Z</time></trkpt>
<trkpt lat="43.814595" lon="5.465835"><ele></ele><time>2014-4-27T14:16:48Z</time></trkpt>
<trkpt lat="43.814637" lon="5.465727"><ele></ele><time>2014-4-27T14:16:51Z</time></trkpt>
<trkpt lat="43.814682" lon="5.465637"><ele></ele><time>2014-4-27T14:16:54Z</time></trkpt>
<trkpt lat="43.814728" lon="5.465523"><ele></ele><time>2014-4-27T14:16:57Z</time></trkpt>
<trkpt lat="43.814808" lon="5.465417"><ele></ele><time>2014-4-27T14:17:0Z</time></trkpt>
<trkpt lat="43.814907" lon="5.465355"><ele></ele><time>2014-4-27T14:17:3Z</time></trkpt>
<trkpt lat="43.815028" lon="5.465360"><ele></ele><time>2014-4-27T14:17:6Z</time></trkpt>
<trkpt lat="43.815140" lon="5.465363"><ele></ele><time>2014-4-27T14:17:9Z</time></trkpt>
<trkpt lat="43.815250" lon="5.465337"><ele></ele><time>2014-4-27T14:17:12Z</time></trkpt>
<trkpt lat="43.815338" lon="5.465265"><ele></ele><time>2014-4-27T14:17:15Z</time></trkpt>
<trkpt lat="43.815433" lon="5.465128"><ele></ele><time>2014-4-27T14:17:18Z</time></trkpt>
<trkpt lat="43.815543" lon="5.465030"><ele></ele><time>2014-4-27T14:17:21Z</time></trkpt>
<trkpt lat="43.815647" lon="5.464920"><ele></ele><time>2014-4-27T14:17:24Z</time></trkpt>
<trkpt lat="43.815747" lon="5.464790"><ele></ele><time>2014-4-27T14:17:27Z</time></trkpt>
<trkpt lat="43.815865" lon="5.464625"><ele></ele><time>2014-4-27T14:17:30Z</time></trkpt>
<trkpt lat="43.815963" lon="5.464500"><ele></ele><time>2014-4-27T14:17:33Z</time></trkpt>
<trkpt lat="43.816085" lon="5.464407"><ele></ele><time>2014-4-27T14:17:36Z</time></trkpt>
<trkpt lat="43.816185" lon="5.464305"><ele></ele><time>2014-4-27T14:17:39Z</time></trkpt>
<trkpt lat="43.816292" lon="5.464228"><ele></ele><time>2014-4-27T14:17:42Z</time></trkpt>
<trkpt lat="43.816413" lon="5.464090"><ele></ele><time>2014-4-27T14:17:45Z</time></trkpt>
<trkpt lat="43.816543" lon="5.463965"><ele></ele><time>2014-4-27T14:17:48Z</time></trkpt>
<trkpt lat="43.816665" lon="5.463853"><ele></ele><time>2014-4-27T14:17:51Z</time></trkpt>
<trkpt lat="43.816772" lon="5.463710"><ele></ele><time>2014-4-27T14:17:54Z</time></trkpt>
<trkpt lat="43.816902" lon="5.463612"><ele></ele><time>2014-4-27T14:17:57Z</time></trkpt>
<trkpt lat="43.817002" lon="5.463553"><ele></ele><time>2014-4-27T14:18:0Z</time></trkpt>
<trkpt lat="43.817058" lon="5.463510"><ele></ele><time>2014-4-27T14:18:3Z</time></trkpt>
<trkpt lat="43.817185" lon="5.463432"><ele></ele><time>2014-4-27T14:18:6Z</time></trkpt>
<trkpt lat="43.817325" lon="5.463340"><ele></ele><time>2014-4-27T14:18:9Z</time></trkpt>
<trkpt lat="43.817440" lon="5.463250"><ele></ele><time>2014-4-27T14:18:12Z</time></trkpt>
<trkpt lat="43.817647" lon="5.463097"><ele></ele><time>2014-4-27T14:18:15Z</time></trkpt>
<trkpt lat="43.817878" lon="5.462967"><ele></ele><time>2014-4-27T14:18:18Z</time></trkpt>
<trkpt lat="43.818077" lon="5.462840"><ele></ele><time>2014-4-27T14:18:21Z</time></trkpt>
<trkpt lat="43.818275" lon="5.462698"><ele></ele><time>2014-4-27T14:18:24Z</time></trkpt>
<trkpt lat="43.818473" lon="5.462523"><ele></ele><time>2014-4-27T14:18:27Z</time></trkpt>
<trkpt lat="43.818660" lon="5.462348"><ele></ele><time>2014-4-27T14:18:30Z</time></trkpt>
<trkpt lat="43.818863" lon="5.462133"><ele></ele><time>2014-4-27T14:18:33Z</time></trkpt>
<trkpt lat="43.819053" lon="5.461938"><ele></ele><time>2014-4-27T14:18:36Z</time></trkpt>
<trkpt lat="43.819210" lon="5.461773"><ele></ele><time>2014-4-27T14:18:39Z</time></trkpt>
<trkpt lat="43.819378" lon="5.461583"><ele></ele><time>2014-4-27T14:18:42Z</time></trkpt>
<trkpt lat="43.819485" lon="5.461365"><ele></ele><time>2014-4-27T14:18:45Z</time></trkpt>
<trkpt lat="43.819503" lon="5.461038"><ele></ele><time>2014-4-27T14:18:48Z</time></trkpt>
<trkpt lat="43.819515" lon="5.460847"><ele></ele><time>2014-4-27T14:18:51Z</time></trkpt>
<trkpt lat="43.819515" lon="5.460723"><ele></ele><time>2014-4-27T14:18:54Z</time></trkpt>
<trkpt lat="43.819508" lon="5.460608"><ele></ele><time>2014-4-27T14:18:57Z</time></trkpt>
<trkpt lat="43.819508" lon="5.460505"><ele></ele><time>2014-4-27T14:19:0Z</time></trkpt>
<trkpt lat="43.819503" lon="5.460407"><ele></ele><time>2014-4-27T14:19:3Z</time></trkpt>
<trkpt lat="43.819497" lon="5.460305"><ele></ele><time>2014-4-27T14:19:6Z</time></trkpt>
<trkpt lat="43.819497" lon="5.460213"><ele></ele><time>2014-4-27T14:19:9Z</time></trkpt>
<trkpt lat="43.819500" lon="5.460117"><ele></ele><time>2014-4-27T14:19:12Z</time></trkpt>
<trkpt lat="43.819503" lon="5.460025"><ele></ele><time>2014-4-27T14:19:15Z</time></trkpt>
<trkpt lat="43.819508" lon="5.459937"><ele></ele><time>2014-4-27T14:19:18Z</time></trkpt>
<trkpt lat="43.819497" lon="5.459842"><ele></ele><time>2014-4-27T14:19:21Z</time></trkpt>
<trkpt lat="43.819488" lon="5.459743"><ele></ele><time>2014-4-27T14:19:24Z</time></trkpt>
<trkpt lat="43.819503" lon="5.459648"><ele></ele><time>2014-4-27T14:19:27Z</time></trkpt>
<trkpt lat="43.819492" lon="5.459545"><ele></ele><time>2014-4-27T14:19:30Z</time></trkpt>
<trkpt lat="43.819473" lon="5.459438"><ele></ele><time>2014-4-27T14:19:33Z</time></trkpt>
<trkpt lat="43.819447" lon="5.459320"><ele></ele><time>2014-4-27T14:19:36Z</time></trkpt>
<trkpt lat="43.819435" lon="5.459193"><ele></ele><time>2014-4-27T14:19:39Z</time></trkpt>
<trkpt lat="43.819465" lon="5.458998"><ele></ele><time>2014-4-27T14:19:42Z</time></trkpt>
<trkpt lat="43.819485" lon="5.458808"><ele></ele><time>2014-4-27T14:19:45Z</time></trkpt>
<trkpt lat="43.819470" lon="5.458595"><ele></ele><time>2014-4-27T14:19:48Z</time></trkpt>
<trkpt lat="43.819477" lon="5.458347"><ele></ele><time>2014-4-27T14:19:51Z</time></trkpt>
<trkpt lat="43.819512" lon="5.458045"><ele></ele><time>2014-4-27T14:19:54Z</time></trkpt>
<trkpt lat="43.819572" lon="5.457830"><ele></ele><time>2014-4-27T14:19:57Z</time></trkpt>
<trkpt lat="43.819633" lon="5.457612"><ele></ele><time>2014-4-27T14:20:0Z</time></trkpt>
<trkpt lat="43.819687" lon="5.457385"><ele></ele><time>2014-4-27T14:20:3Z</time></trkpt>
<trkpt lat="43.819710" lon="5.457148"><ele></ele><time>2014-4-27T14:20:6Z</time></trkpt>
<trkpt lat="43.819683" lon="5.456913"><ele></ele><time>2014-4-27T14:20:9Z</time></trkpt>
<trkpt lat="43.819663" lon="5.456630"><ele></ele><time>2014-4-27T14:20:12Z</time></trkpt>
<trkpt lat="43.819642" lon="5.456363"><ele></ele><time>2014-4-27T14:20:15Z</time></trkpt>
<trkpt lat="43.819607" lon="5.456083"><ele></ele><time>2014-4-27T14:20:18Z</time></trkpt>
<trkpt lat="43.819562" lon="5.455815"><ele></ele><time>2014-4-27T14:20:21Z</time></trkpt>
<trkpt lat="43.819557" lon="5.455538"><ele></ele><time>2014-4-27T14:20:24Z</time></trkpt>
<trkpt lat="43.819577" lon="5.455273"><ele></ele><time>2014-4-27T14:20:27Z</time></trkpt>
<trkpt lat="43.819595" lon="5.455090"><ele></ele><time>2014-4-27T14:20:30Z</time></trkpt>
<trkpt lat="43.819568" lon="5.454867"><ele></ele><time>2014-4-27T14:20:33Z</time></trkpt>
<trkpt lat="43.819530" lon="5.454610"><ele></ele><time>2014-4-27T14:20:36Z</time></trkpt>
<trkpt lat="43.819488" lon="5.454362"><ele></ele><time>2014-4-27T14:20:39Z</time></trkpt>
<trkpt lat="43.819420" lon="5.454115"><ele></ele><time>2014-4-27T14:20:42Z</time></trkpt>
<trkpt lat="43.819390" lon="5.453995"><ele></ele><time>2014-4-27T14:20:45Z</time></trkpt>
<trkpt lat="43.819390" lon="5.453897"><ele></ele><time>2014-4-27T14:20:48Z</time></trkpt>
<trkpt lat="43.819390" lon="5.453688"><ele></ele><time>2014-4-27T14:20:51Z</time></trkpt>
<trkpt lat="43.819325" lon="5.453423"><ele></ele><time>2014-4-27T14:20:54Z</time></trkpt>
<trkpt lat="43.819213" lon="5.453155"><ele></ele><time>2014-4-27T14:20:57Z</time></trkpt>
<trkpt lat="43.819148" lon="5.452812"><ele></ele><time>2014-4-27T14:21:0Z</time></trkpt>
<trkpt lat="43.819103" lon="5.452433"><ele></ele><time>2014-4-27T14:21:3Z</time></trkpt>
<trkpt lat="43.819100" lon="5.452052"><ele></ele><time>2014-4-27T14:21:6Z</time></trkpt>
<trkpt lat="43.819035" lon="5.451677"><ele></ele><time>2014-4-27T14:21:9Z</time></trkpt>
<trkpt lat="43.818940" lon="5.451295"><ele></ele><time>2014-4-27T14:21:12Z</time></trkpt>
<trkpt lat="43.818802" lon="5.450915"><ele></ele><time>2014-4-27T14:21:15Z</time></trkpt>
<trkpt lat="43.818600" lon="5.450567"><ele></ele><time>2014-4-27T14:21:18Z</time></trkpt>
<trkpt lat="43.818340" lon="5.450257"><ele></ele><time>2014-4-27T14:21:21Z</time></trkpt>
<trkpt lat="43.818165" lon="5.449903"><ele></ele><time>2014-4-27T14:21:24Z</time></trkpt>
<trkpt lat="43.818210" lon="5.449535"><ele></ele><time>2014-4-27T14:21:27Z</time></trkpt>
<trkpt lat="43.818337" lon="5.449202"><ele></ele><time>2014-4-27T14:21:30Z</time></trkpt>
<trkpt lat="43.818443" lon="5.448808"><ele></ele><time>2014-4-27T14:21:33Z</time></trkpt>
<trkpt lat="43.818473" lon="5.448378"><ele></ele><time>2014-4-27T14:21:36Z</time></trkpt>
<trkpt lat="43.818443" lon="5.448028"><ele></ele><time>2014-4-27T14:21:39Z</time></trkpt>
<trkpt lat="43.818370" lon="5.447893"><ele></ele><time>2014-4-27T14:21:42Z</time></trkpt>
<trkpt lat="43.818325" lon="5.447838"><ele></ele><time>2014-4-27T14:21:45Z</time></trkpt>
<trkpt lat="43.818287" lon="5.447757"><ele></ele><time>2014-4-27T14:21:48Z</time></trkpt>
<trkpt lat="43.818253" lon="5.447667"><ele></ele><time>2014-4-27T14:21:51Z</time></trkpt>
<trkpt lat="43.818218" lon="5.447573"><ele></ele><time>2014-4-27T14:21:54Z</time></trkpt>
<trkpt lat="43.818188" lon="5.447473"><ele></ele><time>2014-4-27T14:21:57Z</time></trkpt>
<trkpt lat="43.818168" lon="5.447373"><ele></ele><time>2014-4-27T14:22:0Z</time></trkpt>
<trkpt lat="43.818145" lon="5.447262"><ele></ele><time>2014-4-27T14:22:3Z</time></trkpt>
<trkpt lat="43.818108" lon="5.447145"><ele></ele><time>2014-4-27T14:22:6Z</time></trkpt>
<trkpt lat="43.818062" lon="5.447037"><ele></ele><time>2014-4-27T14:22:9Z</time></trkpt>
<trkpt lat="43.818008" lon="5.446930"><ele></ele><time>2014-4-27T14:22:12Z</time></trkpt>
<trkpt lat="43.817937" lon="5.446837"><ele></ele><time>2014-4-27T14:22:15Z</time></trkpt>
<trkpt lat="43.817845" lon="5.446767"><ele></ele><time>2014-4-27T14:22:18Z</time></trkpt>
<trkpt lat="43.817707" lon="5.446730"><ele></ele><time>2014-4-27T14:22:21Z</time></trkpt>
<trkpt lat="43.817520" lon="5.446732"><ele></ele><time>2014-4-27T14:22:24Z</time></trkpt>
<trkpt lat="43.817337" lon="5.446747"><ele></ele><time>2014-4-27T14:22:27Z</time></trkpt>
<trkpt lat="43.817165" lon="5.446740"><ele></ele><time>2014-4-27T14:22:30Z</time></trkpt>
<trkpt lat="43.817028" lon="5.446735"><ele></ele><time>2014-4-27T14:22:33Z</time></trkpt>
<trkpt lat="43.816890" lon="5.446710"><ele></ele><time>2014-4-27T14:22:36Z</time></trkpt>
<trkpt lat="43.816742" lon="5.446675"><ele></ele><time>2014-4-27T14:22:39Z</time></trkpt>
<trkpt lat="43.816590" lon="5.446607"><ele></ele><time>2014-4-27T14:22:42Z</time></trkpt>
<trkpt lat="43.816510" lon="5.446510"><ele></ele><time>2014-4-27T14:22:45Z</time></trkpt>
<trkpt lat="43.816467" lon="5.446463"><ele></ele><time>2014-4-27T14:22:48Z</time></trkpt>
<trkpt lat="43.816410" lon="5.446407"><ele></ele><time>2014-4-27T14:22:51Z</time></trkpt>
<trkpt lat="43.816338" lon="5.446297"><ele></ele><time>2014-4-27T14:22:54Z</time></trkpt>
<trkpt lat="43.816277" lon="5.446192"><ele></ele><time>2014-4-27T14:22:57Z</time></trkpt>
<trkpt lat="43.816215" lon="5.446082"><ele></ele><time>2014-4-27T14:23:0Z</time></trkpt>
<trkpt lat="43.816173" lon="5.445970"><ele></ele><time>2014-4-27T14:23:3Z</time></trkpt>
<trkpt lat="43.816105" lon="5.445838"><ele></ele><time>2014-4-27T14:23:6Z</time></trkpt>
<trkpt lat="43.816078" lon="5.445653"><ele></ele><time>2014-4-27T14:23:9Z</time></trkpt>
<trkpt lat="43.816097" lon="5.445457"><ele></ele><time>2014-4-27T14:23:12Z</time></trkpt>
<trkpt lat="43.816150" lon="5.445265"><ele></ele><time>2014-4-27T14:23:15Z</time></trkpt>
<trkpt lat="43.816185" lon="5.445067"><ele></ele><time>2014-4-27T14:23:18Z</time></trkpt>
<trkpt lat="43.816223" lon="5.444872"><ele></ele><time>2014-4-27T14:23:21Z</time></trkpt>
<trkpt lat="43.816250" lon="5.444773"><ele></ele><time>2014-4-27T14:23:24Z</time></trkpt>
<trkpt lat="43.816277" lon="5.444687"><ele></ele><time>2014-4-27T14:23:27Z</time></trkpt>
<trkpt lat="43.816303" lon="5.444567"><ele></ele><time>2014-4-27T14:23:30Z</time></trkpt>
<trkpt lat="43.816315" lon="5.444437"><ele></ele><time>2014-4-27T14:23:33Z</time></trkpt>
<trkpt lat="43.816280" lon="5.444317"><ele></ele><time>2014-4-27T14:23:36Z</time></trkpt>
<trkpt lat="43.816235" lon="5.444220"><ele></ele><time>2014-4-27T14:23:39Z</time></trkpt>
<trkpt lat="43.816177" lon="5.444088"><ele></ele><time>2014-4-27T14:23:42Z</time></trkpt>
<trkpt lat="43.816117" lon="5.443953"><ele></ele><time>2014-4-27T14:23:45Z</time></trkpt>
<trkpt lat="43.816048" lon="5.443828"><ele></ele><time>2014-4-27T14:23:48Z</time></trkpt>
<trkpt lat="43.815975" lon="5.443662"><ele></ele><time>2014-4-27T14:23:51Z</time></trkpt>
<trkpt lat="43.815933" lon="5.443512"><ele></ele><time>2014-4-27T14:23:54Z</time></trkpt>
<trkpt lat="43.815892" lon="5.443355"><ele></ele><time>2014-4-27T14:23:57Z</time></trkpt>
<trkpt lat="43.815853" lon="5.443168"><ele></ele><time>2014-4-27T14:24:0Z</time></trkpt>
<trkpt lat="43.815827" lon="5.442970"><ele></ele><time>2014-4-27T14:24:3Z</time></trkpt>
<trkpt lat="43.815807" lon="5.442748"><ele></ele><time>2014-4-27T14:24:6Z</time></trkpt>
<trkpt lat="43.815800" lon="5.442488"><ele></ele><time>2014-4-27T14:24:9Z</time></trkpt>
<trkpt lat="43.815803" lon="5.442217"><ele></ele><time>2014-4-27T14:24:12Z</time></trkpt>
<trkpt lat="43.815753" lon="5.442018"><ele></ele><time>2014-4-27T14:24:15Z</time></trkpt>
<trkpt lat="43.815643" lon="5.441867"><ele></ele><time>2014-4-27T14:24:18Z</time></trkpt>
<trkpt lat="43.815560" lon="5.441757"><ele></ele><time>2014-4-27T14:24:21Z</time></trkpt>
<trkpt lat="43.815480" lon="5.441612"><ele></ele><time>2014-4-27T14:24:24Z</time></trkpt>
<trkpt lat="43.815392" lon="5.441537"><ele></ele><time>2014-4-27T14:24:27Z</time></trkpt>
<trkpt lat="43.815345" lon="5.441433"><ele></ele><time>2014-4-27T14:24:30Z</time></trkpt>
<trkpt lat="43.815315" lon="5.441357"><ele></ele><time>2014-4-27T14:24:33Z</time></trkpt>
<trkpt lat="43.815277" lon="5.441293"><ele></ele><time>2014-4-27T14:24:36Z</time></trkpt>
<trkpt lat="43.815235" lon="5.441227"><ele></ele><time>2014-4-27T14:24:39Z</time></trkpt>
<trkpt lat="43.815193" lon="5.441158"><ele></ele><time>2014-4-27T14:24:42Z</time></trkpt>
<trkpt lat="43.815140" lon="5.441108"><ele></ele><time>2014-4-27T14:24:45Z</time></trkpt>
<trkpt lat="43.815067" lon="5.441087"><ele></ele><time>2014-4-27T14:24:48Z</time></trkpt>
<trkpt lat="43.814998" lon="5.441062"><ele></ele><time>2014-4-27T14:24:51Z</time></trkpt>
<trkpt lat="43.814918" lon="5.441057"><ele></ele><time>2014-4-27T14:24:54Z</time></trkpt>
<trkpt lat="43.814815" lon="5.441077"><ele></ele><time>2014-4-27T14:24:57Z</time></trkpt>
<trkpt lat="43.814713" lon="5.441058"><ele></ele><time>2014-4-27T14:25:0Z</time></trkpt>
<trkpt lat="43.814590" lon="5.441065"><ele></ele><time>2014-4-27T14:25:3Z</time></trkpt>
<trkpt lat="43.814487" lon="5.441062"><ele></ele><time>2014-4-27T14:25:6Z</time></trkpt>
<trkpt lat="43.814358" lon="5.441088"><ele></ele><time>2014-4-27T14:25:9Z</time></trkpt>
<trkpt lat="43.814225" lon="5.441125"><ele></ele><time>2014-4-27T14:25:12Z</time></trkpt>
<trkpt lat="43.814063" lon="5.441142"><ele></ele><time>2014-4-27T14:25:15Z</time></trkpt>
<trkpt lat="43.813972" lon="5.441173"><ele></ele><time>2014-4-27T14:25:18Z</time></trkpt>
<trkpt lat="43.813847" lon="5.441187"><ele></ele><time>2014-4-27T14:25:21Z</time></trkpt>
<trkpt lat="43.813710" lon="5.441187"><ele></ele><time>2014-4-27T14:25:24Z</time></trkpt>
<trkpt lat="43.813575" lon="5.441190"><ele></ele><time>2014-4-27T14:25:27Z</time></trkpt>
<trkpt lat="43.813412" lon="5.441127"><ele></ele><time>2014-4-27T14:25:30Z</time></trkpt>
<trkpt lat="43.813217" lon="5.440998"><ele></ele><time>2014-4-27T14:25:33Z</time></trkpt>
<trkpt lat="43.813053" lon="5.440760"><ele></ele><time>2014-4-27T14:25:36Z</time></trkpt>
<trkpt lat="43.812920" lon="5.440523"><ele></ele><time>2014-4-27T14:25:39Z</time></trkpt>
<trkpt lat="43.812882" lon="5.440457"><ele></ele><time>2014-4-27T14:25:42Z</time></trkpt>
<trkpt lat="43.812825" lon="5.440422"><ele></ele><time>2014-4-27T14:25:45Z</time></trkpt>
<trkpt lat="43.812772" lon="5.440347"><ele></ele><time>2014-4-27T14:25:48Z</time></trkpt>
<trkpt lat="43.812713" lon="5.440245"><ele></ele><time>2014-4-27T14:25:51Z</time></trkpt>
<trkpt lat="43.812672" lon="5.440147"><ele></ele><time>2014-4-27T14:25:54Z</time></trkpt>
<trkpt lat="43.812600" lon="5.440053"><ele></ele><time>2014-4-27T14:25:57Z</time></trkpt>
<trkpt lat="43.812485" lon="5.439998"><ele></ele><time>2014-4-27T14:26:0Z</time></trkpt>
<trkpt lat="43.812370" lon="5.439963"><ele></ele><time>2014-4-27T14:26:3Z</time></trkpt>
<trkpt lat="43.812248" lon="5.439963"><ele></ele><time>2014-4-27T14:26:6Z</time></trkpt>
<trkpt lat="43.812142" lon="5.439968"><ele></ele><time>2014-4-27T14:26:9Z</time></trkpt>
<trkpt lat="43.812027" lon="5.439952"><ele></ele><time>2014-4-27T14:26:12Z</time></trkpt>
<trkpt lat="43.811943" lon="5.439938"><ele></ele><time>2014-4-27T14:26:15Z</time></trkpt>
<trkpt lat="43.811852" lon="5.439928"><ele></ele><time>2014-4-27T14:26:18Z</time></trkpt>
<trkpt lat="43.811760" lon="5.439915"><ele></ele><time>2014-4-27T14:26:21Z</time></trkpt>
<trkpt lat="43.811668" lon="5.439882"><ele></ele><time>2014-4-27T14:26:24Z</time></trkpt>
<trkpt lat="43.811573" lon="5.439867"><ele></ele><time>2014-4-27T14:26:27Z</time></trkpt>
<trkpt lat="43.811485" lon="5.439837"><ele></ele><time>2014-4-27T14:26:30Z</time></trkpt>
<trkpt lat="43.811398" lon="5.439812"><ele></ele><time>2014-4-27T14:26:33Z</time></trkpt>
<trkpt lat="43.811313" lon="5.439748"><ele></ele><time>2014-4-27T14:26:36Z</time></trkpt>
<trkpt lat="43.811210" lon="5.439677"><ele></ele><time>2014-4-27T14:26:39Z</time></trkpt>
<trkpt lat="43.811118" lon="5.439577"><ele></ele><time>2014-4-27T14:26:42Z</time></trkpt>
<trkpt lat="43.811032" lon="5.439497"><ele></ele><time>2014-4-27T14:26:45Z</time></trkpt>
<trkpt lat="43.810952" lon="5.439420"><ele></ele><time>2014-4-27T14:26:48Z</time></trkpt>
<trkpt lat="43.810872" lon="5.439332"><ele></ele><time>2014-4-27T14:26:51Z</time></trkpt>
<trkpt lat="43.810792" lon="5.439250"><ele></ele><time>2014-4-27T14:26:54Z</time></trkpt>
<trkpt lat="43.810707" lon="5.439158"><ele></ele><time>2014-4-27T14:26:57Z</time></trkpt>
<trkpt lat="43.810627" lon="5.439072"><ele></ele><time>2014-4-27T14:27:0Z</time></trkpt>
<trkpt lat="43.810535" lon="5.438965"><ele></ele><time>2014-4-27T14:27:3Z</time></trkpt>
<trkpt lat="43.810448" lon="5.438820"><ele></ele><time>2014-4-27T14:27:6Z</time></trkpt>
<trkpt lat="43.810425" lon="5.438617"><ele></ele><time>2014-4-27T14:27:9Z</time></trkpt>
<trkpt lat="43.810513" lon="5.438435"><ele></ele><time>2014-4-27T14:27:12Z</time></trkpt>
<trkpt lat="43.810692" lon="5.438293"><ele></ele><time>2014-4-27T14:27:15Z</time></trkpt>
<trkpt lat="43.810893" lon="5.438165"><ele></ele><time>2014-4-27T14:27:18Z</time></trkpt>
<trkpt lat="43.811073" lon="5.438020"><ele></ele><time>2014-4-27T14:27:21Z</time></trkpt>
<trkpt lat="43.811245" lon="5.437858"><ele></ele><time>2014-4-27T14:27:24Z</time></trkpt>
<trkpt lat="43.811420" lon="5.437715"><ele></ele><time>2014-4-27T14:27:27Z</time></trkpt>
<trkpt lat="43.811612" lon="5.437558"><ele></ele><time>2014-4-27T14:27:30Z</time></trkpt>
<trkpt lat="43.811730" lon="5.437195"><ele></ele><time>2014-4-27T14:27:33Z</time></trkpt>
<trkpt lat="43.811645" lon="5.436730"><ele></ele><time>2014-4-27T14:27:36Z</time></trkpt>
<trkpt lat="43.811458" lon="5.436265"><ele></ele><time>2014-4-27T14:27:39Z</time></trkpt>
<trkpt lat="43.811195" lon="5.435850"><ele></ele><time>2014-4-27T14:27:42Z</time></trkpt>
<trkpt lat="43.810943" lon="5.435480"><ele></ele><time>2014-4-27T14:27:45Z</time></trkpt>
<trkpt lat="43.810810" lon="5.435227"><ele></ele><time>2014-4-27T14:27:48Z</time></trkpt>
<trkpt lat="43.810695" lon="5.434992"><ele></ele><time>2014-4-27T14:27:51Z</time></trkpt>
<trkpt lat="43.810478" lon="5.434705"><ele></ele><time>2014-4-27T14:27:54Z</time></trkpt>
<trkpt lat="43.810295" lon="5.434333"><ele></ele><time>2014-4-27T14:27:57Z</time></trkpt>
<trkpt lat="43.810295" lon="5.433928"><ele></ele><time>2014-4-27T14:28:0Z</time></trkpt>
<trkpt lat="43.810287" lon="5.433557"><ele></ele><time>2014-4-27T14:28:3Z</time></trkpt>
<trkpt lat="43.810280" lon="5.433203"><ele></ele><time>2014-4-27T14:28:6Z</time></trkpt>
<trkpt lat="43.810292" lon="5.432840"><ele></ele><time>2014-4-27T14:28:9Z</time></trkpt>
<trkpt lat="43.810310" lon="5.432472"><ele></ele><time>2014-4-27T14:28:12Z</time></trkpt>
<trkpt lat="43.810292" lon="5.432082"><ele></ele><time>2014-4-27T14:28:15Z</time></trkpt>
<trkpt lat="43.810265" lon="5.431667"><ele></ele><time>2014-4-27T14:28:18Z</time></trkpt>
<trkpt lat="43.810398" lon="5.431238"><ele></ele><time>2014-4-27T14:28:21Z</time></trkpt>
<trkpt lat="43.810608" lon="5.431000"><ele></ele><time>2014-4-27T14:28:24Z</time></trkpt>
<trkpt lat="43.810802" lon="5.430918"><ele></ele><time>2014-4-27T14:28:27Z</time></trkpt>
<trkpt lat="43.811012" lon="5.430760"><ele></ele><time>2014-4-27T14:28:30Z</time></trkpt>
<trkpt lat="43.811195" lon="5.430478"><ele></ele><time>2014-4-27T14:28:33Z</time></trkpt>
<trkpt lat="43.811313" lon="5.430105"><ele></ele><time>2014-4-27T14:28:36Z</time></trkpt>
<trkpt lat="43.811417" lon="5.429725"><ele></ele><time>2014-4-27T14:28:39Z</time></trkpt>
<trkpt lat="43.811553" lon="5.429402"><ele></ele><time>2014-4-27T14:28:42Z</time></trkpt>
<trkpt lat="43.811768" lon="5.429140"><ele></ele><time>2014-4-27T14:28:45Z</time></trkpt>
<trkpt lat="43.812015" lon="5.428958"><ele></ele><time>2014-4-27T14:28:48Z</time></trkpt>
<trkpt lat="43.812293" lon="5.428845"><ele></ele><time>2014-4-27T14:28:51Z</time></trkpt>
<trkpt lat="43.812577" lon="5.428753"><ele></ele><time>2014-4-27T14:28:54Z</time></trkpt>
<trkpt lat="43.812855" lon="5.428632"><ele></ele><time>2014-4-27T14:28:57Z</time></trkpt>
<trkpt lat="43.813122" lon="5.428418"><ele></ele><time>2014-4-27T14:29:0Z</time></trkpt>
<trkpt lat="43.813367" lon="5.428158"><ele></ele><time>2014-4-27T14:29:3Z</time></trkpt>
<trkpt lat="43.813533" lon="5.427808"><ele></ele><time>2014-4-27T14:29:6Z</time></trkpt>
<trkpt lat="43.813660" lon="5.427443"><ele></ele><time>2014-4-27T14:29:9Z</time></trkpt>
<trkpt lat="43.813725" lon="5.427062"><ele></ele><time>2014-4-27T14:29:12Z</time></trkpt>
<trkpt lat="43.813763" lon="5.426668"><ele></ele><time>2014-4-27T14:29:15Z</time></trkpt>
<trkpt lat="43.813743" lon="5.426247"><ele></ele><time>2014-4-27T14:29:18Z</time></trkpt>
<trkpt lat="43.813583" lon="5.425892"><ele></ele><time>2014-4-27T14:29:21Z</time></trkpt>
<trkpt lat="43.813397" lon="5.425545"><ele></ele><time>2014-4-27T14:29:24Z</time></trkpt>
<trkpt lat="43.813275" lon="5.425128"><ele></ele><time>2014-4-27T14:29:27Z</time></trkpt>
<trkpt lat="43.813350" lon="5.424672"><ele></ele><time>2014-4-27T14:29:30Z</time></trkpt>
<trkpt lat="43.813507" lon="5.424277"><ele></ele><time>2014-4-27T14:29:33Z</time></trkpt>
<trkpt lat="43.813672" lon="5.423912"><ele></ele><time>2014-4-27T14:29:36Z</time></trkpt>
<trkpt lat="43.813770" lon="5.423502"><ele></ele><time>2014-4-27T14:29:39Z</time></trkpt>
<trkpt lat="43.813705" lon="5.423067"><ele></ele><time>2014-4-27T14:29:42Z</time></trkpt>
<trkpt lat="43.813515" lon="5.422672"><ele></ele><time>2014-4-27T14:29:45Z</time></trkpt>
<trkpt lat="43.813385" lon="5.422208"><ele></ele><time>2014-4-27T14:29:48Z</time></trkpt>
<trkpt lat="43.813317" lon="5.421735"><ele></ele><time>2014-4-27T14:29:51Z</time></trkpt>
<trkpt lat="43.813278" lon="5.421285"><ele></ele><time>2014-4-27T14:29:54Z</time></trkpt>
<trkpt lat="43.813198" lon="5.420835"><ele></ele><time>2014-4-27T14:29:57Z</time></trkpt>
<trkpt lat="43.813152" lon="5.420427"><ele></ele><time>2014-4-27T14:30:0Z</time></trkpt>
<trkpt lat="43.813107" lon="5.420017"><ele></ele><time>2014-4-27T14:30:3Z</time></trkpt>
<trkpt lat="43.813045" lon="5.419587"><ele></ele><time>2014-4-27T14:30:6Z</time></trkpt>
<trkpt lat="43.812915" lon="5.419243"><ele></ele><time>2014-4-27T14:30:9Z</time></trkpt>
<trkpt lat="43.812763" lon="5.418975"><ele></ele><time>2014-4-27T14:30:12Z</time></trkpt>
<trkpt lat="43.812642" lon="5.418725"><ele></ele><time>2014-4-27T14:30:15Z</time></trkpt>
<trkpt lat="43.812550" lon="5.418410"><ele></ele><time>2014-4-27T14:30:18Z</time></trkpt>
<trkpt lat="43.812545" lon="5.418033"><ele></ele><time>2014-4-27T14:30:21Z</time></trkpt>
<trkpt lat="43.812642" lon="5.417673"><ele></ele><time>2014-4-27T14:30:24Z</time></trkpt>
<trkpt lat="43.812740" lon="5.417357"><ele></ele><time>2014-4-27T14:30:27Z</time></trkpt>
<trkpt lat="43.812793" lon="5.416992"><ele></ele><time>2014-4-27T14:30:30Z</time></trkpt>
<trkpt lat="43.812813" lon="5.416550"><ele></ele><time>2014-4-27T14:30:33Z</time></trkpt>
<trkpt lat="43.812825" lon="5.416098"><ele></ele><time>2014-4-27T14:30:36Z</time></trkpt>
<trkpt lat="43.812775" lon="5.415910"><ele></ele><time>2014-4-27T14:30:39Z</time></trkpt>
<trkpt lat="43.812672" lon="5.415862"><ele></ele><time>2014-4-27T14:30:42Z</time></trkpt>
<trkpt lat="43.812523" lon="5.415678"><ele></ele><time>2014-4-27T14:30:45Z</time></trkpt>
<trkpt lat="43.812400" lon="5.415418"><ele></ele><time>2014-4-27T14:30:48Z</time></trkpt>
<trkpt lat="43.812290" lon="5.415092"><ele></ele><time>2014-4-27T14:30:51Z</time></trkpt>
<trkpt lat="43.812145" lon="5.414762"><ele></ele><time>2014-4-27T14:30:54Z</time></trkpt>
<trkpt lat="43.811977" lon="5.414535"><ele></ele><time>2014-4-27T14:30:57Z</time></trkpt>
<trkpt lat="43.811802" lon="5.414338"><ele></ele><time>2014-4-27T14:31:0Z</time></trkpt>
<trkpt lat="43.811618" lon="5.414103"><ele></ele><time>2014-4-27T14:31:3Z</time></trkpt>
<trkpt lat="43.811547" lon="5.413748"><ele></ele><time>2014-4-27T14:31:6Z</time></trkpt>
<trkpt lat="43.811588" lon="5.413370"><ele></ele><time>2014-4-27T14:31:9Z</time></trkpt>
<trkpt lat="43.811600" lon="5.413002"><ele></ele><time>2014-4-27T14:31:12Z</time></trkpt>
<trkpt lat="43.811520" lon="5.412653"><ele></ele><time>2014-4-27T14:31:15Z</time></trkpt>
<trkpt lat="43.811447" lon="5.412327"><ele></ele><time>2014-4-27T14:31:18Z</time></trkpt>
<trkpt lat="43.811263" lon="5.412073"><ele></ele><time>2014-4-27T14:31:21Z</time></trkpt>
<trkpt lat="43.811005" lon="5.411842"><ele></ele><time>2014-4-27T14:31:24Z</time></trkpt>
<trkpt lat="43.810792" lon="5.411610"><ele></ele><time>2014-4-27T14:31:27Z</time></trkpt>
<trkpt lat="43.810665" lon="5.411493"><ele></ele><time>2014-4-27T14:31:30Z</time></trkpt>
<trkpt lat="43.810585" lon="5.411405"><ele></ele><time>2014-4-27T14:31:33Z</time></trkpt>
<trkpt lat="43.810540" lon="5.411320"><ele></ele><time>2014-4-27T14:31:36Z</time></trkpt>
<trkpt lat="43.810487" lon="5.411245"><ele></ele><time>2014-4-27T14:31:39Z</time></trkpt>
<trkpt lat="43.810440" lon="5.411158"><ele></ele><time>2014-4-27T14:31:42Z</time></trkpt>
<trkpt lat="43.810413" lon="5.411055"><ele></ele><time>2014-4-27T14:31:45Z</time></trkpt>
<trkpt lat="43.810383" lon="5.410945"><ele></ele><time>2014-4-27T14:31:48Z</time></trkpt>
<trkpt lat="43.810342" lon="5.410853"><ele></ele><time>2014-4-27T14:31:51Z</time></trkpt>
<trkpt lat="43.810287" lon="5.410772"><ele></ele><time>2014-4-27T14:31:54Z</time></trkpt>
<trkpt lat="43.810230" lon="5.410700"><ele></ele><time>2014-4-27T14:31:57Z</time></trkpt>
<trkpt lat="43.810197" lon="5.410610"><ele></ele><time>2014-4-27T14:32:0Z</time></trkpt>
<trkpt lat="43.810153" lon="5.410522"><ele></ele><time>2014-4-27T14:32:3Z</time></trkpt>
<trkpt lat="43.810112" lon="5.410427"><ele></ele><time>2014-4-27T14:32:6Z</time></trkpt>
<trkpt lat="43.810082" lon="5.410342"><ele></ele><time>2014-4-27T14:32:9Z</time></trkpt>
<trkpt lat="43.810055" lon="5.410258"><ele></ele><time>2014-4-27T14:32:12Z</time></trkpt>
<trkpt lat="43.810020" lon="5.410162"><ele></ele><time>2014-4-27T14:32:15Z</time></trkpt>
<trkpt lat="43.809993" lon="5.410068"><ele></ele><time>2014-4-27T14:32:18Z</time></trkpt>
<trkpt lat="43.809963" lon="5.409972"><ele></ele><time>2014-4-27T14:32:21Z</time></trkpt>
<trkpt lat="43.809925" lon="5.409877"><ele></ele><time>2014-4-27T14:32:24Z</time></trkpt>
<trkpt lat="43.809887" lon="5.409783"><ele></ele><time>2014-4-27T14:32:27Z</time></trkpt>
<trkpt lat="43.809833" lon="5.409693"><ele></ele><time>2014-4-27T14:32:30Z</time></trkpt>
<trkpt lat="43.809780" lon="5.409603"><ele></ele><time>2014-4-27T14:32:33Z</time></trkpt>
<trkpt lat="43.809715" lon="5.409518"><ele></ele><time>2014-4-27T14:32:36Z</time></trkpt>
<trkpt lat="43.809638" lon="5.409443"><ele></ele><time>2014-4-27T14:32:39Z</time></trkpt>
<trkpt lat="43.809582" lon="5.409343"><ele></ele><time>2014-4-27T14:32:42Z</time></trkpt>
<trkpt lat="43.809528" lon="5.409227"><ele></ele><time>2014-4-27T14:32:45Z</time></trkpt>
<trkpt lat="43.809502" lon="5.409098"><ele></ele><time>2014-4-27T14:32:48Z</time></trkpt>
<trkpt lat="43.809498" lon="5.408965"><ele></ele><time>2014-4-27T14:32:51Z</time></trkpt>
<trkpt lat="43.809520" lon="5.408838"><ele></ele><time>2014-4-27T14:32:54Z</time></trkpt>
<trkpt lat="43.809547" lon="5.408722"><ele></ele><time>2014-4-27T14:32:57Z</time></trkpt>
<trkpt lat="43.809597" lon="5.408603"><ele></ele><time>2014-4-27T14:33:0Z</time></trkpt>
<trkpt lat="43.809658" lon="5.408478"><ele></ele><time>2014-4-27T14:33:3Z</time></trkpt>
<trkpt lat="43.809727" lon="5.408357"><ele></ele><time>2014-4-27T14:33:6Z</time></trkpt>
<trkpt lat="43.809792" lon="5.408238"><ele></ele><time>2014-4-27T14:33:9Z</time></trkpt>
<trkpt lat="43.809863" lon="5.408135"><ele></ele><time>2014-4-27T14:33:12Z</time></trkpt>
<trkpt lat="43.809928" lon="5.408005"><ele></ele><time>2014-4-27T14:33:15Z</time></trkpt>
<trkpt lat="43.809982" lon="5.407875"><ele></ele><time>2014-4-27T14:33:18Z</time></trkpt>
<trkpt lat="43.810032" lon="5.407727"><ele></ele><time>2014-4-27T14:33:21Z</time></trkpt>
<trkpt lat="43.810097" lon="5.407572"><ele></ele><time>2014-4-27T14:33:24Z</time></trkpt>
<trkpt lat="43.810162" lon="5.407397"><ele></ele><time>2014-4-27T14:33:27Z</time></trkpt>
<trkpt lat="43.810223" lon="5.407207"><ele></ele><time>2014-4-27T14:33:30Z</time></trkpt>
<trkpt lat="43.810272" lon="5.406985"><ele></ele><time>2014-4-27T14:33:33Z</time></trkpt>
<trkpt lat="43.810307" lon="5.406737"><ele></ele><time>2014-4-27T14:33:36Z</time></trkpt>
<trkpt lat="43.810330" lon="5.406468"><ele></ele><time>2014-4-27T14:33:39Z</time></trkpt>
<trkpt lat="43.810322" lon="5.406223"><ele></ele><time>2014-4-27T14:33:42Z</time></trkpt>
<trkpt lat="43.810298" lon="5.406037"><ele></ele><time>2014-4-27T14:33:45Z</time></trkpt>
<trkpt lat="43.810212" lon="5.405938"><ele></ele><time>2014-4-27T14:33:48Z</time></trkpt>
<trkpt lat="43.810143" lon="5.405862"><ele></ele><time>2014-4-27T14:33:51Z</time></trkpt>
<trkpt lat="43.810093" lon="5.405782"><ele></ele><time>2014-4-27T14:33:54Z</time></trkpt>
<trkpt lat="43.810040" lon="5.405705"><ele></ele><time>2014-4-27T14:33:57Z</time></trkpt>
<trkpt lat="43.809975" lon="5.405642"><ele></ele><time>2014-4-27T14:34:0Z</time></trkpt>
<trkpt lat="43.809887" lon="5.405603"><ele></ele><time>2014-4-27T14:34:3Z</time></trkpt>
<trkpt lat="43.809788" lon="5.405555"><ele></ele><time>2014-4-27T14:34:6Z</time></trkpt>
<trkpt lat="43.809673" lon="5.405500"><ele></ele><time>2014-4-27T14:34:9Z</time></trkpt>
<trkpt lat="43.809525" lon="5.405457"><ele></ele><time>2014-4-27T14:34:12Z</time></trkpt>
<trkpt lat="43.809345" lon="5.405443"><ele></ele><time>2014-4-27T14:34:15Z</time></trkpt>
<trkpt lat="43.809150" lon="5.405468"><ele></ele><time>2014-4-27T14:34:18Z</time></trkpt>
<trkpt lat="43.808963" lon="5.405503"><ele></ele><time>2014-4-27T14:34:21Z</time></trkpt>
<trkpt lat="43.808758" lon="5.405515"><ele></ele><time>2014-4-27T14:34:24Z</time></trkpt>
<trkpt lat="43.808548" lon="5.405422"><ele></ele><time>2014-4-27T14:34:27Z</time></trkpt>
<trkpt lat="43.808388" lon="5.405188"><ele></ele><time>2014-4-27T14:34:30Z</time></trkpt>
<trkpt lat="43.808258" lon="5.404855"><ele></ele><time>2014-4-27T14:34:33Z</time></trkpt>
<trkpt lat="43.808102" lon="5.404552"><ele></ele><time>2014-4-27T14:34:36Z</time></trkpt>
<trkpt lat="43.807960" lon="5.404325"><ele></ele><time>2014-4-27T14:34:39Z</time></trkpt>
<trkpt lat="43.807873" lon="5.404062"><ele></ele><time>2014-4-27T14:34:42Z</time></trkpt>
<trkpt lat="43.807888" lon="5.403752"><ele></ele><time>2014-4-27T14:34:45Z</time></trkpt>
<trkpt lat="43.807922" lon="5.403445"><ele></ele><time>2014-4-27T14:34:48Z</time></trkpt>
<trkpt lat="43.807960" lon="5.403135"><ele></ele><time>2014-4-27T14:34:51Z</time></trkpt>
<trkpt lat="43.807995" lon="5.402822"><ele></ele><time>2014-4-27T14:34:54Z</time></trkpt>
<trkpt lat="43.807912" lon="5.402565"><ele></ele><time>2014-4-27T14:34:57Z</time></trkpt>
<trkpt lat="43.807705" lon="5.402388"><ele></ele><time>2014-4-27T14:35:0Z</time></trkpt>
<trkpt lat="43.807483" lon="5.402175"><ele></ele><time>2014-4-27T14:35:3Z</time></trkpt>
<trkpt lat="43.807415" lon="5.401842"><ele></ele><time>2014-4-27T14:35:6Z</time></trkpt>
<trkpt lat="43.807347" lon="5.401572"><ele></ele><time>2014-4-27T14:35:9Z</time></trkpt>
<trkpt lat="43.807285" lon="5.401357"><ele></ele><time>2014-4-27T14:35:12Z</time></trkpt>
<trkpt lat="43.807282" lon="5.401183"><ele></ele><time>2014-4-27T14:35:15Z</time></trkpt>
<trkpt lat="43.807273" lon="5.401060"><ele></ele><time>2014-4-27T14:35:18Z</time></trkpt>
<trkpt lat="43.807273" lon="5.400955"><ele></ele><time>2014-4-27T14:35:21Z</time></trkpt>
<trkpt lat="43.807270" lon="5.400848"><ele></ele><time>2014-4-27T14:35:24Z</time></trkpt>
<trkpt lat="43.807267" lon="5.400743"><ele></ele><time>2014-4-27T14:35:27Z</time></trkpt>
<trkpt lat="43.807258" lon="5.400635"><ele></ele><time>2014-4-27T14:35:30Z</time></trkpt>
<trkpt lat="43.807252" lon="5.400538"><ele></ele><time>2014-4-27T14:35:33Z</time></trkpt>
<trkpt lat="43.807255" lon="5.400465"><ele></ele><time>2014-4-27T14:35:36Z</time></trkpt>
<trkpt lat="43.807252" lon="5.400390"><ele></ele><time>2014-4-27T14:35:39Z</time></trkpt>
<trkpt lat="43.807217" lon="5.400327"><ele></ele><time>2014-4-27T14:35:42Z</time></trkpt>
<trkpt lat="43.807208" lon="5.400248"><ele></ele><time>2014-4-27T14:35:45Z</time></trkpt>
<trkpt lat="43.807205" lon="5.400173"><ele></ele><time>2014-4-27T14:35:48Z</time></trkpt>
<trkpt lat="43.807202" lon="5.400098"><ele></ele><time>2014-4-27T14:35:51Z</time></trkpt>
<trkpt lat="43.807208" lon="5.400033"><ele></ele><time>2014-4-27T14:35:54Z</time></trkpt>
<trkpt lat="43.807208" lon="5.399965"><ele></ele><time>2014-4-27T14:35:57Z</time></trkpt>
<trkpt lat="43.807205" lon="5.399892"><ele></ele><time>2014-4-27T14:36:0Z</time></trkpt>
<trkpt lat="43.807213" lon="5.399828"><ele></ele><time>2014-4-27T14:36:3Z</time></trkpt>
<trkpt lat="43.807217" lon="5.399757"><ele></ele><time>2014-4-27T14:36:6Z</time></trkpt>
<trkpt lat="43.807202" lon="5.399687"><ele></ele><time>2014-4-27T14:36:9Z</time></trkpt>
<trkpt lat="43.807202" lon="5.399613"><ele></ele><time>2014-4-27T14:36:12Z</time></trkpt>
<trkpt lat="43.807205" lon="5.399537"><ele></ele><time>2014-4-27T14:36:15Z</time></trkpt>
<trkpt lat="43.807208" lon="5.399460"><ele></ele><time>2014-4-27T14:36:18Z</time></trkpt>
<trkpt lat="43.807202" lon="5.399385"><ele></ele><time>2014-4-27T14:36:21Z</time></trkpt>
<trkpt lat="43.807213" lon="5.399317"><ele></ele><time>2014-4-27T14:36:24Z</time></trkpt>
<trkpt lat="43.807252" lon="5.399275"><ele></ele><time>2014-4-27T14:36:27Z</time></trkpt>
<trkpt lat="43.807282" lon="5.399217"><ele></ele><time>2014-4-27T14:36:30Z</time></trkpt>
<trkpt lat="43.807305" lon="5.399152"><ele></ele><time>2014-4-27T14:36:33Z</time></trkpt>
<trkpt lat="43.807320" lon="5.399083"><ele></ele><time>2014-4-27T14:36:36Z</time></trkpt>
<trkpt lat="43.807327" lon="5.399012"><ele></ele><time>2014-4-27T14:36:39Z</time></trkpt>
<trkpt lat="43.807365" lon="5.398963"><ele></ele><time>2014-4-27T14:36:42Z</time></trkpt>
<trkpt lat="43.807415" lon="5.398930"><ele></ele><time>2014-4-27T14:36:45Z</time></trkpt>
<trkpt lat="43.807460" lon="5.398922"><ele></ele><time>2014-4-27T14:36:48Z</time></trkpt>
<trkpt lat="43.807510" lon="5.398925"><ele></ele><time>2014-4-27T14:36:51Z</time></trkpt>
<trkpt lat="43.807552" lon="5.398912"><ele></ele><time>2014-4-27T14:36:54Z</time></trkpt>
<trkpt lat="43.807575" lon="5.398922"><ele></ele><time>2014-4-27T14:36:57Z</time></trkpt>
<trkpt lat="43.807572" lon="5.398922"><ele></ele><time>2014-4-27T14:37:0Z</time></trkpt>
<trkpt lat="43.807572" lon="5.398922"><ele></ele><time>2014-4-27T14:37:3Z</time></trkpt>
<trkpt lat="43.807568" lon="5.398917"><ele></ele><time>2014-4-27T14:37:6Z</time></trkpt>
<trkpt lat="43.807568" lon="5.398920"><ele></ele><time>2014-4-27T14:37:9Z</time></trkpt>
<trkpt lat="43.807563" lon="5.398918"><ele></ele><time>2014-4-27T14:37:12Z</time></trkpt>
<trkpt lat="43.807548" lon="5.398915"><ele></ele><time>2014-4-27T14:37:15Z</time></trkpt>
<trkpt lat="43.807548" lon="5.398918"><ele></ele><time>2014-4-27T14:37:18Z</time></trkpt>
<trkpt lat="43.807545" lon="5.398927"><ele></ele><time>2014-4-27T14:37:21Z</time></trkpt>
<trkpt lat="43.807545" lon="5.398925"><ele></ele><time>2014-4-27T14:37:24Z</time></trkpt>
<trkpt lat="43.807545" lon="5.398922"><ele></ele><time>2014-4-27T14:37:27Z</time></trkpt>
<trkpt lat="43.807545" lon="5.398915"><ele></ele><time>2014-4-27T14:37:30Z</time></trkpt>
<trkpt lat="43.807545" lon="5.398913"><ele></ele><time>2014-4-27T14:37:33Z</time></trkpt>
<trkpt lat="43.807542" lon="5.398913"><ele></ele><time>2014-4-27T14:37:36Z</time></trkpt>
<trkpt lat="43.807548" lon="5.398932"><ele></ele><time>2014-4-27T14:37:39Z</time></trkpt>
<trkpt lat="43.807545" lon="5.398935"><ele></ele><time>2014-4-27T14:37:42Z</time></trkpt>
<trkpt lat="43.807548" lon="5.398935"><ele></ele><time>2014-4-27T14:37:45Z</time></trkpt>
<trkpt lat="43.807542" lon="5.398910"><ele></ele><time>2014-4-27T14:37:48Z</time></trkpt>
<trkpt lat="43.807492" lon="5.398812"><ele></ele><time>2014-4-27T14:37:51Z</time></trkpt>
<trkpt lat="43.807427" lon="5.398693"><ele></ele><time>2014-4-27T14:37:54Z</time></trkpt>
<trkpt lat="43.807338" lon="5.398572"><ele></ele><time>2014-4-27T14:37:57Z</time></trkpt>
<trkpt lat="43.807228" lon="5.398525"><ele></ele><time>2014-4-27T14:38:0Z</time></trkpt>
<trkpt lat="43.807148" lon="5.398430"><ele></ele><time>2014-4-27T14:38:3Z</time></trkpt>
<trkpt lat="43.807057" lon="5.398282"><ele></ele><time>2014-4-27T14:38:6Z</time></trkpt>
<trkpt lat="43.807010" lon="5.398085"><ele></ele><time>2014-4-27T14:38:9Z</time></trkpt>
<trkpt lat="43.806995" lon="5.397882"><ele></ele><time>2014-4-27T14:38:12Z</time></trkpt>
<trkpt lat="43.806962" lon="5.397690"><ele></ele><time>2014-4-27T14:38:15Z</time></trkpt>
<trkpt lat="43.806870" lon="5.397515"><ele></ele><time>2014-4-27T14:38:18Z</time></trkpt>
<trkpt lat="43.806797" lon="5.397293"><ele></ele><time>2014-4-27T14:38:21Z</time></trkpt>
<trkpt lat="43.806713" lon="5.397082"><ele></ele><time>2014-4-27T14:38:24Z</time></trkpt>
<trkpt lat="43.806663" lon="5.396873"><ele></ele><time>2014-4-27T14:38:27Z</time></trkpt>
<trkpt lat="43.806625" lon="5.396697"><ele></ele><time>2014-4-27T14:38:30Z</time></trkpt>
<trkpt lat="43.806522" lon="5.396698"><ele></ele><time>2014-4-27T14:38:33Z</time></trkpt>
<trkpt lat="43.806480" lon="5.396838"><ele></ele><time>2014-4-27T14:38:36Z</time></trkpt>
<trkpt lat="43.806403" lon="5.396968"><ele></ele><time>2014-4-27T14:38:39Z</time></trkpt>
<trkpt lat="43.806347" lon="5.397092"><ele></ele><time>2014-4-27T14:38:42Z</time></trkpt>
<trkpt lat="43.806270" lon="5.397237"><ele></ele><time>2014-4-27T14:38:45Z</time></trkpt>
<trkpt lat="43.806168" lon="5.397360"><ele></ele><time>2014-4-27T14:38:48Z</time></trkpt>
<trkpt lat="43.806068" lon="5.397483"><ele></ele><time>2014-4-27T14:38:51Z</time></trkpt>
<trkpt lat="43.805977" lon="5.397627"><ele></ele><time>2014-4-27T14:38:54Z</time></trkpt>
<trkpt lat="43.805915" lon="5.397802"><ele></ele><time>2014-4-27T14:38:57Z</time></trkpt>
<trkpt lat="43.805900" lon="5.398010"><ele></ele><time>2014-4-27T14:39:0Z</time></trkpt>
<trkpt lat="43.805932" lon="5.398218"><ele></ele><time>2014-4-27T14:39:3Z</time></trkpt>
<trkpt lat="43.805947" lon="5.398428"><ele></ele><time>2014-4-27T14:39:6Z</time></trkpt>
<trkpt lat="43.805962" lon="5.398657"><ele></ele><time>2014-4-27T14:39:9Z</time></trkpt>
<trkpt lat="43.805985" lon="5.398888"><ele></ele><time>2014-4-27T14:39:12Z</time></trkpt>
<trkpt lat="43.806007" lon="5.399117"><ele></ele><time>2014-4-27T14:39:15Z</time></trkpt>
<trkpt lat="43.806050" lon="5.399342"><ele></ele><time>2014-4-27T14:39:18Z</time></trkpt>
<trkpt lat="43.806148" lon="5.399550"><ele></ele><time>2014-4-27T14:39:21Z</time></trkpt>
<trkpt lat="43.806278" lon="5.399705"><ele></ele><time>2014-4-27T14:39:24Z</time></trkpt>
<trkpt lat="43.806408" lon="5.399868"><ele></ele><time>2014-4-27T14:39:27Z</time></trkpt>
<trkpt lat="43.806538" lon="5.400032"><ele></ele><time>2014-4-27T14:39:30Z</time></trkpt>
<trkpt lat="43.806667" lon="5.400210"><ele></ele><time>2014-4-27T14:39:33Z</time></trkpt>
<trkpt lat="43.806802" lon="5.400407"><ele></ele><time>2014-4-27T14:39:36Z</time></trkpt>
<trkpt lat="43.806930" lon="5.400610"><ele></ele><time>2014-4-27T14:39:39Z</time></trkpt>
<trkpt lat="43.807060" lon="5.400878"><ele></ele><time>2014-4-27T14:39:42Z</time></trkpt>
<trkpt lat="43.807205" lon="5.401222"><ele></ele><time>2014-4-27T14:39:45Z</time></trkpt>
<trkpt lat="43.807327" lon="5.401508"><ele></ele><time>2014-4-27T14:39:48Z</time></trkpt>
<trkpt lat="43.807392" lon="5.401738"><ele></ele><time>2014-4-27T14:39:51Z</time></trkpt>
<trkpt lat="43.807442" lon="5.401943"><ele></ele><time>2014-4-27T14:39:54Z</time></trkpt>
<trkpt lat="43.807477" lon="5.402137"><ele></ele><time>2014-4-27T14:39:57Z</time></trkpt>
<trkpt lat="43.807545" lon="5.402335"><ele></ele><time>2014-4-27T14:40:0Z</time></trkpt>
<trkpt lat="43.807690" lon="5.402440"><ele></ele><time>2014-4-27T14:40:3Z</time></trkpt>
<trkpt lat="43.807847" lon="5.402535"><ele></ele><time>2014-4-27T14:40:6Z</time></trkpt>
<trkpt lat="43.807972" lon="5.402698"><ele></ele><time>2014-4-27T14:40:9Z</time></trkpt>
<trkpt lat="43.808010" lon="5.402930"><ele></ele><time>2014-4-27T14:40:12Z</time></trkpt>
<trkpt lat="43.807983" lon="5.403173"><ele></ele><time>2014-4-27T14:40:15Z</time></trkpt>
<trkpt lat="43.807953" lon="5.403418"><ele></ele><time>2014-4-27T14:40:18Z</time></trkpt>
<trkpt lat="43.807927" lon="5.403668"><ele></ele><time>2014-4-27T14:40:21Z</time></trkpt>
<trkpt lat="43.807892" lon="5.403920"><ele></ele><time>2014-4-27T14:40:24Z</time></trkpt>
<trkpt lat="43.807903" lon="5.404180"><ele></ele><time>2014-4-27T14:40:27Z</time></trkpt>
<trkpt lat="43.807998" lon="5.404413"><ele></ele><time>2014-4-27T14:40:30Z</time></trkpt>
<trkpt lat="43.808120" lon="5.404598"><ele></ele><time>2014-4-27T14:40:33Z</time></trkpt>
<trkpt lat="43.808228" lon="5.404815"><ele></ele><time>2014-4-27T14:40:36Z</time></trkpt>
<trkpt lat="43.808327" lon="5.405002"><ele></ele><time>2014-4-27T14:40:39Z</time></trkpt>
<trkpt lat="43.808392" lon="5.405157"><ele></ele><time>2014-4-27T14:40:42Z</time></trkpt>
<trkpt lat="43.808442" lon="5.405303"><ele></ele><time>2014-4-27T14:40:45Z</time></trkpt>
<trkpt lat="43.808537" lon="5.405435"><ele></ele><time>2014-4-27T14:40:48Z</time></trkpt>
<trkpt lat="43.808667" lon="5.405523"><ele></ele><time>2014-4-27T14:40:51Z</time></trkpt>
<trkpt lat="43.808827" lon="5.405562"><ele></ele><time>2014-4-27T14:40:54Z</time></trkpt>
<trkpt lat="43.809010" lon="5.405562"><ele></ele><time>2014-4-27T14:40:57Z</time></trkpt>
<trkpt lat="43.809203" lon="5.405538"><ele></ele><time>2014-4-27T14:41:0Z</time></trkpt>
<trkpt lat="43.809398" lon="5.405502"><ele></ele><time>2014-4-27T14:41:3Z</time></trkpt>
<trkpt lat="43.809593" lon="5.405508"><ele></ele><time>2014-4-27T14:41:6Z</time></trkpt>
<trkpt lat="43.809800" lon="5.405585"><ele></ele><time>2014-4-27T14:41:9Z</time></trkpt>
<trkpt lat="43.810008" lon="5.405703"><ele></ele><time>2014-4-27T14:41:12Z</time></trkpt>
<trkpt lat="43.810245" lon="5.405802"><ele></ele><time>2014-4-27T14:41:15Z</time></trkpt>
<trkpt lat="43.810368" lon="5.406110"><ele></ele><time>2014-4-27T14:41:18Z</time></trkpt>
<trkpt lat="43.810402" lon="5.406342"><ele></ele><time>2014-4-27T14:41:21Z</time></trkpt>
<trkpt lat="43.810357" lon="5.406515"><ele></ele><time>2014-4-27T14:41:24Z</time></trkpt>
<trkpt lat="43.810322" lon="5.406750"><ele></ele><time>2014-4-27T14:41:27Z</time></trkpt>
<trkpt lat="43.810292" lon="5.407020"><ele></ele><time>2014-4-27T14:41:30Z</time></trkpt>
<trkpt lat="43.810230" lon="5.407298"><ele></ele><time>2014-4-27T14:41:33Z</time></trkpt>
<trkpt lat="43.810120" lon="5.407578"><ele></ele><time>2014-4-27T14:41:36Z</time></trkpt>
<trkpt lat="43.809990" lon="5.407897"><ele></ele><time>2014-4-27T14:41:39Z</time></trkpt>
<trkpt lat="43.809837" lon="5.408238"><ele></ele><time>2014-4-27T14:41:42Z</time></trkpt>
<trkpt lat="43.809635" lon="5.408595"><ele></ele><time>2014-4-27T14:41:45Z</time></trkpt>
<trkpt lat="43.809517" lon="5.408978"><ele></ele><time>2014-4-27T14:41:48Z</time></trkpt>
<trkpt lat="43.809570" lon="5.409360"><ele></ele><time>2014-4-27T14:41:51Z</time></trkpt>
<trkpt lat="43.809768" lon="5.409635"><ele></ele><time>2014-4-27T14:41:54Z</time></trkpt>
<trkpt lat="43.809955" lon="5.409972"><ele></ele><time>2014-4-27T14:41:57Z</time></trkpt>
<trkpt lat="43.810093" lon="5.410398"><ele></ele><time>2014-4-27T14:42:0Z</time></trkpt>
<trkpt lat="43.810250" lon="5.410765"><ele></ele><time>2014-4-27T14:42:3Z</time></trkpt>
<trkpt lat="43.810413" lon="5.411040"><ele></ele><time>2014-4-27T14:42:6Z</time></trkpt>
<trkpt lat="43.810520" lon="5.411362"><ele></ele><time>2014-4-27T14:42:9Z</time></trkpt>
<trkpt lat="43.810742" lon="5.411628"><ele></ele><time>2014-4-27T14:42:12Z</time></trkpt>
<trkpt lat="43.810925" lon="5.411832"><ele></ele><time>2014-4-27T14:42:15Z</time></trkpt>
<trkpt lat="43.811000" lon="5.411763"><ele></ele><time>2014-4-27T14:42:18Z</time></trkpt>
<trkpt lat="43.811058" lon="5.411658"><ele></ele><time>2014-4-27T14:42:21Z</time></trkpt>
<trkpt lat="43.811085" lon="5.411513"><ele></ele><time>2014-4-27T14:42:24Z</time></trkpt>
<trkpt lat="43.811097" lon="5.411385"><ele></ele><time>2014-4-27T14:42:27Z</time></trkpt>
<trkpt lat="43.811115" lon="5.411293"><ele></ele><time>2014-4-27T14:42:30Z</time></trkpt>
<trkpt lat="43.811138" lon="5.411192"><ele></ele><time>2014-4-27T14:42:33Z</time></trkpt>
<trkpt lat="43.811153" lon="5.411107"><ele></ele><time>2014-4-27T14:42:36Z</time></trkpt>
<trkpt lat="43.811218" lon="5.411050"><ele></ele><time>2014-4-27T14:42:39Z</time></trkpt>
<trkpt lat="43.811307" lon="5.411098"><ele></ele><time>2014-4-27T14:42:42Z</time></trkpt>
<trkpt lat="43.811398" lon="5.411130"><ele></ele><time>2014-4-27T14:42:45Z</time></trkpt>
<trkpt lat="43.811485" lon="5.411153"><ele></ele><time>2014-4-27T14:42:48Z</time></trkpt>
<trkpt lat="43.811588" lon="5.411205"><ele></ele><time>2014-4-27T14:42:51Z</time></trkpt>
<trkpt lat="43.811695" lon="5.411258"><ele></ele><time>2014-4-27T14:42:54Z</time></trkpt>
<trkpt lat="43.811805" lon="5.411287"><ele></ele><time>2014-4-27T14:42:57Z</time></trkpt>
<trkpt lat="43.811905" lon="5.411322"><ele></ele><time>2014-4-27T14:43:0Z</time></trkpt>
<trkpt lat="43.811923" lon="5.411263"><ele></ele><time>2014-4-27T14:43:3Z</time></trkpt>
<trkpt lat="43.811852" lon="5.411155"><ele></ele><time>2014-4-27T14:43:6Z</time></trkpt>
<trkpt lat="43.811805" lon="5.411012"><ele></ele><time>2014-4-27T14:43:9Z</time></trkpt>
<trkpt lat="43.811748" lon="5.410885"><ele></ele><time>2014-4-27T14:43:12Z</time></trkpt>
<trkpt lat="43.811745" lon="5.410818"><ele></ele><time>2014-4-27T14:43:15Z</time></trkpt>
<trkpt lat="43.811828" lon="5.410855"><ele></ele><time>2014-4-27T14:43:18Z</time></trkpt>
<trkpt lat="43.811928" lon="5.410923"><ele></ele><time>2014-4-27T14:43:21Z</time></trkpt>
<trkpt lat="43.812023" lon="5.410982"><ele></ele><time>2014-4-27T14:43:24Z</time></trkpt>
<trkpt lat="43.812142" lon="5.411030"><ele></ele><time>2014-4-27T14:43:27Z</time></trkpt>
<trkpt lat="43.812272" lon="5.411082"><ele></ele><time>2014-4-27T14:43:30Z</time></trkpt>
<trkpt lat="43.812382" lon="5.411125"><ele></ele><time>2014-4-27T14:43:33Z</time></trkpt>
<trkpt lat="43.812482" lon="5.411163"><ele></ele><time>2014-4-27T14:43:36Z</time></trkpt>
<trkpt lat="43.812465" lon="5.411060"><ele></ele><time>2014-4-27T14:43:39Z</time></trkpt>
<trkpt lat="43.812390" lon="5.410963"><ele></ele><time>2014-4-27T14:43:42Z</time></trkpt>
<trkpt lat="43.812332" lon="5.410863"><ele></ele><time>2014-4-27T14:43:45Z</time></trkpt>
<trkpt lat="43.812337" lon="5.410790"><ele></ele><time>2014-4-27T14:43:48Z</time></trkpt>
<trkpt lat="43.812432" lon="5.410823"><ele></ele><time>2014-4-27T14:43:51Z</time></trkpt>
<trkpt lat="43.812527" lon="5.410848"><ele></ele><time>2014-4-27T14:43:54Z</time></trkpt>
<trkpt lat="43.812637" lon="5.410867"><ele></ele><time>2014-4-27T14:43:57Z</time></trkpt>
<trkpt lat="43.812728" lon="5.410907"><ele></ele><time>2014-4-27T14:44:0Z</time></trkpt>
<trkpt lat="43.812798" lon="5.410887"><ele></ele><time>2014-4-27T14:44:3Z</time></trkpt>
<trkpt lat="43.812717" lon="5.410770"><ele></ele><time>2014-4-27T14:44:6Z</time></trkpt>
<trkpt lat="43.812663" lon="5.410677"><ele></ele><time>2014-4-27T14:44:9Z</time></trkpt>
<trkpt lat="43.812707" lon="5.410615"><ele></ele><time>2014-4-27T14:44:12Z</time></trkpt>
<trkpt lat="43.812787" lon="5.410655"><ele></ele><time>2014-4-27T14:44:15Z</time></trkpt>
<trkpt lat="43.812862" lon="5.410703"><ele></ele><time>2014-4-27T14:44:18Z</time></trkpt>
<trkpt lat="43.812950" lon="5.410743"><ele></ele><time>2014-4-27T14:44:21Z</time></trkpt>
<trkpt lat="43.813050" lon="5.410727"><ele></ele><time>2014-4-27T14:44:24Z</time></trkpt>
<trkpt lat="43.813175" lon="5.410663"><ele></ele><time>2014-4-27T14:44:27Z</time></trkpt>
<trkpt lat="43.813305" lon="5.410652"><ele></ele><time>2014-4-27T14:44:30Z</time></trkpt>
<trkpt lat="43.813435" lon="5.410632"><ele></ele><time>2014-4-27T14:44:33Z</time></trkpt>
<trkpt lat="43.813553" lon="5.410585"><ele></ele><time>2014-4-27T14:44:36Z</time></trkpt>
<trkpt lat="43.813652" lon="5.410490"><ele></ele><time>2014-4-27T14:44:39Z</time></trkpt>
<trkpt lat="43.813747" lon="5.410400"><ele></ele><time>2014-4-27T14:44:42Z</time></trkpt>
<trkpt lat="43.813877" lon="5.410423"><ele></ele><time>2014-4-27T14:44:45Z</time></trkpt>
<trkpt lat="43.813992" lon="5.410390"><ele></ele><time>2014-4-27T14:44:48Z</time></trkpt>
<trkpt lat="43.814098" lon="5.410355"><ele></ele><time>2014-4-27T14:44:51Z</time></trkpt>
<trkpt lat="43.814205" lon="5.410313"><ele></ele><time>2014-4-27T14:44:54Z</time></trkpt>
<trkpt lat="43.814342" lon="5.410263"><ele></ele><time>2014-4-27T14:44:57Z</time></trkpt>
<trkpt lat="43.814472" lon="5.410232"><ele></ele><time>2014-4-27T14:45:0Z</time></trkpt>
<trkpt lat="43.814575" lon="5.410168"><ele></ele><time>2014-4-27T14:45:3Z</time></trkpt>
<trkpt lat="43.814663" lon="5.410058"><ele></ele><time>2014-4-27T14:45:6Z</time></trkpt>
<trkpt lat="43.814773" lon="5.409962"><ele></ele><time>2014-4-27T14:45:9Z</time></trkpt>
<trkpt lat="43.814880" lon="5.409938"><ele></ele><time>2014-4-27T14:45:12Z</time></trkpt>
<trkpt lat="43.814960" lon="5.409848"><ele></ele><time>2014-4-27T14:45:15Z</time></trkpt>
<trkpt lat="43.815063" lon="5.409775"><ele></ele><time>2014-4-27T14:45:18Z</time></trkpt>
<trkpt lat="43.815173" lon="5.409705"><ele></ele><time>2014-4-27T14:45:21Z</time></trkpt>
<trkpt lat="43.815288" lon="5.409635"><ele></ele><time>2014-4-27T14:45:24Z</time></trkpt>
<trkpt lat="43.815400" lon="5.409548"><ele></ele><time>2014-4-27T14:45:27Z</time></trkpt>
<trkpt lat="43.815517" lon="5.409482"><ele></ele><time>2014-4-27T14:45:30Z</time></trkpt>
<trkpt lat="43.815628" lon="5.409388"><ele></ele><time>2014-4-27T14:45:33Z</time></trkpt>
<trkpt lat="43.815770" lon="5.409285"><ele></ele><time>2014-4-27T14:45:36Z</time></trkpt>
<trkpt lat="43.815913" lon="5.409183"><ele></ele><time>2014-4-27T14:45:39Z</time></trkpt>
<trkpt lat="43.816048" lon="5.409050"><ele></ele><time>2014-4-27T14:45:42Z</time></trkpt>
<trkpt lat="43.816185" lon="5.408957"><ele></ele><time>2014-4-27T14:45:45Z</time></trkpt>
<trkpt lat="43.816338" lon="5.408852"><ele></ele><time>2014-4-27T14:45:48Z</time></trkpt>
<trkpt lat="43.816520" lon="5.408738"><ele></ele><time>2014-4-27T14:45:51Z</time></trkpt>
<trkpt lat="43.816703" lon="5.408655"><ele></ele><time>2014-4-27T14:45:54Z</time></trkpt>
<trkpt lat="43.816880" lon="5.408538"><ele></ele><time>2014-4-27T14:45:57Z</time></trkpt>
<trkpt lat="43.817058" lon="5.408432"><ele></ele><time>2014-4-27T14:46:0Z</time></trkpt>
<trkpt lat="43.817218" lon="5.408365"><ele></ele><time>2014-4-27T14:46:3Z</time></trkpt>
<trkpt lat="43.817372" lon="5.408222"><ele></ele><time>2014-4-27T14:46:6Z</time></trkpt>
<trkpt lat="43.817502" lon="5.408133"><ele></ele><time>2014-4-27T14:46:9Z</time></trkpt>
<trkpt lat="43.817513" lon="5.408117"><ele></ele><time>2014-4-27T14:46:12Z</time></trkpt>
<trkpt lat="43.817517" lon="5.408115"><ele></ele><time>2014-4-27T14:46:15Z</time></trkpt>
<trkpt lat="43.817517" lon="5.408132"><ele></ele><time>2014-4-27T14:46:18Z</time></trkpt>
<trkpt lat="43.817513" lon="5.408137"><ele></ele><time>2014-4-27T14:46:21Z</time></trkpt>
<trkpt lat="43.817513" lon="5.408138"><ele></ele><time>2014-4-27T14:46:24Z</time></trkpt>
<trkpt lat="43.817508" lon="5.408147"><ele></ele><time>2014-4-27T14:46:27Z</time></trkpt>
<trkpt lat="43.817517" lon="5.408167"><ele></ele><time>2014-4-27T14:46:30Z</time></trkpt>
<trkpt lat="43.817517" lon="5.408168"><ele></ele><time>2014-4-27T14:46:33Z</time></trkpt>
<trkpt lat="43.817517" lon="5.408170"><ele></ele><time>2014-4-27T14:46:36Z</time></trkpt>
<trkpt lat="43.817513" lon="5.408175"><ele></ele><time>2014-4-27T14:46:39Z</time></trkpt>
<trkpt lat="43.817513" lon="5.408177"><ele></ele><time>2014-4-27T14:46:42Z</time></trkpt>
<trkpt lat="43.817517" lon="5.408177"><ele></ele><time>2014-4-27T14:46:45Z</time></trkpt>
<trkpt lat="43.817517" lon="5.408175"><ele></ele><time>2014-4-27T14:46:48Z</time></trkpt>
<trkpt lat="43.817520" lon="5.408173"><ele></ele><time>2014-4-27T14:46:51Z</time></trkpt>
<trkpt lat="43.817520" lon="5.408173"><ele></ele><time>2014-4-27T14:46:54Z</time></trkpt>
<trkpt lat="43.817520" lon="5.408173"><ele></ele><time>2014-4-27T14:46:57Z</time></trkpt>
<trkpt lat="43.817520" lon="5.408173"><ele></ele><time>2014-4-27T14:47:0Z</time></trkpt>
<trkpt lat="43.817520" lon="5.408170"><ele></ele><time>2014-4-27T14:47:3Z</time></trkpt>
<trkpt lat="43.817505" lon="5.408157"><ele></ele><time>2014-4-27T14:47:6Z</time></trkpt>
<trkpt lat="43.817505" lon="5.408162"><ele></ele><time>2014-4-27T14:47:9Z</time></trkpt>
<trkpt lat="43.817505" lon="5.408163"><ele></ele><time>2014-4-27T14:47:12Z</time></trkpt>
<trkpt lat="43.817493" lon="5.408172"><ele></ele><time>2014-4-27T14:47:15Z</time></trkpt>
<trkpt lat="43.817493" lon="5.408180"><ele></ele><time>2014-4-27T14:47:18Z</time></trkpt>
<trkpt lat="43.817490" lon="5.408182"><ele></ele><time>2014-4-27T14:47:21Z</time></trkpt>
<trkpt lat="43.817490" lon="5.408182"><ele></ele><time>2014-4-27T14:47:24Z</time></trkpt>
<trkpt lat="43.817493" lon="5.408165"><ele></ele><time>2014-4-27T14:47:27Z</time></trkpt>
<trkpt lat="43.817493" lon="5.408163"><ele></ele><time>2014-4-27T14:47:30Z</time></trkpt>
<trkpt lat="43.817493" lon="5.408162"><ele></ele><time>2014-4-27T14:47:33Z</time></trkpt>
<trkpt lat="43.817493" lon="5.408165"><ele></ele><time>2014-4-27T14:47:36Z</time></trkpt>
<trkpt lat="43.817482" lon="5.408143"><ele></ele><time>2014-4-27T14:47:39Z</time></trkpt>
<trkpt lat="43.817485" lon="5.408125"><ele></ele><time>2014-4-27T14:47:42Z</time></trkpt>
<trkpt lat="43.817555" lon="5.408022"><ele></ele><time>2014-4-27T14:47:45Z</time></trkpt>
<trkpt lat="43.817685" lon="5.407848"><ele></ele><time>2014-4-27T14:47:48Z</time></trkpt>
<trkpt lat="43.817833" lon="5.407578"><ele></ele><time>2014-4-27T14:47:51Z</time></trkpt>
<trkpt lat="43.817937" lon="5.407395"><ele></ele><time>2014-4-27T14:47:54Z</time></trkpt>
<trkpt lat="43.818100" lon="5.407387"><ele></ele><time>2014-4-27T14:47:57Z</time></trkpt>
<trkpt lat="43.818237" lon="5.407330"><ele></ele><time>2014-4-27T14:48:0Z</time></trkpt>
<trkpt lat="43.818390" lon="5.407237"><ele></ele><time>2014-4-27T14:48:3Z</time></trkpt>
<trkpt lat="43.818520" lon="5.407272"><ele></ele><time>2014-4-27T14:48:6Z</time></trkpt>
<trkpt lat="43.818657" lon="5.407303"><ele></ele><time>2014-4-27T14:48:9Z</time></trkpt>
<trkpt lat="43.818790" lon="5.407315"><ele></ele><time>2014-4-27T14:48:12Z</time></trkpt>
<trkpt lat="43.818902" lon="5.407272"><ele></ele><time>2014-4-27T14:48:15Z</time></trkpt>
<trkpt lat="43.818977" lon="5.407212"><ele></ele><time>2014-4-27T14:48:18Z</time></trkpt>
<trkpt lat="43.819077" lon="5.407198"><ele></ele><time>2014-4-27T14:48:21Z</time></trkpt>
<trkpt lat="43.819183" lon="5.407280"><ele></ele><time>2014-4-27T14:48:24Z</time></trkpt>
<trkpt lat="43.819337" lon="5.407438"><ele></ele><time>2014-4-27T14:48:27Z</time></trkpt>
<trkpt lat="43.819500" lon="5.407705"><ele></ele><time>2014-4-27T14:48:30Z</time></trkpt>
<trkpt lat="43.819633" lon="5.408067"><ele></ele><time>2014-4-27T14:48:33Z</time></trkpt>
<trkpt lat="43.819770" lon="5.408477"><ele></ele><time>2014-4-27T14:48:36Z</time></trkpt>
<trkpt lat="43.819927" lon="5.408895"><ele></ele><time>2014-4-27T14:48:39Z</time></trkpt>
<trkpt lat="43.820095" lon="5.409248"><ele></ele><time>2014-4-27T14:48:42Z</time></trkpt>
<trkpt lat="43.820340" lon="5.409598"><ele></ele><time>2014-4-27T14:48:45Z</time></trkpt>
<trkpt lat="43.820538" lon="5.409860"><ele></ele><time>2014-4-27T14:48:48Z</time></trkpt>
<trkpt lat="43.820645" lon="5.409977"><ele></ele><time>2014-4-27T14:48:51Z</time></trkpt>
<trkpt lat="43.820770" lon="5.410088"><ele></ele><time>2014-4-27T14:48:54Z</time></trkpt>
<trkpt lat="43.820912" lon="5.410218"><ele></ele><time>2014-4-27T14:48:57Z</time></trkpt>
<trkpt lat="43.821072" lon="5.410373"><ele></ele><time>2014-4-27T14:49:0Z</time></trkpt>
<trkpt lat="43.821270" lon="5.410555"><ele></ele><time>2014-4-27T14:49:3Z</time></trkpt>
<trkpt lat="43.821548" lon="5.410777"><ele></ele><time>2014-4-27T14:49:6Z</time></trkpt>
<trkpt lat="43.821808" lon="5.411007"><ele></ele><time>2014-4-27T14:49:9Z</time></trkpt>
<trkpt lat="43.822110" lon="5.411270"><ele></ele><time>2014-4-27T14:49:12Z</time></trkpt>
<trkpt lat="43.822495" lon="5.411455"><ele></ele><time>2014-4-27T14:49:15Z</time></trkpt>
<trkpt lat="43.822812" lon="5.411537"><ele></ele><time>2014-4-27T14:49:18Z</time></trkpt>
<trkpt lat="43.823005" lon="5.411517"><ele></ele><time>2014-4-27T14:49:21Z</time></trkpt>
<trkpt lat="43.823075" lon="5.411522"><ele></ele><time>2014-4-27T14:49:24Z</time></trkpt>
<trkpt lat="43.823158" lon="5.411530"><ele></ele><time>2014-4-27T14:49:27Z</time></trkpt>
<trkpt lat="43.823230" lon="5.411550"><ele></ele><time>2014-4-27T14:49:30Z</time></trkpt>
<trkpt lat="43.823315" lon="5.411555"><ele></ele><time>2014-4-27T14:49:33Z</time></trkpt>
<trkpt lat="43.823422" lon="5.411562"><ele></ele><time>2014-4-27T14:49:36Z</time></trkpt>
<trkpt lat="43.823600" lon="5.411527"><ele></ele><time>2014-4-27T14:49:39Z</time></trkpt>
<trkpt lat="43.823682" lon="5.411600"><ele></ele><time>2014-4-27T14:49:42Z</time></trkpt>
<trkpt lat="43.823638" lon="5.411652"><ele></ele><time>2014-4-27T14:49:45Z</time></trkpt>
<trkpt lat="43.823682" lon="5.411573"><ele></ele><time>2014-4-27T14:49:48Z</time></trkpt>
<trkpt lat="43.823768" lon="5.411493"><ele></ele><time>2014-4-27T14:49:51Z</time></trkpt>
<trkpt lat="43.823940" lon="5.411477"><ele></ele><time>2014-4-27T14:49:54Z</time></trkpt>
<trkpt lat="43.824138" lon="5.411425"><ele></ele><time>2014-4-27T14:49:57Z</time></trkpt>
<trkpt lat="43.824348" lon="5.411328"><ele></ele><time>2014-4-27T14:50:0Z</time></trkpt>
<trkpt lat="43.824448" lon="5.411225"><ele></ele><time>2014-4-27T14:50:3Z</time></trkpt>
<trkpt lat="43.824623" lon="5.411047"><ele></ele><time>2014-4-27T14:50:6Z</time></trkpt>
<trkpt lat="43.824802" lon="5.410828"><ele></ele><time>2014-4-27T14:50:9Z</time></trkpt>
<trkpt lat="43.825012" lon="5.410580"><ele></ele><time>2014-4-27T14:50:12Z</time></trkpt>
<trkpt lat="43.825245" lon="5.410390"><ele></ele><time>2014-4-27T14:50:15Z</time></trkpt>
<trkpt lat="43.825562" lon="5.410260"><ele></ele><time>2014-4-27T14:50:18Z</time></trkpt>
<trkpt lat="43.825822" lon="5.410055"><ele></ele><time>2014-4-27T14:50:21Z</time></trkpt>
<trkpt lat="43.826015" lon="5.409628"><ele></ele><time>2014-4-27T14:50:24Z</time></trkpt>
<trkpt lat="43.826153" lon="5.409125"><ele></ele><time>2014-4-27T14:50:27Z</time></trkpt>
<trkpt lat="43.826210" lon="5.408568"><ele></ele><time>2014-4-27T14:50:30Z</time></trkpt>
<trkpt lat="43.826160" lon="5.408035"><ele></ele><time>2014-4-27T14:50:33Z</time></trkpt>
<trkpt lat="43.826138" lon="5.407530"><ele></ele><time>2014-4-27T14:50:36Z</time></trkpt>
<trkpt lat="43.826160" lon="5.407053"><ele></ele><time>2014-4-27T14:50:39Z</time></trkpt>
<trkpt lat="43.826187" lon="5.406563"><ele></ele><time>2014-4-27T14:50:42Z</time></trkpt>
<trkpt lat="43.826237" lon="5.406100"><ele></ele><time>2014-4-27T14:50:45Z</time></trkpt>
<trkpt lat="43.826320" lon="5.405725"><ele></ele><time>2014-4-27T14:50:48Z</time></trkpt>
<trkpt lat="43.826435" lon="5.405408"><ele></ele><time>2014-4-27T14:50:51Z</time></trkpt>
<trkpt lat="43.826615" lon="5.405147"><ele></ele><time>2014-4-27T14:50:54Z</time></trkpt>
<trkpt lat="43.826878" lon="5.404892"><ele></ele><time>2014-4-27T14:50:57Z</time></trkpt>
<trkpt lat="43.827137" lon="5.404602"><ele></ele><time>2014-4-27T14:51:0Z</time></trkpt>
<trkpt lat="43.827382" lon="5.404392"><ele></ele><time>2014-4-27T14:51:3Z</time></trkpt>
<trkpt lat="43.827655" lon="5.404165"><ele></ele><time>2014-4-27T14:51:6Z</time></trkpt>
<trkpt lat="43.827778" lon="5.403965"><ele></ele><time>2014-4-27T14:51:9Z</time></trkpt>
<trkpt lat="43.827873" lon="5.403862"><ele></ele><time>2014-4-27T14:51:12Z</time></trkpt>
<trkpt lat="43.827983" lon="5.403795"><ele></ele><time>2014-4-27T14:51:15Z</time></trkpt>
<trkpt lat="43.828018" lon="5.403738"><ele></ele><time>2014-4-27T14:51:18Z</time></trkpt>
<trkpt lat="43.828018" lon="5.403747"><ele></ele><time>2014-4-27T14:51:21Z</time></trkpt>
<trkpt lat="43.828018" lon="5.403767"><ele></ele><time>2014-4-27T14:51:24Z</time></trkpt>
<trkpt lat="43.828018" lon="5.403767"><ele></ele><time>2014-4-27T14:51:27Z</time></trkpt>
<trkpt lat="43.828010" lon="5.403770"><ele></ele><time>2014-4-27T14:51:30Z</time></trkpt>
<trkpt lat="43.828007" lon="5.403770"><ele></ele><time>2014-4-27T14:51:33Z</time></trkpt>
<trkpt lat="43.828007" lon="5.403768"><ele></ele><time>2014-4-27T14:51:36Z</time></trkpt>
<trkpt lat="43.828010" lon="5.403773"><ele></ele><time>2014-4-27T14:51:39Z</time></trkpt>
<trkpt lat="43.828003" lon="5.403778"><ele></ele><time>2014-4-27T14:51:42Z</time></trkpt>
<trkpt lat="43.828007" lon="5.403780"><ele></ele><time>2014-4-27T14:51:45Z</time></trkpt>
<trkpt lat="43.828007" lon="5.403777"><ele></ele><time>2014-4-27T14:51:48Z</time></trkpt>
<trkpt lat="43.828003" lon="5.403765"><ele></ele><time>2014-4-27T14:51:51Z</time></trkpt>
<trkpt lat="43.827995" lon="5.403780"><ele></ele><time>2014-4-27T14:51:54Z</time></trkpt>
<trkpt lat="43.827998" lon="5.403808"><ele></ele><time>2014-4-27T14:51:57Z</time></trkpt>
<trkpt lat="43.828003" lon="5.403828"><ele></ele><time>2014-4-27T14:52:0Z</time></trkpt>
<trkpt lat="43.828010" lon="5.403823"><ele></ele><time>2014-4-27T14:52:3Z</time></trkpt>
<trkpt lat="43.828007" lon="5.403817"><ele></ele><time>2014-4-27T14:52:6Z</time></trkpt>
<trkpt lat="43.828010" lon="5.403810"><ele></ele><time>2014-4-27T14:52:9Z</time></trkpt>
<trkpt lat="43.828007" lon="5.403805"><ele></ele><time>2014-4-27T14:52:12Z</time></trkpt>
<trkpt lat="43.828003" lon="5.403800"><ele></ele><time>2014-4-27T14:52:15Z</time></trkpt>
<trkpt lat="43.828003" lon="5.403800"><ele></ele><time>2014-4-27T14:52:18Z</time></trkpt>
<trkpt lat="43.828003" lon="5.403803"><ele></ele><time>2014-4-27T14:52:21Z</time></trkpt>
<trkpt lat="43.827998" lon="5.403807"><ele></ele><time>2014-4-27T14:52:24Z</time></trkpt>
<trkpt lat="43.827998" lon="5.403808"><ele></ele><time>2014-4-27T14:52:27Z</time></trkpt>
<trkpt lat="43.827998" lon="5.403812"><ele></ele><time>2014-4-27T14:52:30Z</time></trkpt>
<trkpt lat="43.827998" lon="5.403813"><ele></ele><time>2014-4-27T14:52:33Z</time></trkpt>
<trkpt lat="43.827998" lon="5.403813"><ele></ele><time>2014-4-27T14:52:36Z</time></trkpt>
<trkpt lat="43.827995" lon="5.403815"><ele></ele><time>2014-4-27T14:52:39Z</time></trkpt>
<trkpt lat="43.827995" lon="5.403813"><ele></ele><time>2014-4-27T14:52:42Z</time></trkpt>
<trkpt lat="43.827998" lon="5.403812"><ele></ele><time>2014-4-27T14:52:45Z</time></trkpt>
<trkpt lat="43.827998" lon="5.403810"><ele></ele><time>2014-4-27T14:52:48Z</time></trkpt>
<trkpt lat="43.827998" lon="5.403808"><ele></ele><time>2014-4-27T14:52:51Z</time></trkpt>
<trkpt lat="43.827998" lon="5.403805"><ele></ele><time>2014-4-27T14:52:54Z</time></trkpt>
<trkpt lat="43.828003" lon="5.403805"><ele></ele><time>2014-4-27T14:52:57Z</time></trkpt>
<trkpt lat="43.828003" lon="5.403802"><ele></ele><time>2014-4-27T14:53:0Z</time></trkpt>
<trkpt lat="43.828007" lon="5.403800"><ele></ele><time>2014-4-27T14:53:3Z</time></trkpt>
<trkpt lat="43.828007" lon="5.403798"><ele></ele><time>2014-4-27T14:53:6Z</time></trkpt>
<trkpt lat="43.828010" lon="5.403798"><ele></ele><time>2014-4-27T14:53:9Z</time></trkpt>
<trkpt lat="43.828010" lon="5.403797"><ele></ele><time>2014-4-27T14:53:12Z</time></trkpt>
<trkpt lat="43.828010" lon="5.403797"><ele></ele><time>2014-4-27T14:53:15Z</time></trkpt>
<trkpt lat="43.828010" lon="5.403797"><ele></ele><time>2014-4-27T14:53:18Z</time></trkpt>
<trkpt lat="43.828015" lon="5.403797"><ele></ele><time>2014-4-27T14:53:21Z</time></trkpt>
<trkpt lat="43.828015" lon="5.403797"><ele></ele><time>2014-4-27T14:53:24Z</time></trkpt>
<trkpt lat="43.828015" lon="5.403797"><ele></ele><time>2014-4-27T14:53:27Z</time></trkpt>
<trkpt lat="43.828015" lon="5.403798"><ele></ele><time>2014-4-27T14:53:30Z</time></trkpt>
<trkpt lat="43.828015" lon="5.403798"><ele></ele><time>2014-4-27T14:53:33Z</time></trkpt>
<trkpt lat="43.828010" lon="5.403805"><ele></ele><time>2014-4-27T14:53:36Z</time></trkpt>
<trkpt lat="43.828015" lon="5.403803"><ele></ele><time>2014-4-27T14:53:39Z</time></trkpt>
<trkpt lat="43.828007" lon="5.403807"><ele></ele><time>2014-4-27T14:53:42Z</time></trkpt>
<trkpt lat="43.828015" lon="5.403810"><ele></ele><time>2014-4-27T14:53:45Z</time></trkpt>
<trkpt lat="43.828018" lon="5.403822"><ele></ele><time>2014-4-27T14:53:48Z</time></trkpt>
<trkpt lat="43.828018" lon="5.403820"><ele></ele><time>2014-4-27T14:53:51Z</time></trkpt>
<trkpt lat="43.828015" lon="5.403818"><ele></ele><time>2014-4-27T14:53:54Z</time></trkpt>
<trkpt lat="43.828018" lon="5.403815"><ele></ele><time>2014-4-27T14:53:57Z</time></trkpt>
<trkpt lat="43.828003" lon="5.403808"><ele></ele><time>2014-4-27T14:54:0Z</time></trkpt>
<trkpt lat="43.828018" lon="5.403797"><ele></ele><time>2014-4-27T14:54:3Z</time></trkpt>
<trkpt lat="43.828018" lon="5.403785"><ele></ele><time>2014-4-27T14:54:6Z</time></trkpt>
<trkpt lat="43.828018" lon="5.403778"><ele></ele><time>2014-4-27T14:54:9Z</time></trkpt>
<trkpt lat="43.828022" lon="5.403773"><ele></ele><time>2014-4-27T14:54:12Z</time></trkpt>
<trkpt lat="43.828022" lon="5.403777"><ele></ele><time>2014-4-27T14:54:15Z</time></trkpt>
<trkpt lat="43.828018" lon="5.403787"><ele></ele><time>2014-4-27T14:54:18Z</time></trkpt>
<trkpt lat="43.828025" lon="5.403810"><ele></ele><time>2014-4-27T14:54:21Z</time></trkpt>
<trkpt lat="43.828075" lon="5.403830"><ele></ele><time>2014-4-27T14:54:24Z</time></trkpt>
<trkpt lat="43.828190" lon="5.403817"><ele></ele><time>2014-4-27T14:54:27Z</time></trkpt>
<trkpt lat="43.828312" lon="5.403760"><ele></ele><time>2014-4-27T14:54:30Z</time></trkpt>
<trkpt lat="43.828442" lon="5.403718"><ele></ele><time>2014-4-27T14:54:33Z</time></trkpt>
<trkpt lat="43.828578" lon="5.403647"><ele></ele><time>2014-4-27T14:54:36Z</time></trkpt>
<trkpt lat="43.828723" lon="5.403592"><ele></ele><time>2014-4-27T14:54:39Z</time></trkpt>
<trkpt lat="43.828865" lon="5.403540"><ele></ele><time>2014-4-27T14:54:42Z</time></trkpt>
<trkpt lat="43.829033" lon="5.403520"><ele></ele><time>2014-4-27T14:54:45Z</time></trkpt>
<trkpt lat="43.829173" lon="5.403580"><ele></ele><time>2014-4-27T14:54:48Z</time></trkpt>
<trkpt lat="43.829300" lon="5.403715"><ele></ele><time>2014-4-27T14:54:51Z</time></trkpt>
<trkpt lat="43.829418" lon="5.403883"><ele></ele><time>2014-4-27T14:54:54Z</time></trkpt>
<trkpt lat="43.829543" lon="5.404090"><ele></ele><time>2014-4-27T14:54:57Z</time></trkpt>
<trkpt lat="43.829647" lon="5.404362"><ele></ele><time>2014-4-27T14:55:0Z</time></trkpt>
<trkpt lat="43.829662" lon="5.404713"><ele></ele><time>2014-4-27T14:55:3Z</time></trkpt>
<trkpt lat="43.829640" lon="5.405135"><ele></ele><time>2014-4-27T14:55:6Z</time></trkpt>
<trkpt lat="43.829655" lon="5.405577"><ele></ele><time>2014-4-27T14:55:9Z</time></trkpt>
<trkpt lat="43.829747" lon="5.405922"><ele></ele><time>2014-4-27T14:55:12Z</time></trkpt>
<trkpt lat="43.829910" lon="5.406133"><ele></ele><time>2014-4-27T14:55:15Z</time></trkpt>
<trkpt lat="43.830097" lon="5.406162"><ele></ele><time>2014-4-27T14:55:18Z</time></trkpt>
<trkpt lat="43.830295" lon="5.406127"><ele></ele><time>2014-4-27T14:55:21Z</time></trkpt>
<trkpt lat="43.830493" lon="5.406053"><ele></ele><time>2014-4-27T14:55:24Z</time></trkpt>
<trkpt lat="43.830715" lon="5.405970"><ele></ele><time>2014-4-27T14:55:27Z</time></trkpt>
<trkpt lat="43.830975" lon="5.405978"><ele></ele><time>2014-4-27T14:55:30Z</time></trkpt>
<trkpt lat="43.831218" lon="5.406233"><ele></ele><time>2014-4-27T14:55:33Z</time></trkpt>
<trkpt lat="43.831367" lon="5.406643"><ele></ele><time>2014-4-27T14:55:36Z</time></trkpt>
<trkpt lat="43.831505" lon="5.407033"><ele></ele><time>2014-4-27T14:55:39Z</time></trkpt>
<trkpt lat="43.831615" lon="5.407382"><ele></ele><time>2014-4-27T14:55:42Z</time></trkpt>
<trkpt lat="43.831727" lon="5.407708"><ele></ele><time>2014-4-27T14:55:45Z</time></trkpt>
<trkpt lat="43.831837" lon="5.408047"><ele></ele><time>2014-4-27T14:55:48Z</time></trkpt>
<trkpt lat="43.831958" lon="5.408383"><ele></ele><time>2014-4-27T14:55:51Z</time></trkpt>
<trkpt lat="43.832073" lon="5.408725"><ele></ele><time>2014-4-27T14:55:54Z</time></trkpt>
<trkpt lat="43.832118" lon="5.409112"><ele></ele><time>2014-4-27T14:55:57Z</time></trkpt>
<trkpt lat="43.831993" lon="5.409518"><ele></ele><time>2014-4-27T14:56:0Z</time></trkpt>
<trkpt lat="43.831798" lon="5.409940"><ele></ele><time>2014-4-27T14:56:3Z</time></trkpt>
<trkpt lat="43.831603" lon="5.410410"><ele></ele><time>2014-4-27T14:56:6Z</time></trkpt>
<trkpt lat="43.831422" lon="5.410932"><ele></ele><time>2014-4-27T14:56:9Z</time></trkpt>
<trkpt lat="43.831227" lon="5.411483"><ele></ele><time>2014-4-27T14:56:12Z</time></trkpt>
<trkpt lat="43.830997" lon="5.412002"><ele></ele><time>2014-4-27T14:56:15Z</time></trkpt>
<trkpt lat="43.830692" lon="5.412465"><ele></ele><time>2014-4-27T14:56:18Z</time></trkpt>
<trkpt lat="43.830338" lon="5.412885"><ele></ele><time>2014-4-27T14:56:21Z</time></trkpt>
<trkpt lat="43.829960" lon="5.413273"><ele></ele><time>2014-4-27T14:56:24Z</time></trkpt>
<trkpt lat="43.829605" lon="5.413605"><ele></ele><time>2014-4-27T14:56:27Z</time></trkpt>
<trkpt lat="43.829288" lon="5.413890"><ele></ele><time>2014-4-27T14:56:30Z</time></trkpt>
<trkpt lat="43.829067" lon="5.414177"><ele></ele><time>2014-4-27T14:56:33Z</time></trkpt>
<trkpt lat="43.829235" lon="5.414388"><ele></ele><time>2014-4-27T14:56:36Z</time></trkpt>
<trkpt lat="43.829437" lon="5.414417"><ele></ele><time>2014-4-27T14:56:39Z</time></trkpt>
<trkpt lat="43.829608" lon="5.414437"><ele></ele><time>2014-4-27T14:56:42Z</time></trkpt>
<trkpt lat="43.829777" lon="5.414427"><ele></ele><time>2014-4-27T14:56:45Z</time></trkpt>
<trkpt lat="43.829940" lon="5.414382"><ele></ele><time>2014-4-27T14:56:48Z</time></trkpt>
<trkpt lat="43.830097" lon="5.414302"><ele></ele><time>2014-4-27T14:56:51Z</time></trkpt>
<trkpt lat="43.830238" lon="5.414230"><ele></ele><time>2014-4-27T14:56:54Z</time></trkpt>
<trkpt lat="43.830383" lon="5.414170"><ele></ele><time>2014-4-27T14:56:57Z</time></trkpt>
<trkpt lat="43.830525" lon="5.414143"><ele></ele><time>2014-4-27T14:57:0Z</time></trkpt>
<trkpt lat="43.830662" lon="5.414117"><ele></ele><time>2014-4-27T14:57:3Z</time></trkpt>
<trkpt lat="43.830803" lon="5.414090"><ele></ele><time>2014-4-27T14:57:6Z</time></trkpt>
<trkpt lat="43.830933" lon="5.414047"><ele></ele><time>2014-4-27T14:57:9Z</time></trkpt>
<trkpt lat="43.831067" lon="5.413995"><ele></ele><time>2014-4-27T14:57:12Z</time></trkpt>
<trkpt lat="43.831200" lon="5.413943"><ele></ele><time>2014-4-27T14:57:15Z</time></trkpt>
<trkpt lat="43.831333" lon="5.413887"><ele></ele><time>2014-4-27T14:57:18Z</time></trkpt>
<trkpt lat="43.831463" lon="5.413830"><ele></ele><time>2014-4-27T14:57:21Z</time></trkpt>
<trkpt lat="43.831593" lon="5.413767"><ele></ele><time>2014-4-27T14:57:24Z</time></trkpt>
<trkpt lat="43.831727" lon="5.413702"><ele></ele><time>2014-4-27T14:57:27Z</time></trkpt>
<trkpt lat="43.831848" lon="5.413627"><ele></ele><time>2014-4-27T14:57:30Z</time></trkpt>
<trkpt lat="43.831963" lon="5.413545"><ele></ele><time>2014-4-27T14:57:33Z</time></trkpt>
<trkpt lat="43.832082" lon="5.413463"><ele></ele><time>2014-4-27T14:57:36Z</time></trkpt>
<trkpt lat="43.832188" lon="5.413360"><ele></ele><time>2014-4-27T14:57:39Z</time></trkpt>
<trkpt lat="43.832295" lon="5.413265"><ele></ele><time>2014-4-27T14:57:42Z</time></trkpt>
<trkpt lat="43.832402" lon="5.413172"><ele></ele><time>2014-4-27T14:57:45Z</time></trkpt>
<trkpt lat="43.832508" lon="5.413073"><ele></ele><time>2014-4-27T14:57:48Z</time></trkpt>
<trkpt lat="43.832618" lon="5.412978"><ele></ele><time>2014-4-27T14:57:51Z</time></trkpt>
<trkpt lat="43.832730" lon="5.412885"><ele></ele><time>2014-4-27T14:57:54Z</time></trkpt>
<trkpt lat="43.832843" lon="5.412793"><ele></ele><time>2014-4-27T14:57:57Z</time></trkpt>
<trkpt lat="43.832947" lon="5.412682"><ele></ele><time>2014-4-27T14:58:0Z</time></trkpt>
<trkpt lat="43.833062" lon="5.412570"><ele></ele><time>2014-4-27T14:58:3Z</time></trkpt>
<trkpt lat="43.833168" lon="5.412453"><ele></ele><time>2014-4-27T14:58:6Z</time></trkpt>
<trkpt lat="43.833282" lon="5.412337"><ele></ele><time>2014-4-27T14:58:9Z</time></trkpt>
<trkpt lat="43.833397" lon="5.412215"><ele></ele><time>2014-4-27T14:58:12Z</time></trkpt>
<trkpt lat="43.833515" lon="5.412095"><ele></ele><time>2014-4-27T14:58:15Z</time></trkpt>
<trkpt lat="43.833637" lon="5.411975"><ele></ele><time>2014-4-27T14:58:18Z</time></trkpt>
<trkpt lat="43.833787" lon="5.411863"><ele></ele><time>2014-4-27T14:58:21Z</time></trkpt>
<trkpt lat="43.833962" lon="5.411848"><ele></ele><time>2014-4-27T14:58:24Z</time></trkpt>
<trkpt lat="43.834137" lon="5.411972"><ele></ele><time>2014-4-27T14:58:27Z</time></trkpt>
<trkpt lat="43.834285" lon="5.412185"><ele></ele><time>2014-4-27T14:58:30Z</time></trkpt>
<trkpt lat="43.834447" lon="5.412423"><ele></ele><time>2014-4-27T14:58:33Z</time></trkpt>
<trkpt lat="43.834622" lon="5.412675"><ele></ele><time>2014-4-27T14:58:36Z</time></trkpt>
<trkpt lat="43.834800" lon="5.412932"><ele></ele><time>2014-4-27T14:58:39Z</time></trkpt>
<trkpt lat="43.835022" lon="5.413182"><ele></ele><time>2014-4-27T14:58:42Z</time></trkpt>
<trkpt lat="43.835273" lon="5.413452"><ele></ele><time>2014-4-27T14:58:45Z</time></trkpt>
<trkpt lat="43.835450" lon="5.413860"><ele></ele><time>2014-4-27T14:58:48Z</time></trkpt>
<trkpt lat="43.835468" lon="5.414413"><ele></ele><time>2014-4-27T14:58:51Z</time></trkpt>
<trkpt lat="43.835487" lon="5.415018"><ele></ele><time>2014-4-27T14:58:54Z</time></trkpt>
<trkpt lat="43.835510" lon="5.415645"><ele></ele><time>2014-4-27T14:58:57Z</time></trkpt>
<trkpt lat="43.835575" lon="5.416192"><ele></ele><time>2014-4-27T14:59:0Z</time></trkpt>
<trkpt lat="43.835788" lon="5.416633"><ele></ele><time>2014-4-27T14:59:3Z</time></trkpt>
<trkpt lat="43.835827" lon="5.417180"><ele></ele><time>2014-4-27T14:59:6Z</time></trkpt>
<trkpt lat="43.835583" lon="5.417675"><ele></ele><time>2014-4-27T14:59:9Z</time></trkpt>
<trkpt lat="43.835267" lon="5.418133"><ele></ele><time>2014-4-27T14:59:12Z</time></trkpt>
<trkpt lat="43.835015" lon="5.418680"><ele></ele><time>2014-4-27T14:59:15Z</time></trkpt>
<trkpt lat="43.834767" lon="5.419250"><ele></ele><time>2014-4-27T14:59:18Z</time></trkpt>
<trkpt lat="43.834527" lon="5.419753"><ele></ele><time>2014-4-27T14:59:21Z</time></trkpt>
<trkpt lat="43.834198" lon="5.419872"><ele></ele><time>2014-4-27T14:59:24Z</time></trkpt>
<trkpt lat="43.833977" lon="5.419995"><ele></ele><time>2014-4-27T14:59:27Z</time></trkpt>
<trkpt lat="43.834118" lon="5.420308"><ele></ele><time>2014-4-27T14:59:30Z</time></trkpt>
<trkpt lat="43.834282" lon="5.420670"><ele></ele><time>2014-4-27T14:59:33Z</time></trkpt>
<trkpt lat="43.834302" lon="5.421112"><ele></ele><time>2014-4-27T14:59:36Z</time></trkpt>
<trkpt lat="43.834462" lon="5.421415"><ele></ele><time>2014-4-27T14:59:39Z</time></trkpt>
<trkpt lat="43.834663" lon="5.421213"><ele></ele><time>2014-4-27T14:59:42Z</time></trkpt>
<trkpt lat="43.834800" lon="5.420932"><ele></ele><time>2014-4-27T14:59:45Z</time></trkpt>
<trkpt lat="43.834965" lon="5.420697"><ele></ele><time>2014-4-27T14:59:48Z</time></trkpt>
<trkpt lat="43.835128" lon="5.420497"><ele></ele><time>2014-4-27T14:59:51Z</time></trkpt>
<trkpt lat="43.835270" lon="5.420317"><ele></ele><time>2014-4-27T14:59:54Z</time></trkpt>
<trkpt lat="43.835395" lon="5.420158"><ele></ele><time>2014-4-27T14:59:57Z</time></trkpt>
<trkpt lat="43.835530" lon="5.419998"><ele></ele><time>2014-4-27T15:0:0Z</time></trkpt>
<trkpt lat="43.835663" lon="5.419837"><ele></ele><time>2014-4-27T15:0:3Z</time></trkpt>
<trkpt lat="43.835800" lon="5.419670"><ele></ele><time>2014-4-27T15:0:6Z</time></trkpt>
<trkpt lat="43.835942" lon="5.419502"><ele></ele><time>2014-4-27T15:0:9Z</time></trkpt>
<trkpt lat="43.836098" lon="5.419335"><ele></ele><time>2014-4-27T15:0:12Z</time></trkpt>
<trkpt lat="43.836273" lon="5.419210"><ele></ele><time>2014-4-27T15:0:15Z</time></trkpt>
<trkpt lat="43.836457" lon="5.419133"><ele></ele><time>2014-4-27T15:0:18Z</time></trkpt>
<trkpt lat="43.836658" lon="5.419103"><ele></ele><time>2014-4-27T15:0:21Z</time></trkpt>
<trkpt lat="43.836868" lon="5.419182"><ele></ele><time>2014-4-27T15:0:24Z</time></trkpt>
<trkpt lat="43.837075" lon="5.419368"><ele></ele><time>2014-4-27T15:0:27Z</time></trkpt>
<trkpt lat="43.837295" lon="5.419572"><ele></ele><time>2014-4-27T15:0:30Z</time></trkpt>
<trkpt lat="43.837555" lon="5.419758"><ele></ele><time>2014-4-27T15:0:33Z</time></trkpt>
<trkpt lat="43.837845" lon="5.419938"><ele></ele><time>2014-4-27T15:0:36Z</time></trkpt>
<trkpt lat="43.838147" lon="5.420222"><ele></ele><time>2014-4-27T15:0:39Z</time></trkpt>
<trkpt lat="43.838413" lon="5.420597"><ele></ele><time>2014-4-27T15:0:42Z</time></trkpt>
<trkpt lat="43.838630" lon="5.421025"><ele></ele><time>2014-4-27T15:0:45Z</time></trkpt>
<trkpt lat="43.838840" lon="5.421442"><ele></ele><time>2014-4-27T15:0:48Z</time></trkpt>
<trkpt lat="43.839032" lon="5.421817"><ele></ele><time>2014-4-27T15:0:51Z</time></trkpt>
<trkpt lat="43.839177" lon="5.422153"><ele></ele><time>2014-4-27T15:0:54Z</time></trkpt>
<trkpt lat="43.839283" lon="5.422458"><ele></ele><time>2014-4-27T15:0:57Z</time></trkpt>
<trkpt lat="43.839378" lon="5.422780"><ele></ele><time>2014-4-27T15:1:0Z</time></trkpt>
<trkpt lat="43.839558" lon="5.423025"><ele></ele><time>2014-4-27T15:1:3Z</time></trkpt>
<trkpt lat="43.839798" lon="5.423135"><ele></ele><time>2014-4-27T15:1:6Z</time></trkpt>
<trkpt lat="43.839977" lon="5.423227"><ele></ele><time>2014-4-27T15:1:9Z</time></trkpt>
<trkpt lat="43.840115" lon="5.423338"><ele></ele><time>2014-4-27T15:1:12Z</time></trkpt>
<trkpt lat="43.840207" lon="5.423495"><ele></ele><time>2014-4-27T15:1:15Z</time></trkpt>
<trkpt lat="43.840263" lon="5.423668"><ele></ele><time>2014-4-27T15:1:18Z</time></trkpt>
<trkpt lat="43.840305" lon="5.423833"><ele></ele><time>2014-4-27T15:1:21Z</time></trkpt>
<trkpt lat="43.840347" lon="5.423982"><ele></ele><time>2014-4-27T15:1:24Z</time></trkpt>
<trkpt lat="43.840382" lon="5.424128"><ele></ele><time>2014-4-27T15:1:27Z</time></trkpt>
<trkpt lat="43.840420" lon="5.424258"><ele></ele><time>2014-4-27T15:1:30Z</time></trkpt>
<trkpt lat="43.840492" lon="5.424323"><ele></ele><time>2014-4-27T15:1:33Z</time></trkpt>
<trkpt lat="43.840588" lon="5.424282"><ele></ele><time>2014-4-27T15:1:36Z</time></trkpt>
<trkpt lat="43.840630" lon="5.424145"><ele></ele><time>2014-4-27T15:1:39Z</time></trkpt>
<trkpt lat="43.840598" lon="5.423988"><ele></ele><time>2014-4-27T15:1:42Z</time></trkpt>
<trkpt lat="43.840542" lon="5.423842"><ele></ele><time>2014-4-27T15:1:45Z</time></trkpt>
<trkpt lat="43.840492" lon="5.423692"><ele></ele><time>2014-4-27T15:1:48Z</time></trkpt>
<trkpt lat="43.840438" lon="5.423537"><ele></ele><time>2014-4-27T15:1:51Z</time></trkpt>
<trkpt lat="43.840400" lon="5.423380"><ele></ele><time>2014-4-27T15:1:54Z</time></trkpt>
<trkpt lat="43.840378" lon="5.423213"><ele></ele><time>2014-4-27T15:1:57Z</time></trkpt>
<trkpt lat="43.840373" lon="5.423045"><ele></ele><time>2014-4-27T15:2:0Z</time></trkpt>
<trkpt lat="43.840397" lon="5.422882"><ele></ele><time>2014-4-27T15:2:3Z</time></trkpt>
<trkpt lat="43.840427" lon="5.422723"><ele></ele><time>2014-4-27T15:2:6Z</time></trkpt>
<trkpt lat="43.840470" lon="5.422567"><ele></ele><time>2014-4-27T15:2:9Z</time></trkpt>
<trkpt lat="43.840503" lon="5.422405"><ele></ele><time>2014-4-27T15:2:12Z</time></trkpt>
<trkpt lat="43.840530" lon="5.422237"><ele></ele><time>2014-4-27T15:2:15Z</time></trkpt>
<trkpt lat="43.840523" lon="5.422068"><ele></ele><time>2014-4-27T15:2:18Z</time></trkpt>
<trkpt lat="43.840485" lon="5.421910"><ele></ele><time>2014-4-27T15:2:21Z</time></trkpt>
<trkpt lat="43.840420" lon="5.421773"><ele></ele><time>2014-4-27T15:2:24Z</time></trkpt>
<trkpt lat="43.840343" lon="5.421635"><ele></ele><time>2014-4-27T15:2:27Z</time></trkpt>
<trkpt lat="43.840275" lon="5.421498"><ele></ele><time>2014-4-27T15:2:30Z</time></trkpt>
<trkpt lat="43.840187" lon="5.421355"><ele></ele><time>2014-4-27T15:2:33Z</time></trkpt>
<trkpt lat="43.840110" lon="5.421210"><ele></ele><time>2014-4-27T15:2:36Z</time></trkpt>
<trkpt lat="43.840038" lon="5.421055"><ele></ele><time>2014-4-27T15:2:39Z</time></trkpt>
<trkpt lat="43.840015" lon="5.420870"><ele></ele><time>2014-4-27T15:2:42Z</time></trkpt>
<trkpt lat="43.840057" lon="5.420697"><ele></ele><time>2014-4-27T15:2:45Z</time></trkpt>
<trkpt lat="43.840148" lon="5.420587"><ele></ele><time>2014-4-27T15:2:48Z</time></trkpt>
<trkpt lat="43.840255" lon="5.420510"><ele></ele><time>2014-4-27T15:2:51Z</time></trkpt>
<trkpt lat="43.840367" lon="5.420433"><ele></ele><time>2014-4-27T15:2:54Z</time></trkpt>
<trkpt lat="43.840473" lon="5.420362"><ele></ele><time>2014-4-27T15:2:57Z</time></trkpt>
<trkpt lat="43.840580" lon="5.420290"><ele></ele><time>2014-4-27T15:3:0Z</time></trkpt>
<trkpt lat="43.840690" lon="5.420215"><ele></ele><time>2014-4-27T15:3:3Z</time></trkpt>
<trkpt lat="43.840805" lon="5.420135"><ele></ele><time>2014-4-27T15:3:6Z</time></trkpt>
<trkpt lat="43.840927" lon="5.420052"><ele></ele><time>2014-4-27T15:3:9Z</time></trkpt>
<trkpt lat="43.841045" lon="5.419972"><ele></ele><time>2014-4-27T15:3:12Z</time></trkpt>
<trkpt lat="43.841172" lon="5.419900"><ele></ele><time>2014-4-27T15:3:15Z</time></trkpt>
<trkpt lat="43.841297" lon="5.419868"><ele></ele><time>2014-4-27T15:3:18Z</time></trkpt>
<trkpt lat="43.841427" lon="5.419897"><ele></ele><time>2014-4-27T15:3:21Z</time></trkpt>
<trkpt lat="43.841553" lon="5.419967"><ele></ele><time>2014-4-27T15:3:24Z</time></trkpt>
<trkpt lat="43.841687" lon="5.419972"><ele></ele><time>2014-4-27T15:3:27Z</time></trkpt>
<trkpt lat="43.841773" lon="5.419835"><ele></ele><time>2014-4-27T15:3:30Z</time></trkpt>
<trkpt lat="43.841752" lon="5.419652"><ele></ele><time>2014-4-27T15:3:33Z</time></trkpt>
<trkpt lat="43.841687" lon="5.419482"><ele></ele><time>2014-4-27T15:3:36Z</time></trkpt>
<trkpt lat="43.841622" lon="5.419313"><ele></ele><time>2014-4-27T15:3:39Z</time></trkpt>
<trkpt lat="43.841572" lon="5.419133"><ele></ele><time>2014-4-27T15:3:42Z</time></trkpt>
<trkpt lat="43.841575" lon="5.418942"><ele></ele><time>2014-4-27T15:3:45Z</time></trkpt>
<trkpt lat="43.841633" lon="5.418765"><ele></ele><time>2014-4-27T15:3:48Z</time></trkpt>
<trkpt lat="43.841725" lon="5.418627"><ele></ele><time>2014-4-27T15:3:51Z</time></trkpt>
<trkpt lat="43.841838" lon="5.418525"><ele></ele><time>2014-4-27T15:3:54Z</time></trkpt>
<trkpt lat="43.841972" lon="5.418470"><ele></ele><time>2014-4-27T15:3:57Z</time></trkpt>
<trkpt lat="43.842107" lon="5.418477"><ele></ele><time>2014-4-27T15:4:0Z</time></trkpt>
<trkpt lat="43.842235" lon="5.418507"><ele></ele><time>2014-4-27T15:4:3Z</time></trkpt>
<trkpt lat="43.842373" lon="5.418490"><ele></ele><time>2014-4-27T15:4:6Z</time></trkpt>
<trkpt lat="43.842492" lon="5.418385"><ele></ele><time>2014-4-27T15:4:9Z</time></trkpt>
<trkpt lat="43.842590" lon="5.418258"><ele></ele><time>2014-4-27T15:4:12Z</time></trkpt>
<trkpt lat="43.842693" lon="5.418128"><ele></ele><time>2014-4-27T15:4:15Z</time></trkpt>
<trkpt lat="43.842803" lon="5.417998"><ele></ele><time>2014-4-27T15:4:18Z</time></trkpt>
<trkpt lat="43.842910" lon="5.417868"><ele></ele><time>2014-4-27T15:4:21Z</time></trkpt>
<trkpt lat="43.843018" lon="5.417733"><ele></ele><time>2014-4-27T15:4:24Z</time></trkpt>
<trkpt lat="43.843140" lon="5.417590"><ele></ele><time>2014-4-27T15:4:27Z</time></trkpt>
<trkpt lat="43.843277" lon="5.417442"><ele></ele><time>2014-4-27T15:4:30Z</time></trkpt>
<trkpt lat="43.843407" lon="5.417282"><ele></ele><time>2014-4-27T15:4:33Z</time></trkpt>
<trkpt lat="43.843543" lon="5.417112"><ele></ele><time>2014-4-27T15:4:36Z</time></trkpt>
<trkpt lat="43.843688" lon="5.416918"><ele></ele><time>2014-4-27T15:4:39Z</time></trkpt>
<trkpt lat="43.843833" lon="5.416697"><ele></ele><time>2014-4-27T15:4:42Z</time></trkpt>
<trkpt lat="43.843990" lon="5.416450"><ele></ele><time>2014-4-27T15:4:45Z</time></trkpt>
<trkpt lat="43.844143" lon="5.416185"><ele></ele><time>2014-4-27T15:4:48Z</time></trkpt>
<trkpt lat="43.844295" lon="5.415925"><ele></ele><time>2014-4-27T15:4:51Z</time></trkpt>
<trkpt lat="43.844452" lon="5.415658"><ele></ele><time>2014-4-27T15:4:54Z</time></trkpt>
<trkpt lat="43.844620" lon="5.415372"><ele></ele><time>2014-4-27T15:4:57Z</time></trkpt>
<trkpt lat="43.844795" lon="5.415068"><ele></ele><time>2014-4-27T15:5:0Z</time></trkpt>
<trkpt lat="43.844970" lon="5.414765"><ele></ele><time>2014-4-27T15:5:3Z</time></trkpt>
<trkpt lat="43.845138" lon="5.414467"><ele></ele><time>2014-4-27T15:5:6Z</time></trkpt>
<trkpt lat="43.845322" lon="5.414158"><ele></ele><time>2014-4-27T15:5:9Z</time></trkpt>
<trkpt lat="43.845502" lon="5.413845"><ele></ele><time>2014-4-27T15:5:12Z</time></trkpt>
<trkpt lat="43.845688" lon="5.413542"><ele></ele><time>2014-4-27T15:5:15Z</time></trkpt>
<trkpt lat="43.845917" lon="5.413402"><ele></ele><time>2014-4-27T15:5:18Z</time></trkpt>
<trkpt lat="43.845958" lon="5.413758"><ele></ele><time>2014-4-27T15:5:21Z</time></trkpt>
<trkpt lat="43.845943" lon="5.414142"><ele></ele><time>2014-4-27T15:5:24Z</time></trkpt>
<trkpt lat="43.845928" lon="5.414530"><ele></ele><time>2014-4-27T15:5:27Z</time></trkpt>
<trkpt lat="43.845917" lon="5.414922"><ele></ele><time>2014-4-27T15:5:30Z</time></trkpt>
<trkpt lat="43.845905" lon="5.415322"><ele></ele><time>2014-4-27T15:5:33Z</time></trkpt>
<trkpt lat="43.845887" lon="5.415722"><ele></ele><time>2014-4-27T15:5:36Z</time></trkpt>
<trkpt lat="43.845875" lon="5.416115"><ele></ele><time>2014-4-27T15:5:39Z</time></trkpt>
<trkpt lat="43.845855" lon="5.416505"><ele></ele><time>2014-4-27T15:5:42Z</time></trkpt>
<trkpt lat="43.845848" lon="5.416883"><ele></ele><time>2014-4-27T15:5:45Z</time></trkpt>
<trkpt lat="43.845828" lon="5.417277"><ele></ele><time>2014-4-27T15:5:48Z</time></trkpt>
<trkpt lat="43.845818" lon="5.417683"><ele></ele><time>2014-4-27T15:5:51Z</time></trkpt>
<trkpt lat="43.845802" lon="5.418082"><ele></ele><time>2014-4-27T15:5:54Z</time></trkpt>
<trkpt lat="43.845787" lon="5.418478"><ele></ele><time>2014-4-27T15:5:57Z</time></trkpt>
<trkpt lat="43.845775" lon="5.418870"><ele></ele><time>2014-4-27T15:6:0Z</time></trkpt>
<trkpt lat="43.845760" lon="5.419228"><ele></ele><time>2014-4-27T15:6:3Z</time></trkpt>
<trkpt lat="43.845783" lon="5.419567"><ele></ele><time>2014-4-27T15:6:6Z</time></trkpt>
<trkpt lat="43.845905" lon="5.419862"><ele></ele><time>2014-4-27T15:6:9Z</time></trkpt>
<trkpt lat="43.846097" lon="5.420067"><ele></ele><time>2014-4-27T15:6:12Z</time></trkpt>
<trkpt lat="43.846307" lon="5.420147"><ele></ele><time>2014-4-27T15:6:15Z</time></trkpt>
<trkpt lat="43.846532" lon="5.420113"><ele></ele><time>2014-4-27T15:6:18Z</time></trkpt>
<trkpt lat="43.846737" lon="5.420040"><ele></ele><time>2014-4-27T15:6:21Z</time></trkpt>
<trkpt lat="43.846870" lon="5.420068"><ele></ele><time>2014-4-27T15:6:24Z</time></trkpt>
<trkpt lat="43.846878" lon="5.420192"><ele></ele><time>2014-4-27T15:6:27Z</time></trkpt>
<trkpt lat="43.846878" lon="5.420232"><ele></ele><time>2014-4-27T15:6:30Z</time></trkpt>
<trkpt lat="43.846875" lon="5.420227"><ele></ele><time>2014-4-27T15:6:33Z</time></trkpt>
<trkpt lat="43.846870" lon="5.420197"><ele></ele><time>2014-4-27T15:6:36Z</time></trkpt>
<trkpt lat="43.846867" lon="5.420093"><ele></ele><time>2014-4-27T15:6:39Z</time></trkpt>
<trkpt lat="43.846837" lon="5.419960"><ele></ele><time>2014-4-27T15:6:42Z</time></trkpt>
<trkpt lat="43.846698" lon="5.419955"><ele></ele><time>2014-4-27T15:6:45Z</time></trkpt>
<trkpt lat="43.846547" lon="5.420007"><ele></ele><time>2014-4-27T15:6:48Z</time></trkpt>
<trkpt lat="43.846378" lon="5.420065"><ele></ele><time>2014-4-27T15:6:51Z</time></trkpt>
<trkpt lat="43.846198" lon="5.420170"><ele></ele><time>2014-4-27T15:6:54Z</time></trkpt>
<trkpt lat="43.846012" lon="5.420232"><ele></ele><time>2014-4-27T15:6:57Z</time></trkpt>
<trkpt lat="43.845813" lon="5.420282"><ele></ele><time>2014-4-27T15:7:0Z</time></trkpt>
<trkpt lat="43.845715" lon="5.420507"><ele></ele><time>2014-4-27T15:7:3Z</time></trkpt>
<trkpt lat="43.845707" lon="5.420807"><ele></ele><time>2014-4-27T15:7:6Z</time></trkpt>
<trkpt lat="43.845700" lon="5.421102"><ele></ele><time>2014-4-27T15:7:9Z</time></trkpt>
<trkpt lat="43.845688" lon="5.421395"><ele></ele><time>2014-4-27T15:7:12Z</time></trkpt>
<trkpt lat="43.845683" lon="5.421702"><ele></ele><time>2014-4-27T15:7:15Z</time></trkpt>
<trkpt lat="43.845680" lon="5.422017"><ele></ele><time>2014-4-27T15:7:18Z</time></trkpt>
<trkpt lat="43.845673" lon="5.422335"><ele></ele><time>2014-4-27T15:7:21Z</time></trkpt>
<trkpt lat="43.845657" lon="5.422647"><ele></ele><time>2014-4-27T15:7:24Z</time></trkpt>
<trkpt lat="43.845642" lon="5.422970"><ele></ele><time>2014-4-27T15:7:27Z</time></trkpt>
<trkpt lat="43.845623" lon="5.423307"><ele></ele><time>2014-4-27T15:7:30Z</time></trkpt>
<trkpt lat="43.845608" lon="5.423657"><ele></ele><time>2014-4-27T15:7:33Z</time></trkpt>
<trkpt lat="43.845592" lon="5.424003"><ele></ele><time>2014-4-27T15:7:36Z</time></trkpt>
<trkpt lat="43.845582" lon="5.424353"><ele></ele><time>2014-4-27T15:7:39Z</time></trkpt>
<trkpt lat="43.845570" lon="5.424707"><ele></ele><time>2014-4-27T15:7:42Z</time></trkpt>
<trkpt lat="43.845562" lon="5.425052"><ele></ele><time>2014-4-27T15:7:45Z</time></trkpt>
<trkpt lat="43.845550" lon="5.425385"><ele></ele><time>2014-4-27T15:7:48Z</time></trkpt>
<trkpt lat="43.845528" lon="5.425722"><ele></ele><time>2014-4-27T15:7:51Z</time></trkpt>
<trkpt lat="43.845505" lon="5.426063"><ele></ele><time>2014-4-27T15:7:54Z</time></trkpt>
<trkpt lat="43.845490" lon="5.426412"><ele></ele><time>2014-4-27T15:7:57Z</time></trkpt>
<trkpt lat="43.845478" lon="5.426758"><ele></ele><time>2014-4-27T15:8:0Z</time></trkpt>
<trkpt lat="43.845470" lon="5.427085"><ele></ele><time>2014-4-27T15:8:3Z</time></trkpt>
<trkpt lat="43.845458" lon="5.427417"><ele></ele><time>2014-4-27T15:8:6Z</time></trkpt>
<trkpt lat="43.845428" lon="5.427765"><ele></ele><time>2014-4-27T15:8:9Z</time></trkpt>
<trkpt lat="43.845402" lon="5.428113"><ele></ele><time>2014-4-27T15:8:12Z</time></trkpt>
<trkpt lat="43.845372" lon="5.428457"><ele></ele><time>2014-4-27T15:8:15Z</time></trkpt>
<trkpt lat="43.845340" lon="5.428813"><ele></ele><time>2014-4-27T15:8:18Z</time></trkpt>
<trkpt lat="43.845313" lon="5.429183"><ele></ele><time>2014-4-27T15:8:21Z</time></trkpt>
<trkpt lat="43.845287" lon="5.429558"><ele></ele><time>2014-4-27T15:8:24Z</time></trkpt>
<trkpt lat="43.845260" lon="5.429935"><ele></ele><time>2014-4-27T15:8:27Z</time></trkpt>
<trkpt lat="43.845230" lon="5.430292"><ele></ele><time>2014-4-27T15:8:30Z</time></trkpt>
<trkpt lat="43.845207" lon="5.430658"><ele></ele><time>2014-4-27T15:8:33Z</time></trkpt>
<trkpt lat="43.845185" lon="5.431080"><ele></ele><time>2014-4-27T15:8:36Z</time></trkpt>
<trkpt lat="43.845147" lon="5.431532"><ele></ele><time>2014-4-27T15:8:39Z</time></trkpt>
<trkpt lat="43.845238" lon="5.431953"><ele></ele><time>2014-4-27T15:8:42Z</time></trkpt>
<trkpt lat="43.845432" lon="5.432302"><ele></ele><time>2014-4-27T15:8:45Z</time></trkpt>
<trkpt lat="43.845627" lon="5.432640"><ele></ele><time>2014-4-27T15:8:48Z</time></trkpt>
<trkpt lat="43.845818" lon="5.432983"><ele></ele><time>2014-4-27T15:8:51Z</time></trkpt>
<trkpt lat="43.846017" lon="5.433330"><ele></ele><time>2014-4-27T15:8:54Z</time></trkpt>
<trkpt lat="43.846210" lon="5.433663"><ele></ele><time>2014-4-27T15:8:57Z</time></trkpt>
<trkpt lat="43.846397" lon="5.434015"><ele></ele><time>2014-4-27T15:9:0Z</time></trkpt>
<trkpt lat="43.846607" lon="5.434358"><ele></ele><time>2014-4-27T15:9:3Z</time></trkpt>
<trkpt lat="43.846875" lon="5.434563"><ele></ele><time>2014-4-27T15:9:6Z</time></trkpt>
<trkpt lat="43.847130" lon="5.434655"><ele></ele><time>2014-4-27T15:9:9Z</time></trkpt>
<trkpt lat="43.847340" lon="5.434708"><ele></ele><time>2014-4-27T15:9:12Z</time></trkpt>
<trkpt lat="43.847565" lon="5.434758"><ele></ele><time>2014-4-27T15:9:15Z</time></trkpt>
<trkpt lat="43.847850" lon="5.434820"><ele></ele><time>2014-4-27T15:9:18Z</time></trkpt>
<trkpt lat="43.848210" lon="5.434902"><ele></ele><time>2014-4-27T15:9:21Z</time></trkpt>
<trkpt lat="43.848557" lon="5.434980"><ele></ele><time>2014-4-27T15:9:24Z</time></trkpt>
<trkpt lat="43.848870" lon="5.435045"><ele></ele><time>2014-4-27T15:9:27Z</time></trkpt>
<trkpt lat="43.849163" lon="5.435108"><ele></ele><time>2014-4-27T15:9:30Z</time></trkpt>
<trkpt lat="43.849460" lon="5.435178"><ele></ele><time>2014-4-27T15:9:33Z</time></trkpt>
<trkpt lat="43.849770" lon="5.435247"><ele></ele><time>2014-4-27T15:9:36Z</time></trkpt>
<trkpt lat="43.850090" lon="5.435322"><ele></ele><time>2014-4-27T15:9:39Z</time></trkpt>
<trkpt lat="43.850422" lon="5.435388"><ele></ele><time>2014-4-27T15:9:42Z</time></trkpt>
<trkpt lat="43.850785" lon="5.435457"><ele></ele><time>2014-4-27T15:9:45Z</time></trkpt>
<trkpt lat="43.851143" lon="5.435540"><ele></ele><time>2014-4-27T15:9:48Z</time></trkpt>
<trkpt lat="43.851487" lon="5.435623"><ele></ele><time>2014-4-27T15:9:51Z</time></trkpt>
<trkpt lat="43.851783" lon="5.435530"><ele></ele><time>2014-4-27T15:9:54Z</time></trkpt>
<trkpt lat="43.852055" lon="5.435303"><ele></ele><time>2014-4-27T15:9:57Z</time></trkpt>
<trkpt lat="43.852360" lon="5.435125"><ele></ele><time>2014-4-27T15:10:0Z</time></trkpt>
<trkpt lat="43.852673" lon="5.434955"><ele></ele><time>2014-4-27T15:10:3Z</time></trkpt>
<trkpt lat="43.852990" lon="5.434795"><ele></ele><time>2014-4-27T15:10:6Z</time></trkpt>
<trkpt lat="43.853302" lon="5.434662"><ele></ele><time>2014-4-27T15:10:9Z</time></trkpt>
<trkpt lat="43.853633" lon="5.434550"><ele></ele><time>2014-4-27T15:10:12Z</time></trkpt>
<trkpt lat="43.853950" lon="5.434500"><ele></ele><time>2014-4-27T15:10:15Z</time></trkpt>
<trkpt lat="43.854263" lon="5.434515"><ele></ele><time>2014-4-27T15:10:18Z</time></trkpt>
<trkpt lat="43.854588" lon="5.434492"><ele></ele><time>2014-4-27T15:10:21Z</time></trkpt>
<trkpt lat="43.854908" lon="5.434407"><ele></ele><time>2014-4-27T15:10:24Z</time></trkpt>
<trkpt lat="43.855240" lon="5.434270"><ele></ele><time>2014-4-27T15:10:27Z</time></trkpt>
<trkpt lat="43.855602" lon="5.434243"><ele></ele><time>2014-4-27T15:10:30Z</time></trkpt>
<trkpt lat="43.855892" lon="5.434328"><ele></ele><time>2014-4-27T15:10:33Z</time></trkpt>
<trkpt lat="43.856155" lon="5.434375"><ele></ele><time>2014-4-27T15:10:36Z</time></trkpt>
<trkpt lat="43.856400" lon="5.434410"><ele></ele><time>2014-4-27T15:10:39Z</time></trkpt>
<trkpt lat="43.856632" lon="5.434447"><ele></ele><time>2014-4-27T15:10:42Z</time></trkpt>
<trkpt lat="43.856842" lon="5.434477"><ele></ele><time>2014-4-27T15:10:45Z</time></trkpt>
<trkpt lat="43.857013" lon="5.434523"><ele></ele><time>2014-4-27T15:10:48Z</time></trkpt>
<trkpt lat="43.857247" lon="5.434527"><ele></ele><time>2014-4-27T15:10:51Z</time></trkpt>
<trkpt lat="43.857437" lon="5.434455"><ele></ele><time>2014-4-27T15:10:54Z</time></trkpt>
<trkpt lat="43.857650" lon="5.434388"><ele></ele><time>2014-4-27T15:10:57Z</time></trkpt>
<trkpt lat="43.857887" lon="5.434287"><ele></ele><time>2014-4-27T15:11:0Z</time></trkpt>
<trkpt lat="43.858108" lon="5.434133"><ele></ele><time>2014-4-27T15:11:3Z</time></trkpt>
<trkpt lat="43.858327" lon="5.433967"><ele></ele><time>2014-4-27T15:11:6Z</time></trkpt>
<trkpt lat="43.858558" lon="5.433800"><ele></ele><time>2014-4-27T15:11:9Z</time></trkpt>
<trkpt lat="43.858803" lon="5.433700"><ele></ele><time>2014-4-27T15:11:12Z</time></trkpt>
<trkpt lat="43.859032" lon="5.433542"><ele></ele><time>2014-4-27T15:11:15Z</time></trkpt>
<trkpt lat="43.859218" lon="5.433368"><ele></ele><time>2014-4-27T15:11:18Z</time></trkpt>
<trkpt lat="43.859378" lon="5.433173"><ele></ele><time>2014-4-27T15:11:21Z</time></trkpt>
<trkpt lat="43.859562" lon="5.432983"><ele></ele><time>2014-4-27T15:11:24Z</time></trkpt>
<trkpt lat="43.859742" lon="5.432765"><ele></ele><time>2014-4-27T15:11:27Z</time></trkpt>
<trkpt lat="43.859902" lon="5.432560"><ele></ele><time>2014-4-27T15:11:30Z</time></trkpt>
<trkpt lat="43.860000" lon="5.432465"><ele></ele><time>2014-4-27T15:11:33Z</time></trkpt>
<trkpt lat="43.860077" lon="5.432197"><ele></ele><time>2014-4-27T15:11:36Z</time></trkpt>
<trkpt lat="43.860157" lon="5.431797"><ele></ele><time>2014-4-27T15:11:39Z</time></trkpt>
<trkpt lat="43.860210" lon="5.431520"><ele></ele><time>2014-4-27T15:11:42Z</time></trkpt>
<trkpt lat="43.860263" lon="5.431403"><ele></ele><time>2014-4-27T15:11:45Z</time></trkpt>
<trkpt lat="43.860302" lon="5.431208"><ele></ele><time>2014-4-27T15:11:48Z</time></trkpt>
<trkpt lat="43.860348" lon="5.431000"><ele></ele><time>2014-4-27T15:11:51Z</time></trkpt>
<trkpt lat="43.860397" lon="5.430758"><ele></ele><time>2014-4-27T15:11:54Z</time></trkpt>
<trkpt lat="43.860450" lon="5.430513"><ele></ele><time>2014-4-27T15:11:57Z</time></trkpt>
<trkpt lat="43.860573" lon="5.430385"><ele></ele><time>2014-4-27T15:12:0Z</time></trkpt>
<trkpt lat="43.860772" lon="5.430318"><ele></ele><time>2014-4-27T15:12:3Z</time></trkpt>
<trkpt lat="43.860973" lon="5.430255"><ele></ele><time>2014-4-27T15:12:6Z</time></trkpt>
<trkpt lat="43.861172" lon="5.430190"><ele></ele><time>2014-4-27T15:12:9Z</time></trkpt>
<trkpt lat="43.861367" lon="5.430127"><ele></ele><time>2014-4-27T15:12:12Z</time></trkpt>
<trkpt lat="43.861533" lon="5.430048"><ele></ele><time>2014-4-27T15:12:15Z</time></trkpt>
<trkpt lat="43.861713" lon="5.430012"><ele></ele><time>2014-4-27T15:12:18Z</time></trkpt>
<trkpt lat="43.861760" lon="5.429810"><ele></ele><time>2014-4-27T15:12:21Z</time></trkpt>
<trkpt lat="43.861580" lon="5.429623"><ele></ele><time>2014-4-27T15:12:24Z</time></trkpt>
<trkpt lat="43.861305" lon="5.429488"><ele></ele><time>2014-4-27T15:12:27Z</time></trkpt>
<trkpt lat="43.861133" lon="5.429072"><ele></ele><time>2014-4-27T15:12:30Z</time></trkpt>
<trkpt lat="43.861027" lon="5.428563"><ele></ele><time>2014-4-27T15:12:33Z</time></trkpt>
<trkpt lat="43.860867" lon="5.428058"><ele></ele><time>2014-4-27T15:12:36Z</time></trkpt>
<trkpt lat="43.860618" lon="5.427595"><ele></ele><time>2014-4-27T15:12:39Z</time></trkpt>
<trkpt lat="43.860317" lon="5.427287"><ele></ele><time>2014-4-27T15:12:42Z</time></trkpt>
<trkpt lat="43.860172" lon="5.426955"><ele></ele><time>2014-4-27T15:12:45Z</time></trkpt>
<trkpt lat="43.860420" lon="5.426757"><ele></ele><time>2014-4-27T15:12:48Z</time></trkpt>
<trkpt lat="43.860730" lon="5.426915"><ele></ele><time>2014-4-27T15:12:51Z</time></trkpt>
<trkpt lat="43.861027" lon="5.427073"><ele></ele><time>2014-4-27T15:12:54Z</time></trkpt>
<trkpt lat="43.861358" lon="5.427163"><ele></ele><time>2014-4-27T15:12:57Z</time></trkpt>
<trkpt lat="43.861737" lon="5.427257"><ele></ele><time>2014-4-27T15:13:0Z</time></trkpt>
<trkpt lat="43.862137" lon="5.427240"><ele></ele><time>2014-4-27T15:13:3Z</time></trkpt>
<trkpt lat="43.862542" lon="5.427037"><ele></ele><time>2014-4-27T15:13:6Z</time></trkpt>
<trkpt lat="43.862762" lon="5.426737"><ele></ele><time>2014-4-27T15:13:9Z</time></trkpt>
<trkpt lat="43.862527" lon="5.426358"><ele></ele><time>2014-4-27T15:13:12Z</time></trkpt>
<trkpt lat="43.862205" lon="5.426033"><ele></ele><time>2014-4-27T15:13:15Z</time></trkpt>
<trkpt lat="43.861893" lon="5.425705"><ele></ele><time>2014-4-27T15:13:18Z</time></trkpt>
<trkpt lat="43.861580" lon="5.425382"><ele></ele><time>2014-4-27T15:13:21Z</time></trkpt>
<trkpt lat="43.861290" lon="5.424988"><ele></ele><time>2014-4-27T15:13:24Z</time></trkpt>
<trkpt lat="43.861160" lon="5.424380"><ele></ele><time>2014-4-27T15:13:27Z</time></trkpt>
<trkpt lat="43.861077" lon="5.423703"><ele></ele><time>2014-4-27T15:13:30Z</time></trkpt>
<trkpt lat="43.860970" lon="5.423017"><ele></ele><time>2014-4-27T15:13:33Z</time></trkpt>
<trkpt lat="43.860912" lon="5.422435"><ele></ele><time>2014-4-27T15:13:36Z</time></trkpt>
<trkpt lat="43.861195" lon="5.422067"><ele></ele><time>2014-4-27T15:13:39Z</time></trkpt>
<trkpt lat="43.861633" lon="5.421820"><ele></ele><time>2014-4-27T15:13:42Z</time></trkpt>
<trkpt lat="43.862015" lon="5.421343"><ele></ele><time>2014-4-27T15:13:45Z</time></trkpt>
<trkpt lat="43.862267" lon="5.420710"><ele></ele><time>2014-4-27T15:13:48Z</time></trkpt>
<trkpt lat="43.862572" lon="5.420253"><ele></ele><time>2014-4-27T15:13:51Z</time></trkpt>
<trkpt lat="43.863063" lon="5.420117"><ele></ele><time>2014-4-27T15:13:54Z</time></trkpt>
<trkpt lat="43.863495" lon="5.419978"><ele></ele><time>2014-4-27T15:13:57Z</time></trkpt>
<trkpt lat="43.863835" lon="5.419535"><ele></ele><time>2014-4-27T15:14:0Z</time></trkpt>
<trkpt lat="43.864125" lon="5.418958"><ele></ele><time>2014-4-27T15:14:3Z</time></trkpt>
<trkpt lat="43.864338" lon="5.418375"><ele></ele><time>2014-4-27T15:14:6Z</time></trkpt>
<trkpt lat="43.864300" lon="5.417702"><ele></ele><time>2014-4-27T15:14:9Z</time></trkpt>
<trkpt lat="43.864433" lon="5.417033"><ele></ele><time>2014-4-27T15:14:12Z</time></trkpt>
<trkpt lat="43.864655" lon="5.416412"><ele></ele><time>2014-4-27T15:14:15Z</time></trkpt>
<trkpt lat="43.864838" lon="5.415705"><ele></ele><time>2014-4-27T15:14:18Z</time></trkpt>
<trkpt lat="43.865005" lon="5.415088"><ele></ele><time>2014-4-27T15:14:21Z</time></trkpt>
<trkpt lat="43.865158" lon="5.414593"><ele></ele><time>2014-4-27T15:14:24Z</time></trkpt>
<trkpt lat="43.865513" lon="5.414230"><ele></ele><time>2014-4-27T15:14:27Z</time></trkpt>
<trkpt lat="43.866005" lon="5.414183"><ele></ele><time>2014-4-27T15:14:30Z</time></trkpt>
<trkpt lat="43.866447" lon="5.414208"><ele></ele><time>2014-4-27T15:14:33Z</time></trkpt>
<trkpt lat="43.866845" lon="5.414188"><ele></ele><time>2014-4-27T15:14:36Z</time></trkpt>
<trkpt lat="43.867215" lon="5.413968"><ele></ele><time>2014-4-27T15:14:39Z</time></trkpt>
<trkpt lat="43.867520" lon="5.413507"><ele></ele><time>2014-4-27T15:14:42Z</time></trkpt>
<trkpt lat="43.867820" lon="5.412983"><ele></ele><time>2014-4-27T15:14:45Z</time></trkpt>
<trkpt lat="43.868130" lon="5.412423"><ele></ele><time>2014-4-27T15:14:48Z</time></trkpt>
<trkpt lat="43.868435" lon="5.411862"><ele></ele><time>2014-4-27T15:14:51Z</time></trkpt>
<trkpt lat="43.868752" lon="5.411303"><ele></ele><time>2014-4-27T15:14:54Z</time></trkpt>
<trkpt lat="43.869160" lon="5.410818"><ele></ele><time>2014-4-27T15:14:57Z</time></trkpt>
<trkpt lat="43.869640" lon="5.410447"><ele></ele><time>2014-4-27T15:15:0Z</time></trkpt>
<trkpt lat="43.870167" lon="5.410195"><ele></ele><time>2014-4-27T15:15:3Z</time></trkpt>
<trkpt lat="43.870685" lon="5.409947"><ele></ele><time>2014-4-27T15:15:6Z</time></trkpt>
<trkpt lat="43.871155" lon="5.409633"><ele></ele><time>2014-4-27T15:15:9Z</time></trkpt>
<trkpt lat="43.871597" lon="5.409333"><ele></ele><time>2014-4-27T15:15:12Z</time></trkpt>
<trkpt lat="43.872017" lon="5.409045"><ele></ele><time>2014-4-27T15:15:15Z</time></trkpt>
<trkpt lat="43.872413" lon="5.408775"><ele></ele><time>2014-4-27T15:15:18Z</time></trkpt>
<trkpt lat="43.872810" lon="5.408503"><ele></ele><time>2014-4-27T15:15:21Z</time></trkpt>
<trkpt lat="43.873222" lon="5.408187"><ele></ele><time>2014-4-27T15:15:24Z</time></trkpt>
<trkpt lat="43.873508" lon="5.407690"><ele></ele><time>2014-4-27T15:15:27Z</time></trkpt>
<trkpt lat="43.873555" lon="5.407068"><ele></ele><time>2014-4-27T15:15:30Z</time></trkpt>
<trkpt lat="43.873463" lon="5.406608"><ele></ele><time>2014-4-27T15:15:33Z</time></trkpt>
<trkpt lat="43.873287" lon="5.406135"><ele></ele><time>2014-4-27T15:15:36Z</time></trkpt>
<trkpt lat="43.873207" lon="5.405563"><ele></ele><time>2014-4-27T15:15:39Z</time></trkpt>
<trkpt lat="43.873432" lon="5.405132"><ele></ele><time>2014-4-27T15:15:42Z</time></trkpt>
<trkpt lat="43.873802" lon="5.404738"><ele></ele><time>2014-4-27T15:15:45Z</time></trkpt>
<trkpt lat="43.873993" lon="5.404152"><ele></ele><time>2014-4-27T15:15:48Z</time></trkpt>
<trkpt lat="43.874097" lon="5.403520"><ele></ele><time>2014-4-27T15:15:51Z</time></trkpt>
<trkpt lat="43.874195" lon="5.402918"><ele></ele><time>2014-4-27T15:15:54Z</time></trkpt>
<trkpt lat="43.874278" lon="5.402338"><ele></ele><time>2014-4-27T15:15:57Z</time></trkpt>
<trkpt lat="43.874363" lon="5.401772"><ele></ele><time>2014-4-27T15:16:0Z</time></trkpt>
<trkpt lat="43.874473" lon="5.401225"><ele></ele><time>2014-4-27T15:16:3Z</time></trkpt>
<trkpt lat="43.874737" lon="5.400935"><ele></ele><time>2014-4-27T15:16:6Z</time></trkpt>
<trkpt lat="43.874855" lon="5.400825"><ele></ele><time>2014-4-27T15:16:9Z</time></trkpt>
<trkpt lat="43.874962" lon="5.400838"><ele></ele><time>2014-4-27T15:16:12Z</time></trkpt>
<trkpt lat="43.875163" lon="5.400718"><ele></ele><time>2014-4-27T15:16:15Z</time></trkpt>
<trkpt lat="43.875355" lon="5.400502"><ele></ele><time>2014-4-27T15:16:18Z</time></trkpt>
<trkpt lat="43.875523" lon="5.400320"><ele></ele><time>2014-4-27T15:16:21Z</time></trkpt>
<trkpt lat="43.875622" lon="5.400105"><ele></ele><time>2014-4-27T15:16:24Z</time></trkpt>
<trkpt lat="43.875553" lon="5.399912"><ele></ele><time>2014-4-27T15:16:27Z</time></trkpt>
<trkpt lat="43.875607" lon="5.399747"><ele></ele><time>2014-4-27T15:16:30Z</time></trkpt>
<trkpt lat="43.875660" lon="5.399582"><ele></ele><time>2014-4-27T15:16:33Z</time></trkpt>
<trkpt lat="43.875713" lon="5.399452"><ele></ele><time>2014-4-27T15:16:36Z</time></trkpt>
<trkpt lat="43.875790" lon="5.399348"><ele></ele><time>2014-4-27T15:16:39Z</time></trkpt>
<trkpt lat="43.875835" lon="5.399248"><ele></ele><time>2014-4-27T15:16:42Z</time></trkpt>
<trkpt lat="43.875832" lon="5.399183"><ele></ele><time>2014-4-27T15:16:45Z</time></trkpt>
<trkpt lat="43.875843" lon="5.399143"><ele></ele><time>2014-4-27T15:16:48Z</time></trkpt>
<trkpt lat="43.875840" lon="5.399128"><ele></ele><time>2014-4-27T15:16:51Z</time></trkpt>
<trkpt lat="43.875817" lon="5.399150"><ele></ele><time>2014-4-27T15:16:54Z</time></trkpt>
<trkpt lat="43.875808" lon="5.399208"><ele></ele><time>2014-4-27T15:16:57Z</time></trkpt>
<trkpt lat="43.875797" lon="5.399168"><ele></ele><time>2014-4-27T15:17:0Z</time></trkpt>
<trkpt lat="43.875888" lon="5.399222"><ele></ele><time>2014-4-27T15:17:3Z</time></trkpt>
<trkpt lat="43.875920" lon="5.399440"><ele></ele><time>2014-4-27T15:17:6Z</time></trkpt>
<trkpt lat="43.876012" lon="5.399422"><ele></ele><time>2014-4-27T15:17:9Z</time></trkpt>
<trkpt lat="43.875988" lon="5.399367"><ele></ele><time>2014-4-27T15:17:12Z</time></trkpt>
<trkpt lat="43.875950" lon="5.399308"><ele></ele><time>2014-4-27T15:17:15Z</time></trkpt>
<trkpt lat="43.875930" lon="5.399313"><ele></ele><time>2014-4-27T15:17:18Z</time></trkpt>
<trkpt lat="43.875908" lon="5.399347"><ele></ele><time>2014-4-27T15:17:21Z</time></trkpt>
<trkpt lat="43.875908" lon="5.399365"><ele></ele><time>2014-4-27T15:17:24Z</time></trkpt>
<trkpt lat="43.875930" lon="5.399343"><ele></ele><time>2014-4-27T15:17:27Z</time></trkpt>
<trkpt lat="43.875942" lon="5.399325"><ele></ele><time>2014-4-27T15:17:30Z</time></trkpt>
<trkpt lat="43.875947" lon="5.399300"><ele></ele><time>2014-4-27T15:17:33Z</time></trkpt>
<trkpt lat="43.875938" lon="5.399285"><ele></ele><time>2014-4-27T15:17:36Z</time></trkpt>
<trkpt lat="43.875935" lon="5.399288"><ele></ele><time>2014-4-27T15:17:39Z</time></trkpt>
<trkpt lat="43.875835" lon="5.399402"><ele></ele><time>2014-4-27T15:17:42Z</time></trkpt>
<trkpt lat="43.875813" lon="5.399602"><ele></ele><time>2014-4-27T15:17:45Z</time></trkpt>
<trkpt lat="43.875775" lon="5.399577"><ele></ele><time>2014-4-27T15:17:48Z</time></trkpt>
<trkpt lat="43.875778" lon="5.399437"><ele></ele><time>2014-4-27T15:17:51Z</time></trkpt>
<trkpt lat="43.875823" lon="5.399313"><ele></ele><time>2014-4-27T15:17:54Z</time></trkpt>
<trkpt lat="43.875775" lon="5.399268"><ele></ele><time>2014-4-27T15:17:57Z</time></trkpt>
<trkpt lat="43.875758" lon="5.399277"><ele></ele><time>2014-4-27T15:18:0Z</time></trkpt>
<trkpt lat="43.875778" lon="5.399208"><ele></ele><time>2014-4-27T15:18:3Z</time></trkpt>
<trkpt lat="43.875770" lon="5.399158"><ele></ele><time>2014-4-27T15:18:6Z</time></trkpt>
<trkpt lat="43.875808" lon="5.399053"><ele></ele><time>2014-4-27T15:18:9Z</time></trkpt>
</trkseg></trk></gpx>